Wetterdaten: Donnerstag, 01.09.2016
Datum Zeit Temp. A. Temp. A. max Feuchte A. Luftdruck Regen Wind Richtung Richtung Sonnenschein ET UV Solar Taupunkt Windben
01.09.2016 00:00 17,1 C 17,1 C 90 % 1019,7 hPa 0,0 mm 6,2 km/h (2 Bft) S 178 0 min 0,000 mm 0,0 UV-I 0 W/m 15,4 C 11,3 km/h (2 Bft)
01.09.2016 00:01 17,1 C 17,1 C 90 % 1019,7 hPa 0,0 mm 4,5 km/h (1 Bft) S 173 0 min 0,000 mm 0,0 UV-I 0 W/m 15,4 C 8,0 km/h (2 Bft)
01.09.2016 00:02 17,1 C 17,1 C 90 % 1019,7 hPa 0,0 mm 6,0 km/h (2 Bft) S 190 0 min 0,000 mm 0,0 UV-I 0 W/m 15,4 C 11,3 km/h (2 Bft)
01.09.2016 00:03 17,1 C 17,1 C 90 % 1019,7 hPa 0,0 mm 6,9 km/h (2 Bft) S-SO 156 0 min 0,000 mm 0,0 UV-I 0 W/m 15,4 C 12,9 km/h (3 Bft)
01.09.2016 00:04 17,2 C 17,2 C 90 % 1019,6 hPa 0,0 mm 4,7 km/h (1 Bft) S 183 0 min 0,000 mm 0,0 UV-I 0 W/m 15,5 C 8,0 km/h (2 Bft)
01.09.2016 00:05 17,1 C 17,2 C 90 % 1019,6 hPa 0,0 mm 6,3 km/h (2 Bft) S-SW 198 0 min 0,000 mm 0,0 UV-I 0 W/m 15,4 C 9,7 km/h (2 Bft)
01.09.2016 00:06 17,1 C 17,2 C 90 % 1019,7 hPa 0,0 mm 6,6 km/h (2 Bft) S 184 0 min 0,000 mm 0,0 UV-I 0 W/m 15,4 C 9,7 km/h (2 Bft)
01.09.2016 00:07 17,1 C 17,1 C 90 % 1019,6 hPa 0,0 mm 8,3 km/h (2 Bft) S 190 0 min 0,000 mm 0,0 UV-I 0 W/m 15,4 C 11,3 km/h (2 Bft)
01.09.2016 00:08 17,1 C 17,2 C 90 % 1019,7 hPa 0,0 mm 8,3 km/h (2 Bft) S-SW 194 0 min 0,000 mm 0,0 UV-I 0 W/m 15,4 C 9,7 km/h (2 Bft)
01.09.2016 00:09 17,1 C 17,2 C 90 % 1019,6 hPa 0,0 mm 7,4 km/h (2 Bft) S 173 0 min 0,000 mm 0,0 UV-I 0 W/m 15,4 C 11,3 km/h (2 Bft)
01.09.2016 00:10 17,1 C 17,1 C 90 % 1019,6 hPa 0,0 mm 3,8 km/h (1 Bft) S 173 0 min 0,000 mm 0,0 UV-I 0 W/m 15,4 C 4,8 km/h (1 Bft)
01.09.2016 00:11 17,1 C 17,1 C 90 % 1019,7 hPa 0,0 mm 2,2 km/h (1 Bft) S 180 0 min 0,000 mm 0,0 UV-I 0 W/m 15,4 C 3,2 km/h (1 Bft)
01.09.2016 00:12 17,1 C 17,1 C 90 % 1019,6 hPa 0,0 mm 3,4 km/h (1 Bft) S-SW 201 0 min 0,000 mm 0,0 UV-I 0 W/m 15,4 C 4,8 km/h (1 Bft)
01.09.2016 00:13 17,1 C 17,1 C 90 % 1019,7 hPa 0,0 mm 2,3 km/h (1 Bft) S-SW 199 0 min 0,000 mm 0,0 UV-I 0 W/m 15,4 C 4,8 km/h (1 Bft)
01.09.2016 00:14 17,1 C 17,1 C 90 % 1019,7 hPa 0,0 mm 1,7 km/h (1 Bft) S-SW 199 0 min 0,000 mm 0,0 UV-I 0 W/m 15,4 C 3,2 km/h (1 Bft)
01.09.2016 00:15 17,1 C 17,1 C 90 % 1019,7 hPa 0,0 mm 1,7 km/h (1 Bft) S 182 0 min 0,000 mm 0,0 UV-I 0 W/m 15,4 C 3,2 km/h (1 Bft)
01.09.2016 00:16 17,1 C 17,1 C 89 % 1019,7 hPa 0,0 mm 2,2 km/h (1 Bft) S 182 0 min 0,000 mm 0,0 UV-I 0 W/m 15,3 C 4,8 km/h (1 Bft)
01.09.2016 00:17 17,0 C 17,1 C 90 % 1019,7 hPa 0,0 mm 4,6 km/h (1 Bft) S-SO 163 0 min 0,000 mm 0,0 UV-I 0 W/m 15,3 C 8,0 km/h (2 Bft)
01.09.2016 00:18 17,1 C 17,1 C 90 % 1019,7 hPa 0,0 mm 3,0 km/h (1 Bft) S-SO 163 0 min 0,000 mm 0,0 UV-I 0 W/m 15,4 C 6,4 km/h (2 Bft)
01.09.2016 00:19 17,0 C 17,1 C 89 % 1019,7 hPa 0,0 mm 1,8 km/h (1 Bft) S-SO 163 0 min 0,000 mm 0,0 UV-I 0 W/m 15,2 C 3,2 km/h (1 Bft)
01.09.2016 00:20 17,1 C 17,1 C 89 % 1019,7 hPa 0,0 mm 1,5 km/h (1 Bft) S 175 0 min 0,000 mm 0,0 UV-I 0 W/m 15,3 C 6,4 km/h (2 Bft)
01.09.2016 00:21 17,0 C 17,1 C 89 % 1019,8 hPa 0,0 mm 3,6 km/h (1 Bft) S-SW 197 0 min 0,000 mm 0,0 UV-I 0 W/m 15,2 C 4,8 km/h (1 Bft)
01.09.2016 00:22 17,0 C 17,0 C 90 % 1019,7 hPa 0,0 mm 2,0 km/h (1 Bft) S-SW 197 0 min 0,000 mm 0,0 UV-I 0 W/m 15,3 C 3,2 km/h (1 Bft)
01.09.2016 00:23 16,9 C 17,0 C 90 % 1019,7 hPa 0,0 mm 0,7 km/h (0 Bft) S 190 0 min 0,000 mm 0,0 UV-I 0 W/m 15,2 C 3,2 km/h (1 Bft)
01.09.2016 00:24 16,9 C 16,9 C 90 % 1019,7 hPa 0,0 mm 3,2 km/h (1 Bft) S 190 0 min 0,000 mm 0,0 UV-I 0 W/m 15,2 C 4,8 km/h (1 Bft)
01.09.2016 00:25 16,9 C 16,9 C 90 % 1019,7 hPa 0,0 mm 1,3 km/h (1 Bft) S 190 0 min 0,000 mm 0,0 UV-I 0 W/m 15,2 C 3,2 km/h (1 Bft)
01.09.2016 00:26 16,8 C 16,9 C 90 % 1019,8 hPa 0,0 mm 0,1 km/h (0 Bft) S 190 0 min 0,000 mm 0,0 UV-I 0 W/m 15,1 C 1,6 km/h (1 Bft)
01.09.2016 00:27 16,8 C 16,8 C 90 % 1019,8 hPa 0,0 mm 2,1 km/h (1 Bft) S 190 0 min 0,000 mm 0,0 UV-I 0 W/m 15,1 C 4,8 km/h (1 Bft)
01.09.2016 00:28 16,8 C 16,8 C 90 % 1019,8 hPa 0,0 mm 3,6 km/h (1 Bft) S 186 0 min 0,000 mm 0,0 UV-I 0 W/m 15,1 C 4,8 km/h (1 Bft)
01.09.2016 00:29 16,8 C 16,8 C 90 % 1019,8 hPa 0,0 mm 2,1 km/h (1 Bft) S 186 0 min 0,000 mm 0,0 UV-I 0 W/m 15,1 C 3,2 km/h (1 Bft)
01.09.2016 00:30 16,8 C 16,8 C 90 % 1019,8 hPa 0,0 mm 0,5 km/h (0 Bft) S 186 0 min 0,000 mm 0,0 UV-I 0 W/m 15,1 C 1,6 km/h (1 Bft)
01.09.2016 00:31 16,9 C 16,9 C 90 % 1019,8 hPa 0,0 mm 1,3 km/h (1 Bft) S 187 0 min 0,000 mm 0,0 UV-I 0 W/m 15,2 C 3,2 km/h (1 Bft)
01.09.2016 00:32 16,9 C 16,9 C 90 % 1019,8 hPa 0,0 mm 0,0 km/h (0 Bft) S 187 0 min 0,000 mm 0,0 UV-I 0 W/m 15,2 C 0,0 km/h (0 Bft)
01.09.2016 00:33 16,9 C 16,9 C 90 % 1019,8 hPa 0,0 mm 1,3 km/h (1 Bft) S 187 0 min 0,000 mm 0,0 UV-I 0 W/m 15,2 C 3,2 km/h (1 Bft)
01.09.2016 00:34 16,8 C 16,9 C 90 % 1019,9 hPa 0,0 mm 0,1 km/h (0 Bft) S 187 0 min 0,000 mm 0,0 UV-I 0 W/m 15,1 C 1,6 km/h (1 Bft)
01.09.2016 00:35 16,8 C 16,8 C 90 % 1019,9 hPa 0,0 mm 0,0 km/h (0 Bft) S 187 0 min 0,000 mm 0,0 UV-I 0 W/m 15,1 C 0,0 km/h (0 Bft)
01.09.2016 00:36 16,7 C 16,8 C 90 % 1019,9 hPa 0,0 mm 1,8 km/h (1 Bft) S 185 0 min 0,000 mm 0,0 UV-I 0 W/m 15,0 C 3,2 km/h (1 Bft)
01.09.2016 00:37 16,7 C 16,7 C 91 % 1019,9 hPa 0,0 mm 1,1 km/h (1 Bft) S 185 0 min 0,000 mm 0,0 UV-I 0 W/m 15,2 C 3,2 km/h (1 Bft)
01.09.2016 00:38 16,7 C 16,7 C 91 % 1020,0 hPa 0,0 mm 0,0 km/h (0 Bft) S 185 0 min 0,000 mm 0,0 UV-I 0 W/m 15,2 C 0,0 km/h (0 Bft)
01.09.2016 00:39 16,6 C 16,7 C 91 % 1019,9 hPa 0,0 mm 0,0 km/h (0 Bft) S 185 0 min 0,000 mm 0,0 UV-I 0 W/m 15,1 C 0,0 km/h (0 Bft)
01.09.2016 00:40 16,6 C 16,6 C 91 % 1019,9 hPa 0,0 mm 0,0 km/h (0 Bft) S 185 0 min 0,000 mm 0,0 UV-I 0 W/m 15,1 C 0,0 km/h (0 Bft)
01.09.2016 00:41 16,6 C 16,6 C 91 % 1019,9 hPa 0,0 mm 0,0 km/h (0 Bft) S 185 0 min 0,000 mm 0,0 UV-I 0 W/m 15,1 C 0,0 km/h (0 Bft)
01.09.2016 00:42 16,5 C 16,6 C 91 % 1019,9 hPa 0,0 mm 0,0 km/h (0 Bft) S 185 0 min 0,000 mm 0,0 UV-I 0 W/m 15,0 C 0,0 km/h (0 Bft)
01.09.2016 00:43 16,4 C 16,5 C 91 % 1019,9 hPa 0,0 mm 0,0 km/h (0 Bft) S 185 0 min 0,000 mm 0,0 UV-I 0 W/m 14,9 C 0,0 km/h (0 Bft)
01.09.2016 00:44 16,4 C 16,4 C 92 % 1020,0 hPa 0,0 mm 2,2 km/h (1 Bft) S-SW 200 0 min 0,000 mm 0,0 UV-I 0 W/m 15,1 C 4,8 km/h (1 Bft)
01.09.2016 00:45 16,4 C 16,5 C 91 % 1019,9 hPa 0,0 mm 3,4 km/h (1 Bft) S-SW 197 0 min 0,000 mm 0,0 UV-I 0 W/m 14,9 C 4,8 km/h (1 Bft)
01.09.2016 00:46 16,4 C 16,4 C 92 % 1019,9 hPa 0,0 mm 1,3 km/h (1 Bft) S-SW 197 0 min 0,000 mm 0,0 UV-I 0 W/m 15,1 C 3,2 km/h (1 Bft)
01.09.2016 00:47 16,4 C 16,4 C 92 % 1019,9 hPa 0,0 mm 0,0 km/h (0 Bft) S-SW 197 0 min 0,000 mm 0,0 UV-I 0 W/m 15,1 C 0,0 km/h (0 Bft)
01.09.2016 00:48 16,5 C 16,5 C 91 % 1019,9 hPa 0,0 mm 0,4 km/h (0 Bft) S-SW 197 0 min 0,000 mm 0,0 UV-I 0 W/m 15,0 C 1,6 km/h (1 Bft)
01.09.2016 00:49 16,5 C 16,5 C 91 % 1019,9 hPa 0,0 mm 1,6 km/h (1 Bft) S-SW 197 0 min 0,000 mm 0,0 UV-I 0 W/m 15,0 C 3,2 km/h (1 Bft)
01.09.2016 00:50 16,4 C 16,5 C 91 % 1019,9 hPa 0,0 mm 0,1 km/h (0 Bft) S-SW 197 0 min 0,000 mm 0,0 UV-I 0 W/m 14,9 C 1,6 km/h (1 Bft)
01.09.2016 00:51 16,4 C 16,4 C 91 % 1019,9 hPa 0,0 mm 0,0 km/h (0 Bft) S-SW 197 0 min 0,000 mm 0,0 UV-I 0 W/m 14,9 C 0,0 km/h (0 Bft)
01.09.2016 00:52 16,3 C 16,4 C 91 % 1019,9 hPa 0,0 mm 0,2 km/h (0 Bft) S-SW 197 0 min 0,000 mm 0,0 UV-I 0 W/m 14,8 C 1,6 km/h (1 Bft)
01.09.2016 00:53 16,3 C 16,3 C 91 % 1019,9 hPa 0,0 mm 0,7 km/h (0 Bft) S-SW 197 0 min 0,000 mm 0,0 UV-I 0 W/m 14,8 C 1,6 km/h (1 Bft)
01.09.2016 00:54 16,3 C 16,3 C 92 % 1019,9 hPa 0,0 mm 0,3 km/h (0 Bft) S-SW 197 0 min 0,000 mm 0,0 UV-I 0 W/m 15,0 C 1,6 km/h (1 Bft)
01.09.2016 00:55 16,2 C 16,3 C 92 % 1019,9 hPa 0,0 mm 1,2 km/h (1 Bft) S-SW 197 0 min 0,000 mm 0,0 UV-I 0 W/m 14,9 C 1,6 km/h (1 Bft)
01.09.2016 00:56 16,2 C 16,2 C 92 % 1019,9 hPa 0,0 mm 1,6 km/h (1 Bft) S-SW 197 0 min 0,000 mm 0,0 UV-I 0 W/m 14,9 C 1,6 km/h (1 Bft)
01.09.2016 00:57 16,2 C 16,2 C 93 % 1019,9 hPa 0,0 mm 0,3 km/h (0 Bft) S-SW 197 0 min 0,000 mm 0,0 UV-I 0 W/m 15,1 C 1,6 km/h (1 Bft)
01.09.2016 00:58 16,2 C 16,2 C 93 % 1019,9 hPa 0,0 mm 0,0 km/h (0 Bft) S-SW 197 0 min 0,000 mm 0,0 UV-I 0 W/m 15,1 C 0,0 km/h (0 Bft)
01.09.2016 00:59 16,1 C 16,2 C 92 % 1019,9 hPa 0,0 mm 0,0 km/h (0 Bft) S-SW 197 0 min 0,000 mm 0,0 UV-I 0 W/m 14,8 C 0,0 km/h (0 Bft)
01.09.2016 01:00 16,1 C 16,1 C 92 % 1019,8 hPa 0,0 mm 0,1 km/h (0 Bft) S-SW 197 0 min 0,000 mm 0,0 UV-I 0 W/m 14,8 C 1,6 km/h (1 Bft)
01.09.2016 01:01 16,0 C 16,1 C 92 % 1019,8 hPa 0,0 mm 0,0 km/h (0 Bft) S-SW 197 0 min 0,000 mm 0,0 UV-I 0 W/m 14,7 C 0,0 km/h (0 Bft)
01.09.2016 01:02 15,9 C 16,0 C 92 % 1019,8 hPa 0,0 mm 0,0 km/h (0 Bft) S-SW 197 0 min 0,000 mm 0,0 UV-I 0 W/m 14,6 C 0,0 km/h (0 Bft)
01.09.2016 01:03 15,9 C 15,9 C 92 % 1019,9 hPa 0,0 mm 0,0 km/h (0 Bft) S-SW 197 0 min 0,000 mm 0,0 UV-I 0 W/m 14,6 C 0,0 km/h (0 Bft)
01.09.2016 01:04 15,8 C 15,9 C 92 % 1019,8 hPa 0,0 mm 0,0 km/h (0 Bft) S-SW 197 0 min 0,000 mm 0,0 UV-I 0 W/m 14,5 C 0,0 km/h (0 Bft)
01.09.2016 01:05 15,8 C 15,8 C 93 % 1019,9 hPa 0,0 mm 0,0 km/h (0 Bft) S-SW 197 0 min 0,000 mm 0,0 UV-I 0 W/m 14,7 C 0,0 km/h (0 Bft)
01.09.2016 01:06 15,8 C 15,8 C 93 % 1019,9 hPa 0,0 mm 0,0 km/h (0 Bft) S-SW 197 0 min 0,000 mm 0,0 UV-I 0 W/m 14,7 C 0,0 km/h (0 Bft)
01.09.2016 01:07 15,8 C 15,8 C 93 % 1019,9 hPa 0,0 mm 0,0 km/h (0 Bft) S-SW 197 0 min 0,000 mm 0,0 UV-I 0 W/m 14,7 C 0,0 km/h (0 Bft)
01.09.2016 01:08 15,8 C 15,8 C 93 % 1019,9 hPa 0,0 mm 0,9 km/h (0 Bft) S-SW 197 0 min 0,000 mm 0,0 UV-I 0 W/m 14,7 C 3,2 km/h (1 Bft)
01.09.2016 01:09 15,8 C 15,8 C 93 % 1019,8 hPa 0,0 mm 1,1 km/h (1 Bft) S-SW 197 0 min 0,000 mm 0,0 UV-I 0 W/m 14,7 C 3,2 km/h (1 Bft)
01.09.2016 01:10 15,8 C 15,8 C 93 % 1019,9 hPa 0,0 mm 0,0 km/h (0 Bft) S-SW 197 0 min 0,000 mm 0,0 UV-I 0 W/m 14,7 C 0,0 km/h (0 Bft)
01.09.2016 01:11 15,8 C 15,8 C 93 % 1019,9 hPa 0,0 mm 0,0 km/h (0 Bft) S-SW 197 0 min 0,000 mm 0,0 UV-I 0 W/m 14,7 C 0,0 km/h (0 Bft)
01.09.2016 01:12 15,8 C 15,8 C 93 % 1019,9 hPa 0,0 mm 0,0 km/h (0 Bft) S-SW 197 0 min 0,000 mm 0,0 UV-I 0 W/m 14,7 C 0,0 km/h (0 Bft)
01.09.2016 01:13 15,7 C 15,8 C 93 % 1019,9 hPa 0,0 mm 0,0 km/h (0 Bft) S-SW 197 0 min 0,000 mm 0,0 UV-I 0 W/m 14,6 C 0,0 km/h (0 Bft)
01.09.2016 01:14 15,7 C 15,7 C 93 % 1019,9 hPa 0,0 mm 0,0 km/h (0 Bft) S-SW 197 0 min 0,000 mm 0,0 UV-I 0 W/m 14,6 C 0,0 km/h (0 Bft)
01.09.2016 01:15 15,6 C 15,7 C 93 % 1019,9 hPa 0,0 mm 0,0 km/h (0 Bft) S-SW 197 0 min 0,000 mm 0,0 UV-I 0 W/m 14,5 C 0,0 km/h (0 Bft)
01.09.2016 01:16 15,6 C 15,6 C 93 % 1019,9 hPa 0,0 mm 0,0 km/h (0 Bft) S-SW 197 0 min 0,000 mm 0,0 UV-I 0 W/m 14,5 C 0,0 km/h (0 Bft)
01.09.2016 01:17 15,6 C 15,6 C 93 % 1019,9 hPa 0,0 mm 0,3 km/h (0 Bft) S-SW 197 0 min 0,000 mm 0,0 UV-I 0 W/m 14,5 C 1,6 km/h (1 Bft)
01.09.2016 01:18 15,6 C 15,6 C 94 % 1019,9 hPa 0,0 mm 0,3 km/h (0 Bft) S-SW 197 0 min 0,000 mm 0,0 UV-I 0 W/m 14,6 C 1,6 km/h (1 Bft)
01.09.2016 01:19 15,6 C 15,6 C 94 % 1019,9 hPa 0,0 mm 0,0 km/h (0 Bft) S-SW 197 0 min 0,000 mm 0,0 UV-I 0 W/m 14,6 C 0,0 km/h (0 Bft)
01.09.2016 01:20 15,4 C 15,6 C 94 % 1019,9 hPa 0,0 mm 0,0 km/h (0 Bft) S-SW 197 0 min 0,000 mm 0,0 UV-I 0 W/m 14,4 C 0,0 km/h (0 Bft)
01.09.2016 01:21 15,4 C 15,4 C 93 % 1019,9 hPa 0,0 mm 0,0 km/h (0 Bft) S-SW 197 0 min 0,000 mm 0,0 UV-I 0 W/m 14,3 C 0,0 km/h (0 Bft)
01.09.2016 01:22 15,4 C 15,4 C 94 % 1019,9 hPa 0,0 mm 0,0 km/h (0 Bft) S-SW 197 0 min 0,000 mm 0,0 UV-I 0 W/m 14,4 C 0,0 km/h (0 Bft)
01.09.2016 01:23 15,4 C 15,4 C 93 % 1020,0 hPa 0,0 mm 0,0 km/h (0 Bft) S-SW 197 0 min 0,000 mm 0,0 UV-I 0 W/m 14,3 C 0,0 km/h (0 Bft)
01.09.2016 01:24 15,4 C 15,4 C 93 % 1019,9 hPa 0,0 mm 0,0 km/h (0 Bft) S-SW 197 0 min 0,000 mm 0,0 UV-I 0 W/m 14,3 C 0,0 km/h (0 Bft)
01.09.2016 01:25 15,3 C 15,4 C 93 % 1019,9 hPa 0,0 mm 0,0 km/h (0 Bft) S-SW 197 0 min 0,000 mm 0,0 UV-I 0 W/m 14,2 C 0,0 km/h (0 Bft)
01.09.2016 01:26 15,3 C 15,3 C 94 % 1020,0 hPa 0,0 mm 0,0 km/h (0 Bft) S-SW 197 0 min 0,000 mm 0,0 UV-I 0 W/m 14,3 C 0,0 km/h (0 Bft)
01.09.2016 01:27 15,3 C 15,4 C 94 % 1020,0 hPa 0,0 mm 0,0 km/h (0 Bft) S-SW 197 0 min 0,000 mm 0,0 UV-I 0 W/m 14,3 C 0,0 km/h (0 Bft)
01.09.2016 01:28 15,3 C 15,3 C 94 % 1019,9 hPa 0,0 mm 0,0 km/h (0 Bft) S-SW 197 0 min 0,000 mm 0,0 UV-I 0 W/m 14,3 C 0,0 km/h (0 Bft)
01.09.2016 01:29 15,4 C 15,4 C 94 % 1019,9 hPa 0,0 mm 1,2 km/h (1 Bft) S-SW 197 0 min 0,000 mm 0,0 UV-I 0 W/m 14,4 C 3,2 km/h (1 Bft)
01.09.2016 01:30 15,4 C 15,4 C 94 % 1019,8 hPa 0,0 mm 1,4 km/h (1 Bft) S-SW 197 0 min 0,000 mm 0,0 UV-I 0 W/m 14,4 C 1,6 km/h (1 Bft)
01.09.2016 01:31 15,4 C 15,4 C 94 % 1019,8 hPa 0,0 mm 0,3 km/h (0 Bft) S-SW 197 0 min 0,000 mm 0,0 UV-I 0 W/m 14,4 C 1,6 km/h (1 Bft)
01.09.2016 01:32 15,3 C 15,4 C 93 % 1019,9 hPa 0,0 mm 0,8 km/h (0 Bft) S-SW 197 0 min 0,000 mm 0,0 UV-I 0 W/m 14,2 C 1,6 km/h (1 Bft)
01.09.2016 01:33 15,2 C 15,3 C 93 % 1019,9 hPa 0,0 mm 0,0 km/h (0 Bft) S-SW 197 0 min 0,000 mm 0,0 UV-I 0 W/m 14,1 C 0,0 km/h (0 Bft)
01.09.2016 01:34 15,2 C 15,3 C 93 % 1019,9 hPa 0,0 mm 0,0 km/h (0 Bft) S-SW 197 0 min 0,000 mm 0,0 UV-I 0 W/m 14,1 C 0,0 km/h (0 Bft)
01.09.2016 01:35 15,3 C 15,3 C 94 % 1019,9 hPa 0,0 mm 1,1 km/h (1 Bft) S-SW 197 0 min 0,000 mm 0,0 UV-I 0 W/m 14,3 C 3,2 km/h (1 Bft)
01.09.2016 01:36 15,3 C 15,3 C 94 % 1019,9 hPa 0,0 mm 1,3 km/h (1 Bft) S-SW 197 0 min 0,000 mm 0,0 UV-I 0 W/m 14,3 C 1,6 km/h (1 Bft)
01.09.2016 01:37 15,3 C 15,3 C 93 % 1019,8 hPa 0,0 mm 1,6 km/h (1 Bft) S-SW 197 0 min 0,000 mm 0,0 UV-I 0 W/m 14,2 C 3,2 km/h (1 Bft)
01.09.2016 01:38 15,2 C 15,3 C 93 % 1019,8 hPa 0,0 mm 0,0 km/h (0 Bft) S-SW 197 0 min 0,000 mm 0,0 UV-I 0 W/m 14,1 C 0,0 km/h (0 Bft)
01.09.2016 01:39 15,2 C 15,2 C 93 % 1019,8 hPa 0,0 mm 0,1 km/h (0 Bft) S-SW 197 0 min 0,000 mm 0,0 UV-I 0 W/m 14,1 C 1,6 km/h (1 Bft)
01.09.2016 01:40 15,1 C 15,2 C 93 % 1019,9 hPa 0,0 mm 0,0 km/h (0 Bft) S-SW 197 0 min 0,000 mm 0,0 UV-I 0 W/m 14,0 C 0,0 km/h (0 Bft)
01.09.2016 01:41 15,1 C 15,2 C 93 % 1019,9 hPa 0,0 mm 0,0 km/h (0 Bft) S-SW 197 0 min 0,000 mm 0,0 UV-I 0 W/m 14,0 C 0,0 km/h (0 Bft)
01.09.2016 01:42 15,1 C 15,2 C 93 % 1019,9 hPa 0,0 mm 0,2 km/h (0 Bft) S-SW 197 0 min 0,000 mm 0,0 UV-I 0 W/m 14,0 C 1,6 km/h (1 Bft)
01.09.2016 01:43 15,1 C 15,1 C 93 % 1019,9 hPa 0,0 mm 0,4 km/h (0 Bft) S-SW 197 0 min 0,000 mm 0,0 UV-I 0 W/m 14,0 C 1,6 km/h (1 Bft)
01.09.2016 01:44 15,1 C 15,1 C 93 % 1019,9 hPa 0,0 mm 0,1 km/h (0 Bft) S-SW 197 0 min 0,000 mm 0,0 UV-I 0 W/m 14,0 C 1,6 km/h (1 Bft)
01.09.2016 01:45 15,0 C 15,1 C 93 % 1019,9 hPa 0,0 mm 0,0 km/h (0 Bft) S-SW 197 0 min 0,000 mm 0,0 UV-I 0 W/m 13,9 C 0,0 km/h (0 Bft)
01.09.2016 01:46 14,9 C 15,0 C 93 % 1019,9 hPa 0,0 mm 0,1 km/h (0 Bft) S-SW 197 0 min 0,000 mm 0,0 UV-I 0 W/m 13,8 C 1,6 km/h (1 Bft)
01.09.2016 01:47 14,9 C 14,9 C 94 % 1019,9 hPa 0,0 mm 0,1 km/h (0 Bft) S-SW 197 0 min 0,000 mm 0,0 UV-I 0 W/m 13,9 C 1,6 km/h (1 Bft)
01.09.2016 01:48 14,8 C 14,9 C 93 % 1019,8 hPa 0,0 mm 0,3 km/h (0 Bft) S-SW 197 0 min 0,000 mm 0,0 UV-I 0 W/m 13,7 C 1,6 km/h (1 Bft)
01.09.2016 01:49 14,8 C 14,8 C 93 % 1019,9 hPa 0,0 mm 0,0 km/h (0 Bft) S-SW 197 0 min 0,000 mm 0,0 UV-I 0 W/m 13,7 C 0,0 km/h (0 Bft)
01.09.2016 01:50 14,8 C 14,8 C 94 % 1019,9 hPa 0,0 mm 0,0 km/h (0 Bft) S-SW 197 0 min 0,000 mm 0,0 UV-I 0 W/m 13,8 C 0,0 km/h (0 Bft)
01.09.2016 01:51 14,7 C 14,8 C 93 % 1019,9 hPa 0,0 mm 0,0 km/h (0 Bft) S-SW 197 0 min 0,000 mm 0,0 UV-I 0 W/m 13,6 C 0,0 km/h (0 Bft)
01.09.2016 01:52 14,7 C 14,7 C 94 % 1019,8 hPa 0,0 mm 0,0 km/h (0 Bft) S-SW 197 0 min 0,000 mm 0,0 UV-I 0 W/m 13,7 C 0,0 km/h (0 Bft)
01.09.2016 01:53 14,7 C 14,7 C 94 % 1019,8 hPa 0,0 mm 0,0 km/h (0 Bft) S-SW 197 0 min 0,000 mm 0,0 UV-I 0 W/m 13,7 C 0,0 km/h (0 Bft)
01.09.2016 01:54 14,7 C 14,7 C 94 % 1019,8 hPa 0,0 mm 0,0 km/h (0 Bft) S-SW 197 0 min 0,000 mm 0,0 UV-I 0 W/m 13,7 C 0,0 km/h (0 Bft)
01.09.2016 01:55 14,8 C 14,8 C 95 % 1019,8 hPa 0,0 mm 0,0 km/h (0 Bft) S-SW 197 0 min 0,000 mm 0,0 UV-I 0 W/m 14,0 C 0,0 km/h (0 Bft)
01.09.2016 01:56 14,8 C 14,8 C 95 % 1019,8 hPa 0,0 mm 0,0 km/h (0 Bft) S-SW 197 0 min 0,000 mm 0,0 UV-I 0 W/m 14,0 C 0,0 km/h (0 Bft)
01.09.2016 01:57 14,8 C 14,8 C 95 % 1019,8 hPa 0,0 mm 0,0 km/h (0 Bft) S-SW 197 0 min 0,000 mm 0,0 UV-I 0 W/m 14,0 C 0,0 km/h (0 Bft)
01.09.2016 01:58 14,9 C 14,9 C 95 % 1019,9 hPa 0,0 mm 0,5 km/h (0 Bft) S-SW 197 0 min 0,000 mm 0,0 UV-I 0 W/m 14,1 C 1,6 km/h (1 Bft)
01.09.2016 01:59 14,8 C 14,9 C 94 % 1019,8 hPa 0,0 mm 0,1 km/h (0 Bft) S-SW 197 0 min 0,000 mm 0,0 UV-I 0 W/m 13,8 C 1,6 km/h (1 Bft)
01.09.2016 02:00 14,7 C 14,8 C 94 % 1019,8 hPa 0,0 mm 0,0 km/h (0 Bft) S-SW 197 0 min 0,000 mm 0,0 UV-I 0 W/m 13,7 C 0,0 km/h (0 Bft)
01.09.2016 02:01 14,7 C 14,7 C 94 % 1019,8 hPa 0,0 mm 0,0 km/h (0 Bft) S-SW 197 0 min 0,000 mm 0,0 UV-I 0 W/m 13,7 C 0,0 km/h (0 Bft)
01.09.2016 02:02 14,7 C 14,7 C 95 % 1019,8 hPa 0,0 mm 0,0 km/h (0 Bft) S-SW 197 0 min 0,000 mm 0,0 UV-I 0 W/m 13,9 C 0,0 km/h (0 Bft)
01.09.2016 02:03 14,7 C 14,7 C 95 % 1019,9 hPa 0,0 mm 0,0 km/h (0 Bft) S-SW 197 0 min 0,000 mm 0,0 UV-I 0 W/m 13,9 C 0,0 km/h (0 Bft)
01.09.2016 02:04 14,7 C 14,7 C 95 % 1019,9 hPa 0,0 mm 1,0 km/h (0 Bft) S-SW 197 0 min 0,000 mm 0,0 UV-I 0 W/m 13,9 C 3,2 km/h (1 Bft)
01.09.2016 02:05 14,6 C 14,7 C 95 % 1019,9 hPa 0,0 mm 0,6 km/h (0 Bft) S-SW 197 0 min 0,000 mm 0,0 UV-I 0 W/m 13,8 C 1,6 km/h (1 Bft)
01.09.2016 02:06 14,6 C 14,6 C 95 % 1019,9 hPa 0,0 mm 0,1 km/h (0 Bft) S-SW 197 0 min 0,000 mm 0,0 UV-I 0 W/m 13,8 C 1,6 km/h (1 Bft)
01.09.2016 02:07 14,6 C 14,6 C 95 % 1019,9 hPa 0,0 mm 0,0 km/h (0 Bft) S-SW 197 0 min 0,000 mm 0,0 UV-I 0 W/m 13,8 C 0,0 km/h (0 Bft)
01.09.2016 02:08 14,6 C 14,6 C 95 % 1019,9 hPa 0,0 mm 0,0 km/h (0 Bft) S-SW 197 0 min 0,000 mm 0,0 UV-I 0 W/m 13,8 C 0,0 km/h (0 Bft)
01.09.2016 02:09 14,6 C 14,6 C 95 % 1019,9 hPa 0,0 mm 0,5 km/h (0 Bft) S-SW 197 0 min 0,000 mm 0,0 UV-I 0 W/m 13,8 C 1,6 km/h (1 Bft)
01.09.2016 02:10 14,6 C 14,6 C 95 % 1019,9 hPa 0,0 mm 0,0 km/h (0 Bft) S-SW 197 0 min 0,000 mm 0,0 UV-I 0 W/m 13,8 C 0,0 km/h (0 Bft)
01.09.2016 02:11 14,5 C 14,6 C 95 % 1019,9 hPa 0,0 mm 0,7 km/h (0 Bft) S-SW 197 0 min 0,000 mm 0,0 UV-I 0 W/m 13,7 C 1,6 km/h (1 Bft)
01.09.2016 02:12 14,6 C 14,6 C 95 % 1019,9 hPa 0,0 mm 1,7 km/h (1 Bft) S-SW 197 0 min 0,000 mm 0,0 UV-I 0 W/m 13,8 C 3,2 km/h (1 Bft)
01.09.2016 02:13 14,7 C 14,7 C 95 % 1019,9 hPa 0,0 mm 1,2 km/h (1 Bft) S-SW 197 0 min 0,000 mm 0,0 UV-I 0 W/m 13,9 C 1,6 km/h (1 Bft)
01.09.2016 02:14 14,7 C 14,7 C 96 % 1019,9 hPa 0,0 mm 0,6 km/h (0 Bft) S-SW 197 0 min 0,000 mm 0,0 UV-I 0 W/m 14,1 C 1,6 km/h (1 Bft)
01.09.2016 02:15 14,8 C 14,8 C 96 % 1019,9 hPa 0,0 mm 0,0 km/h (0 Bft) S-SW 197 0 min 0,000 mm 0,0 UV-I 0 W/m 14,2 C 0,0 km/h (0 Bft)
01.09.2016 02:16 14,8 C 14,8 C 95 % 1019,9 hPa 0,0 mm 0,0 km/h (0 Bft) S-SW 197 0 min 0,000 mm 0,0 UV-I 0 W/m 14,0 C 0,0 km/h (0 Bft)
01.09.2016 02:17 14,8 C 14,8 C 95 % 1019,9 hPa 0,0 mm 0,0 km/h (0 Bft) S-SW 197 0 min 0,000 mm 0,0 UV-I 0 W/m 14,0 C 0,0 km/h (0 Bft)
01.09.2016 02:18 14,7 C 14,8 C 95 % 1019,9 hPa 0,0 mm 0,0 km/h (0 Bft) S-SW 197 0 min 0,000 mm 0,0 UV-I 0 W/m 13,9 C 0,0 km/h (0 Bft)
01.09.2016 02:19 14,7 C 14,7 C 95 % 1019,9 hPa 0,0 mm 0,0 km/h (0 Bft) S-SW 197 0 min 0,000 mm 0,0 UV-I 0 W/m 13,9 C 0,0 km/h (0 Bft)
01.09.2016 02:20 14,7 C 14,7 C 95 % 1019,9 hPa 0,0 mm 0,0 km/h (0 Bft) S-SW 197 0 min 0,000 mm 0,0 UV-I 0 W/m 13,9 C 0,0 km/h (0 Bft)
01.09.2016 02:21 14,6 C 14,7 C 95 % 1019,9 hPa 0,0 mm 0,0 km/h (0 Bft) S-SW 197 0 min 0,000 mm 0,0 UV-I 0 W/m 13,8 C 0,0 km/h (0 Bft)
01.09.2016 02:22 14,6 C 14,6 C 95 % 1019,9 hPa 0,0 mm 0,0 km/h (0 Bft) S-SW 197 0 min 0,000 mm 0,0 UV-I 0 W/m 13,8 C 0,0 km/h (0 Bft)
01.09.2016 02:23 14,6 C 14,6 C 95 % 1019,9 hPa 0,0 mm 0,0 km/h (0 Bft) S-SW 197 0 min 0,000 mm 0,0 UV-I 0 W/m 13,8 C 0,0 km/h (0 Bft)
01.09.2016 02:24 14,6 C 14,6 C 95 % 1019,9 hPa 0,0 mm 0,0 km/h (0 Bft) S-SW 197 0 min 0,000 mm 0,0 UV-I 0 W/m 13,8 C 0,0 km/h (0 Bft)
01.09.2016 02:25 14,6 C 14,6 C 95 % 1019,9 hPa 0,0 mm 0,0 km/h (0 Bft) S-SW 197 0 min 0,000 mm 0,0 UV-I 0 W/m 13,8 C 0,0 km/h (0 Bft)
01.09.2016 02:26 14,6 C 14,6 C 95 % 1019,9 hPa 0,0 mm 0,0 km/h (0 Bft) S-SW 197 0 min 0,000 mm 0,0 UV-I 0 W/m 13,8 C 0,0 km/h (0 Bft)
01.09.2016 02:27 14,6 C 14,6 C 95 % 1020,0 hPa 0,0 mm 2,2 km/h (1 Bft) W-NW 296 0 min 0,000 mm 0,0 UV-I 0 W/m 13,8 C 4,8 km/h (1 Bft)
01.09.2016 02:28 14,5 C 14,6 C 95 % 1020,0 hPa 0,0 mm 1,3 km/h (1 Bft) W-NW 296 0 min 0,000 mm 0,0 UV-I 0 W/m 13,7 C 4,8 km/h (1 Bft)
01.09.2016 02:29 14,4 C 14,6 C 95 % 1020,0 hPa 0,0 mm 1,1 km/h (1 Bft) W-NW 296 0 min 0,000 mm 0,0 UV-I 0 W/m 13,6 C 3,2 km/h (1 Bft)
01.09.2016 02:30 14,5 C 14,5 C 95 % 1020,0 hPa 0,0 mm 0,4 km/h (0 Bft) W-NW 296 0 min 0,000 mm 0,0 UV-I 0 W/m 13,7 C 1,6 km/h (1 Bft)
01.09.2016 02:31 14,6 C 14,6 C 95 % 1020,0 hPa 0,0 mm 0,5 km/h (0 Bft) W-NW 296 0 min 0,000 mm 0,0 UV-I 0 W/m 13,8 C 1,6 km/h (1 Bft)
01.09.2016 02:32 14,6 C 14,6 C 95 % 1020,0 hPa 0,0 mm 2,5 km/h (1 Bft) W-NW 286 0 min 0,000 mm 0,0 UV-I 0 W/m 13,8 C 4,8 km/h (1 Bft)
01.09.2016 02:33 14,5 C 14,6 C 95 % 1020,1 hPa 0,0 mm 1,3 km/h (1 Bft) NW 319 0 min 0,000 mm 0,0 UV-I 0 W/m 13,7 C 3,2 km/h (1 Bft)
01.09.2016 02:34 14,4 C 14,6 C 95 % 1020,0 hPa 0,0 mm 2,3 km/h (1 Bft) O 98 0 min 0,000 mm 0,0 UV-I 0 W/m 13,6 C 3,2 km/h (1 Bft)
01.09.2016 02:35 14,6 C 14,6 C 95 % 1020,0 hPa 0,0 mm 3,4 km/h (1 Bft) O-SO 111 0 min 0,000 mm 0,0 UV-I 0 W/m 13,8 C 6,4 km/h (2 Bft)
01.09.2016 02:36 14,6 C 14,6 C 95 % 1020,0 hPa 0,0 mm 0,1 km/h (0 Bft) O-SO 111 0 min 0,000 mm 0,0 UV-I 0 W/m 13,8 C 1,6 km/h (1 Bft)
01.09.2016 02:37 14,6 C 14,6 C 95 % 1020,0 hPa 0,0 mm 0,2 km/h (0 Bft) O-SO 111 0 min 0,000 mm 0,0 UV-I 0 W/m 13,8 C 1,6 km/h (1 Bft)
01.09.2016 02:38 14,6 C 14,6 C 95 % 1020,0 hPa 0,0 mm 1,7 km/h (1 Bft) O-SO 111 0 min 0,000 mm 0,0 UV-I 0 W/m 13,8 C 3,2 km/h (1 Bft)
01.09.2016 02:39 14,7 C 14,7 C 96 % 1020,0 hPa 0,0 mm 2,0 km/h (1 Bft) O-SO 111 0 min 0,000 mm 0,0 UV-I 0 W/m 14,1 C 3,2 km/h (1 Bft)
01.09.2016 02:40 14,8 C 14,8 C 96 % 1020,0 hPa 0,0 mm 1,8 km/h (1 Bft) O-SO 111 0 min 0,000 mm 0,0 UV-I 0 W/m 14,2 C 3,2 km/h (1 Bft)
01.09.2016 02:41 14,9 C 14,9 C 96 % 1020,0 hPa 0,0 mm 0,9 km/h (0 Bft) O-SO 111 0 min 0,000 mm 0,0 UV-I 0 W/m 14,3 C 1,6 km/h (1 Bft)
01.09.2016 02:42 15,0 C 15,0 C 96 % 1020,0 hPa 0,0 mm 1,9 km/h (1 Bft) O-SO 111 0 min 0,000 mm 0,0 UV-I 0 W/m 14,4 C 3,2 km/h (1 Bft)
01.09.2016 02:43 15,1 C 15,1 C 96 % 1019,9 hPa 0,0 mm 1,4 km/h (1 Bft) O-SO 111 0 min 0,000 mm 0,0 UV-I 0 W/m 14,5 C 3,2 km/h (1 Bft)
01.09.2016 02:44 15,1 C 15,1 C 96 % 1019,9 hPa 0,0 mm 2,5 km/h (1 Bft) SO 146 0 min 0,000 mm 0,0 UV-I 0 W/m 14,5 C 4,8 km/h (1 Bft)
01.09.2016 02:45 15,1 C 15,1 C 96 % 1019,9 hPa 0,0 mm 0,3 km/h (0 Bft) SO 146 0 min 0,000 mm 0,0 UV-I 0 W/m 14,5 C 1,6 km/h (1 Bft)
01.09.2016 02:46 15,1 C 15,1 C 96 % 1019,9 hPa 0,0 mm 0,5 km/h (0 Bft) SO 146 0 min 0,000 mm 0,0 UV-I 0 W/m 14,5 C 1,6 km/h (1 Bft)
01.09.2016 02:47 15,1 C 15,1 C 96 % 1019,8 hPa 0,0 mm 1,2 km/h (1 Bft) SO 146 0 min 0,000 mm 0,0 UV-I 0 W/m 14,5 C 1,6 km/h (1 Bft)
01.09.2016 02:48 15,0 C 15,1 C 95 % 1019,9 hPa 0,0 mm 0,3 km/h (0 Bft) SO 146 0 min 0,000 mm 0,0 UV-I 0 W/m 14,2 C 1,6 km/h (1 Bft)
01.09.2016 02:49 14,9 C 15,0 C 94 % 1019,8 hPa 0,0 mm 0,3 km/h (0 Bft) SO 146 0 min 0,000 mm 0,0 UV-I 0 W/m 13,9 C 1,6 km/h (1 Bft)
01.09.2016 02:50 14,8 C 14,9 C 94 % 1019,8 hPa 0,0 mm 0,3 km/h (0 Bft) SO 146 0 min 0,000 mm 0,0 UV-I 0 W/m 13,8 C 1,6 km/h (1 Bft)
01.09.2016 02:51 14,8 C 14,8 C 94 % 1019,8 hPa 0,0 mm 0,5 km/h (0 Bft) SO 146 0 min 0,000 mm 0,0 UV-I 0 W/m 13,8 C 1,6 km/h (1 Bft)
01.09.2016 02:52 14,8 C 14,8 C 95 % 1019,8 hPa 0,0 mm 0,0 km/h (0 Bft) SO 146 0 min 0,000 mm 0,0 UV-I 0 W/m 14,0 C 0,0 km/h (0 Bft)
01.09.2016 02:53 14,8 C 14,8 C 95 % 1019,8 hPa 0,0 mm 0,0 km/h (0 Bft) SO 146 0 min 0,000 mm 0,0 UV-I 0 W/m 14,0 C 0,0 km/h (0 Bft)
01.09.2016 02:54 14,9 C 14,9 C 95 % 1019,9 hPa 0,0 mm 0,0 km/h (0 Bft) SO 146 0 min 0,000 mm 0,0 UV-I 0 W/m 14,1 C 0,0 km/h (0 Bft)
01.09.2016 02:55 14,9 C 14,9 C 95 % 1019,8 hPa 0,0 mm 0,0 km/h (0 Bft) SO 146 0 min 0,000 mm 0,0 UV-I 0 W/m 14,1 C 0,0 km/h (0 Bft)
01.09.2016 02:56 15,0 C 15,0 C 95 % 1019,8 hPa 0,0 mm 0,0 km/h (0 Bft) SO 146 0 min 0,000 mm 0,0 UV-I 0 W/m 14,2 C 0,0 km/h (0 Bft)
01.09.2016 02:57 15,0 C 15,0 C 95 % 1019,8 hPa 0,0 mm 0,1 km/h (0 Bft) SO 146 0 min 0,000 mm 0,0 UV-I 0 W/m 14,2 C 1,6 km/h (1 Bft)
01.09.2016 02:58 15,0 C 15,0 C 95 % 1019,8 hPa 0,0 mm 0,0 km/h (0 Bft) SO 146 0 min 0,000 mm 0,0 UV-I 0 W/m 14,2 C 0,0 km/h (0 Bft)
01.09.2016 02:59 15,0 C 15,1 C 95 % 1019,7 hPa 0,0 mm 0,0 km/h (0 Bft) SO 146 0 min 0,000 mm 0,0 UV-I 0 W/m 14,2 C 0,0 km/h (0 Bft)
01.09.2016 03:00 15,0 C 15,0 C 95 % 1019,7 hPa 0,0 mm 0,1 km/h (0 Bft) SO 146 0 min 0,000 mm 0,0 UV-I 0 W/m 14,2 C 1,6 km/h (1 Bft)
01.09.2016 03:01 15,1 C 15,1 C 95 % 1019,8 hPa 0,0 mm 0,7 km/h (0 Bft) SO 146 0 min 0,000 mm 0,0 UV-I 0 W/m 14,3 C 1,6 km/h (1 Bft)
01.09.2016 03:02 15,1 C 15,1 C 95 % 1019,8 hPa 0,0 mm 1,1 km/h (1 Bft) S-SO 147 0 min 0,000 mm 0,0 UV-I 0 W/m 14,3 C 1,6 km/h (1 Bft)
01.09.2016 03:03 15,2 C 15,2 C 95 % 1019,7 hPa 0,0 mm 1,7 km/h (1 Bft) S-SO 157 0 min 0,000 mm 0,0 UV-I 0 W/m 14,4 C 3,2 km/h (1 Bft)
01.09.2016 03:04 15,2 C 15,2 C 95 % 1019,8 hPa 0,0 mm 1,0 km/h (0 Bft) S-SO 157 0 min 0,000 mm 0,0 UV-I 0 W/m 14,4 C 1,6 km/h (1 Bft)
01.09.2016 03:05 15,2 C 15,2 C 94 % 1019,8 hPa 0,0 mm 0,0 km/h (0 Bft) S-SO 157 0 min 0,000 mm 0,0 UV-I 0 W/m 14,2 C 0,0 km/h (0 Bft)
01.09.2016 03:06 15,2 C 15,2 C 94 % 1019,8 hPa 0,0 mm 1,9 km/h (1 Bft) SW 221 0 min 0,000 mm 0,0 UV-I 0 W/m 14,2 C 3,2 km/h (1 Bft)
01.09.2016 03:07 15,2 C 15,2 C 94 % 1019,8 hPa 0,0 mm 3,2 km/h (1 Bft) W 271 0 min 0,000 mm 0,0 UV-I 0 W/m 14,2 C 4,8 km/h (1 Bft)
01.09.2016 03:08 15,2 C 15,2 C 94 % 1019,8 hPa 0,0 mm 1,6 km/h (1 Bft) W 271 0 min 0,000 mm 0,0 UV-I 0 W/m 14,2 C 3,2 km/h (1 Bft)
01.09.2016 03:09 15,2 C 15,2 C 94 % 1019,8 hPa 0,0 mm 0,4 km/h (0 Bft) W 271 0 min 0,000 mm 0,0 UV-I 0 W/m 14,2 C 1,6 km/h (1 Bft)
01.09.2016 03:10 15,1 C 15,2 C 94 % 1019,8 hPa 0,0 mm 0,1 km/h (0 Bft) W 271 0 min 0,000 mm 0,0 UV-I 0 W/m 14,1 C 1,6 km/h (1 Bft)
01.09.2016 03:11 15,1 C 15,1 C 94 % 1019,9 hPa 0,0 mm 0,1 km/h (0 Bft) W 271 0 min 0,000 mm 0,0 UV-I 0 W/m 14,1 C 1,6 km/h (1 Bft)
01.09.2016 03:12 15,1 C 15,1 C 94 % 1019,8 hPa 0,0 mm 1,4 km/h (1 Bft) W 271 0 min 0,000 mm 0,0 UV-I 0 W/m 14,1 C 1,6 km/h (1 Bft)
01.09.2016 03:13 15,1 C 15,1 C 94 % 1019,8 hPa 0,0 mm 0,2 km/h (0 Bft) W 271 0 min 0,000 mm 0,0 UV-I 0 W/m 14,1 C 1,6 km/h (1 Bft)
01.09.2016 03:14 15,1 C 15,1 C 94 % 1019,9 hPa 0,0 mm 0,1 km/h (0 Bft) W 271 0 min 0,000 mm 0,0 UV-I 0 W/m 14,1 C 1,6 km/h (1 Bft)
01.09.2016 03:15 15,1 C 15,1 C 94 % 1019,8 hPa 0,0 mm 0,0 km/h (0 Bft) W 271 0 min 0,000 mm 0,0 UV-I 0 W/m 14,1 C 0,0 km/h (0 Bft)
01.09.2016 03:16 15,1 C 15,1 C 94 % 1019,8 hPa 0,0 mm 0,1 km/h (0 Bft) W 271 0 min 0,000 mm 0,0 UV-I 0 W/m 14,1 C 1,6 km/h (1 Bft)
01.09.2016 03:17 15,1 C 15,1 C 94 % 1019,9 hPa 0,0 mm 0,0 km/h (0 Bft) W 271 0 min 0,000 mm 0,0 UV-I 0 W/m 14,1 C 0,0 km/h (0 Bft)
01.09.2016 03:18 15,1 C 15,1 C 94 % 1019,9 hPa 0,0 mm 0,0 km/h (0 Bft) W 271 0 min 0,000 mm 0,0 UV-I 0 W/m 14,1 C 0,0 km/h (0 Bft)
01.09.2016 03:19 15,1 C 15,1 C 94 % 1019,8 hPa 0,0 mm 0,7 km/h (0 Bft) W 271 0 min 0,000 mm 0,0 UV-I 0 W/m 14,1 C 1,6 km/h (1 Bft)
01.09.2016 03:20 15,1 C 15,1 C 94 % 1019,9 hPa 0,0 mm 0,2 km/h (0 Bft) W 271 0 min 0,000 mm 0,0 UV-I 0 W/m 14,1 C 1,6 km/h (1 Bft)
01.09.2016 03:21 15,1 C 15,1 C 94 % 1019,8 hPa 0,0 mm 0,0 km/h (0 Bft) W 271 0 min 0,000 mm 0,0 UV-I 0 W/m 14,1 C 0,0 km/h (0 Bft)
01.09.2016 03:22 15,1 C 15,1 C 94 % 1019,9 hPa 0,0 mm 0,2 km/h (0 Bft) W 271 0 min 0,000 mm 0,0 UV-I 0 W/m 14,1 C 1,6 km/h (1 Bft)
01.09.2016 03:23 15,2 C 15,2 C 94 % 1019,9 hPa 0,0 mm 0,1 km/h (0 Bft) W 271 0 min 0,000 mm 0,0 UV-I 0 W/m 14,2 C 1,6 km/h (1 Bft)
01.09.2016 03:24 15,2 C 15,2 C 94 % 1019,9 hPa 0,0 mm 0,2 km/h (0 Bft) W 271 0 min 0,000 mm 0,0 UV-I 0 W/m 14,2 C 1,6 km/h (1 Bft)
01.09.2016 03:25 15,2 C 15,2 C 94 % 1019,9 hPa 0,0 mm 0,1 km/h (0 Bft) W 271 0 min 0,000 mm 0,0 UV-I 0 W/m 14,2 C 1,6 km/h (1 Bft)
01.09.2016 03:26 15,1 C 15,2 C 94 % 1019,9 hPa 0,0 mm 0,3 km/h (0 Bft) W 271 0 min 0,000 mm 0,0 UV-I 0 W/m 14,1 C 1,6 km/h (1 Bft)
01.09.2016 03:27 15,2 C 15,2 C 94 % 1020,0 hPa 0,0 mm 0,2 km/h (0 Bft) W 271 0 min 0,000 mm 0,0 UV-I 0 W/m 14,2 C 1,6 km/h (1 Bft)
01.09.2016 03:28 15,2 C 15,2 C 94 % 1019,9 hPa 0,0 mm 0,1 km/h (0 Bft) W 271 0 min 0,000 mm 0,0 UV-I 0 W/m 14,2 C 1,6 km/h (1 Bft)
01.09.2016 03:29 15,2 C 15,2 C 94 % 1019,9 hPa 0,0 mm 0,1 km/h (0 Bft) W 271 0 min 0,000 mm 0,0 UV-I 0 W/m 14,2 C 1,6 km/h (1 Bft)
01.09.2016 03:30 15,3 C 15,3 C 94 % 1019,9 hPa 0,0 mm 1,5 km/h (1 Bft) W 271 0 min 0,000 mm 0,0 UV-I 0 W/m 14,3 C 3,2 km/h (1 Bft)
01.09.2016 03:31 15,3 C 15,3 C 94 % 1019,9 hPa 0,0 mm 1,0 km/h (0 Bft) W 271 0 min 0,000 mm 0,0 UV-I 0 W/m 14,3 C 1,6 km/h (1 Bft)
01.09.2016 03:32 15,2 C 15,3 C 94 % 1019,9 hPa 0,0 mm 1,0 km/h (0 Bft) W 271 0 min 0,000 mm 0,0 UV-I 0 W/m 14,2 C 1,6 km/h (1 Bft)
01.09.2016 03:33 15,2 C 15,2 C 94 % 1019,8 hPa 0,0 mm 0,3 km/h (0 Bft) W 271 0 min 0,000 mm 0,0 UV-I 0 W/m 14,2 C 1,6 km/h (1 Bft)
01.09.2016 03:34 15,2 C 15,2 C 94 % 1019,8 hPa 0,0 mm 0,0 km/h (0 Bft) W 271 0 min 0,000 mm 0,0 UV-I 0 W/m 14,2 C 0,0 km/h (0 Bft)
01.09.2016 03:35 15,3 C 15,3 C 94 % 1019,9 hPa 0,0 mm 0,0 km/h (0 Bft) W 271 0 min 0,000 mm 0,0 UV-I 0 W/m 14,3 C 0,0 km/h (0 Bft)
01.09.2016 03:36 15,3 C 15,3 C 94 % 1019,8 hPa 0,0 mm 0,4 km/h (0 Bft) W 271 0 min 0,000 mm 0,0 UV-I 0 W/m 14,3 C 1,6 km/h (1 Bft)
01.09.2016 03:37 15,2 C 15,3 C 94 % 1019,9 hPa 0,0 mm 1,5 km/h (1 Bft) W 271 0 min 0,000 mm 0,0 UV-I 0 W/m 14,2 C 3,2 km/h (1 Bft)
01.09.2016 03:38 15,2 C 15,3 C 94 % 1019,9 hPa 0,0 mm 1,7 km/h (1 Bft) W 271 0 min 0,000 mm 0,0 UV-I 0 W/m 14,2 C 3,2 km/h (1 Bft)
01.09.2016 03:39 15,3 C 15,3 C 94 % 1019,9 hPa 0,0 mm 2,1 km/h (1 Bft) W 271 0 min 0,000 mm 0,0 UV-I 0 W/m 14,3 C 4,8 km/h (1 Bft)
01.09.2016 03:40 15,3 C 15,3 C 94 % 1019,9 hPa 0,0 mm 0,8 km/h (0 Bft) W 271 0 min 0,000 mm 0,0 UV-I 0 W/m 14,3 C 1,6 km/h (1 Bft)
01.09.2016 03:41 15,3 C 15,3 C 93 % 1019,9 hPa 0,0 mm 0,9 km/h (0 Bft) W 271 0 min 0,000 mm 0,0 UV-I 0 W/m 14,2 C 1,6 km/h (1 Bft)
01.09.2016 03:42 15,3 C 15,3 C 93 % 1019,8 hPa 0,0 mm 0,1 km/h (0 Bft) W 271 0 min 0,000 mm 0,0 UV-I 0 W/m 14,2 C 1,6 km/h (1 Bft)
01.09.2016 03:43 15,3 C 15,4 C 93 % 1019,8 hPa 0,0 mm 0,0 km/h (0 Bft) W 271 0 min 0,000 mm 0,0 UV-I 0 W/m 14,2 C 0,0 km/h (0 Bft)
01.09.2016 03:44 15,3 C 15,3 C 93 % 1019,8 hPa 0,0 mm 0,1 km/h (0 Bft) W 271 0 min 0,000 mm 0,0 UV-I 0 W/m 14,2 C 1,6 km/h (1 Bft)
01.09.2016 03:45 15,3 C 15,3 C 93 % 1019,8 hPa 0,0 mm 0,0 km/h (0 Bft) W 271 0 min 0,000 mm 0,0 UV-I 0 W/m 14,2 C 0,0 km/h (0 Bft)
01.09.2016 03:46 15,3 C 15,3 C 94 % 1019,8 hPa 0,0 mm 0,0 km/h (0 Bft) W 271 0 min 0,000 mm 0,0 UV-I 0 W/m 14,3 C 0,0 km/h (0 Bft)
01.09.2016 03:47 15,2 C 15,3 C 94 % 1019,8 hPa 0,0 mm 0,0 km/h (0 Bft) W 271 0 min 0,000 mm 0,0 UV-I 0 W/m 14,2 C 0,0 km/h (0 Bft)
01.09.2016 03:48 15,3 C 15,3 C 93 % 1019,8 hPa 0,0 mm 0,0 km/h (0 Bft) W 271 0 min 0,000 mm 0,0 UV-I 0 W/m 14,2 C 0,0 km/h (0 Bft)
01.09.2016 03:49 15,3 C 15,3 C 93 % 1019,8 hPa 0,0 mm 0,0 km/h (0 Bft) W 271 0 min 0,000 mm 0,0 UV-I 0 W/m 14,2 C 0,0 km/h (0 Bft)
01.09.2016 03:50 15,3 C 15,3 C 93 % 1019,8 hPa 0,0 mm 0,0 km/h (0 Bft) W 271 0 min 0,000 mm 0,0 UV-I 0 W/m 14,2 C 0,0 km/h (0 Bft)
01.09.2016 03:51 15,3 C 15,3 C 93 % 1019,8 hPa 0,0 mm 0,0 km/h (0 Bft) W 271 0 min 0,000 mm 0,0 UV-I 0 W/m 14,2 C 0,0 km/h (0 Bft)
01.09.2016 03:52 15,2 C 15,3 C 93 % 1019,7 hPa 0,0 mm 0,0 km/h (0 Bft) W 271 0 min 0,000 mm 0,0 UV-I 0 W/m 14,1 C 0,0 km/h (0 Bft)
01.09.2016 03:53 15,2 C 15,3 C 93 % 1019,7 hPa 0,0 mm 0,0 km/h (0 Bft) W 271 0 min 0,000 mm 0,0 UV-I 0 W/m 14,1 C 0,0 km/h (0 Bft)
01.09.2016 03:54 15,2 C 15,3 C 93 % 1019,8 hPa 0,0 mm 0,0 km/h (0 Bft) W 271 0 min 0,000 mm 0,0 UV-I 0 W/m 14,1 C 0,0 km/h (0 Bft)
01.09.2016 03:55 15,3 C 15,3 C 93 % 1019,8 hPa 0,0 mm 0,0 km/h (0 Bft) W 271 0 min 0,000 mm 0,0 UV-I 0 W/m 14,2 C 0,0 km/h (0 Bft)
01.09.2016 03:56 15,3 C 15,3 C 93 % 1019,7 hPa 0,0 mm 0,0 km/h (0 Bft) W 271 0 min 0,000 mm 0,0 UV-I 0 W/m 14,2 C 0,0 km/h (0 Bft)
01.09.2016 03:57 15,3 C 15,3 C 93 % 1019,7 hPa 0,0 mm 0,0 km/h (0 Bft) W 271 0 min 0,000 mm 0,0 UV-I 0 W/m 14,2 C 0,0 km/h (0 Bft)
01.09.2016 03:58 15,3 C 15,3 C 93 % 1019,7 hPa 0,0 mm 0,0 km/h (0 Bft) W 271 0 min 0,000 mm 0,0 UV-I 0 W/m 14,2 C 0,0 km/h (0 Bft)
01.09.2016 03:59 15,3 C 15,3 C 93 % 1019,7 hPa 0,0 mm 0,0 km/h (0 Bft) W 271 0 min 0,000 mm 0,0 UV-I 0 W/m 14,2 C 0,0 km/h (0 Bft)
01.09.2016 04:00 15,2 C 15,3 C 93 % 1019,7 hPa 0,0 mm 0,0 km/h (0 Bft) W 271 0 min 0,000 mm 0,0 UV-I 0 W/m 14,1 C 0,0 km/h (0 Bft)
01.09.2016 04:02 15,3 C 15,3 C 94 % 1019,7 hPa 0,0 mm 0,0 km/h (0 Bft) W 271 0 min 0,000 mm 0,0 UV-I 0 W/m 14,3 C 0,0 km/h (0 Bft)
01.09.2016 04:03 15,2 C 15,3 C 94 % 1019,7 hPa 0,0 mm 0,0 km/h (0 Bft) W 271 0 min 0,000 mm 0,0 UV-I 0 W/m 14,2 C 0,0 km/h (0 Bft)
01.09.2016 04:04 15,2 C 15,3 C 93 % 1019,7 hPa 0,0 mm 0,0 km/h (0 Bft) W 271 0 min 0,000 mm 0,0 UV-I 0 W/m 14,1 C 0,0 km/h (0 Bft)
01.09.2016 04:05 15,2 C 15,2 C 93 % 1019,7 hPa 0,0 mm 0,0 km/h (0 Bft) W 271 0 min 0,000 mm 0,0 UV-I 0 W/m 14,1 C 0,0 km/h (0 Bft)
01.09.2016 04:06 15,2 C 15,2 C 93 % 1019,7 hPa 0,0 mm 0,0 km/h (0 Bft) W 271 0 min 0,000 mm 0,0 UV-I 0 W/m 14,1 C 0,0 km/h (0 Bft)
01.09.2016 04:07 15,2 C 15,2 C 93 % 1019,7 hPa 0,0 mm 0,0 km/h (0 Bft) W 271 0 min 0,000 mm 0,0 UV-I 0 W/m 14,1 C 0,0 km/h (0 Bft)
01.09.2016 04:08 15,2 C 15,2 C 93 % 1019,8 hPa 0,0 mm 0,0 km/h (0 Bft) W 271 0 min 0,000 mm 0,0 UV-I 0 W/m 14,1 C 0,0 km/h (0 Bft)
01.09.2016 04:09 15,2 C 15,2 C 93 % 1019,7 hPa 0,0 mm 0,0 km/h (0 Bft) W 271 0 min 0,000 mm 0,0 UV-I 0 W/m 14,1 C 0,0 km/h (0 Bft)
01.09.2016 04:10 15,2 C 15,2 C 93 % 1019,7 hPa 0,0 mm 0,0 km/h (0 Bft) W 271 0 min 0,000 mm 0,0 UV-I 0 W/m 14,1 C 0,0 km/h (0 Bft)
01.09.2016 04:11 15,2 C 15,2 C 93 % 1019,7 hPa 0,0 mm 0,0 km/h (0 Bft) W 271 0 min 0,000 mm 0,0 UV-I 0 W/m 14,1 C 0,0 km/h (0 Bft)
01.09.2016 04:12 15,2 C 15,2 C 93 % 1019,7 hPa 0,0 mm 0,0 km/h (0 Bft) W 271 0 min 0,000 mm 0,0 UV-I 0 W/m 14,1 C 0,0 km/h (0 Bft)
01.09.2016 04:13 15,2 C 15,2 C 93 % 1019,7 hPa 0,0 mm 0,0 km/h (0 Bft) W 271 0 min 0,000 mm 0,0 UV-I 0 W/m 14,1 C 0,0 km/h (0 Bft)
01.09.2016 04:14 15,2 C 15,2 C 93 % 1019,7 hPa 0,0 mm 0,0 km/h (0 Bft) W 271 0 min 0,000 mm 0,0 UV-I 0 W/m 14,1 C 0,0 km/h (0 Bft)
01.09.2016 04:15 15,2 C 15,2 C 93 % 1019,7 hPa 0,0 mm 0,0 km/h (0 Bft) W 271 0 min 0,000 mm 0,0 UV-I 0 W/m 14,1 C 0,0 km/h (0 Bft)
01.09.2016 04:16 15,1 C 15,2 C 93 % 1019,8 hPa 0,0 mm 0,0 km/h (0 Bft) W 271 0 min 0,000 mm 0,0 UV-I 0 W/m 14,0 C 0,0 km/h (0 Bft)
01.09.2016 04:17 15,2 C 15,2 C 93 % 1019,7 hPa 0,0 mm 0,0 km/h (0 Bft) W 271 0 min 0,000 mm 0,0 UV-I 0 W/m 14,1 C 0,0 km/h (0 Bft)
01.09.2016 04:18 15,1 C 15,2 C 93 % 1019,7 hPa 0,0 mm 0,0 km/h (0 Bft) W 271 0 min 0,000 mm 0,0 UV-I 0 W/m 14,0 C 0,0 km/h (0 Bft)
01.09.2016 04:19 15,1 C 15,1 C 93 % 1019,7 hPa 0,0 mm 0,0 km/h (0 Bft) W 271 0 min 0,000 mm 0,0 UV-I 0 W/m 14,0 C 0,0 km/h (0 Bft)
01.09.2016 04:20 15,1 C 15,1 C 93 % 1019,7 hPa 0,0 mm 0,0 km/h (0 Bft) W 271 0 min 0,000 mm 0,0 UV-I 0 W/m 14,0 C 0,0 km/h (0 Bft)
01.09.2016 04:21 15,1 C 15,1 C 93 % 1019,8 hPa 0,0 mm 0,0 km/h (0 Bft) W 271 0 min 0,000 mm 0,0 UV-I 0 W/m 14,0 C 0,0 km/h (0 Bft)
01.09.2016 04:22 15,1 C 15,1 C 93 % 1019,8 hPa 0,0 mm 0,0 km/h (0 Bft) W 271 0 min 0,000 mm 0,0 UV-I 0 W/m 14,0 C 0,0 km/h (0 Bft)
01.09.2016 04:23 15,1 C 15,1 C 93 % 1019,7 hPa 0,0 mm 0,0 km/h (0 Bft) W 271 0 min 0,000 mm 0,0 UV-I 0 W/m 14,0 C 0,0 km/h (0 Bft)
01.09.2016 04:24 15,0 C 15,1 C 93 % 1019,7 hPa 0,0 mm 0,0 km/h (0 Bft) W 271 0 min 0,000 mm 0,0 UV-I 0 W/m 13,9 C 0,0 km/h (0 Bft)
01.09.2016 04:25 14,9 C 15,0 C 93 % 1019,8 hPa 0,0 mm 0,0 km/h (0 Bft) W 271 0 min 0,000 mm 0,0 UV-I 0 W/m 13,8 C 0,0 km/h (0 Bft)
01.09.2016 04:26 14,9 C 14,9 C 93 % 1019,7 hPa 0,0 mm 0,0 km/h (0 Bft) W 271 0 min 0,000 mm 0,0 UV-I 0 W/m 13,8 C 0,0 km/h (0 Bft)
01.09.2016 04:27 14,9 C 14,9 C 94 % 1019,7 hPa 0,0 mm 0,0 km/h (0 Bft) W 271 0 min 0,000 mm 0,0 UV-I 0 W/m 13,9 C 0,0 km/h (0 Bft)
01.09.2016 04:28 14,9 C 14,9 C 94 % 1019,7 hPa 0,0 mm 0,0 km/h (0 Bft) W 271 0 min 0,000 mm 0,0 UV-I 0 W/m 13,9 C 0,0 km/h (0 Bft)
01.09.2016 04:29 14,9 C 14,9 C 94 % 1019,7 hPa 0,0 mm 0,0 km/h (0 Bft) W 271 0 min 0,000 mm 0,0 UV-I 0 W/m 13,9 C 0,0 km/h (0 Bft)
01.09.2016 04:30 14,8 C 14,9 C 94 % 1019,7 hPa 0,0 mm 0,0 km/h (0 Bft) W 271 0 min 0,000 mm 0,0 UV-I 0 W/m 13,8 C 0,0 km/h (0 Bft)
01.09.2016 04:31 14,8 C 14,8 C 94 % 1019,7 hPa 0,0 mm 0,0 km/h (0 Bft) W 271 0 min 0,000 mm 0,0 UV-I 0 W/m 13,8 C 0,0 km/h (0 Bft)
01.09.2016 04:32 14,8 C 14,8 C 94 % 1019,7 hPa 0,0 mm 0,0 km/h (0 Bft) W 271 0 min 0,000 mm 0,0 UV-I 0 W/m 13,8 C 0,0 km/h (0 Bft)
01.09.2016 04:33 14,8 C 14,8 C 94 % 1019,7 hPa 0,0 mm 0,0 km/h (0 Bft) W 271 0 min 0,000 mm 0,0 UV-I 0 W/m 13,8 C 0,0 km/h (0 Bft)
01.09.2016 04:34 14,8 C 14,8 C 94 % 1019,7 hPa 0,0 mm 0,0 km/h (0 Bft) W 271 0 min 0,000 mm 0,0 UV-I 0 W/m 13,8 C 0,0 km/h (0 Bft)
01.09.2016 04:35 14,8 C 14,8 C 94 % 1019,7 hPa 0,0 mm 0,0 km/h (0 Bft) W 270 0 min 0,000 mm 0,0 UV-I 0 W/m 13,8 C 0,0 km/h (0 Bft)
01.09.2016 04:36 14,8 C 14,8 C 94 % 1019,6 hPa 0,0 mm 0,0 km/h (0 Bft) W 270 0 min 0,000 mm 0,0 UV-I 0 W/m 13,8 C 0,0 km/h (0 Bft)
01.09.2016 04:37 14,8 C 14,8 C 94 % 1019,6 hPa 0,0 mm 0,0 km/h (0 Bft) W 270 0 min 0,000 mm 0,0 UV-I 0 W/m 13,8 C 0,0 km/h (0 Bft)
01.09.2016 04:38 14,8 C 14,8 C 94 % 1019,7 hPa 0,0 mm 0,0 km/h (0 Bft) W 270 0 min 0,000 mm 0,0 UV-I 0 W/m 13,8 C 0,0 km/h (0 Bft)
01.09.2016 04:39 14,7 C 14,8 C 93 % 1019,7 hPa 0,0 mm 0,0 km/h (0 Bft) W 270 0 min 0,000 mm 0,0 UV-I 0 W/m 13,6 C 0,0 km/h (0 Bft)
01.09.2016 04:40 14,7 C 14,7 C 93 % 1019,7 hPa 0,0 mm 0,0 km/h (0 Bft) W 270 0 min 0,000 mm 0,0 UV-I 0 W/m 13,6 C 0,0 km/h (0 Bft)
01.09.2016 04:41 14,7 C 14,7 C 93 % 1019,7 hPa 0,0 mm 0,0 km/h (0 Bft) W 270 0 min 0,000 mm 0,0 UV-I 0 W/m 13,6 C 0,0 km/h (0 Bft)
01.09.2016 04:42 14,6 C 14,7 C 94 % 1019,7 hPa 0,0 mm 0,0 km/h (0 Bft) W 270 0 min 0,000 mm 0,0 UV-I 0 W/m 13,6 C 0,0 km/h (0 Bft)
01.09.2016 04:43 14,6 C 14,6 C 94 % 1019,7 hPa 0,0 mm 0,0 km/h (0 Bft) W 270 0 min 0,000 mm 0,0 UV-I 0 W/m 13,6 C 0,0 km/h (0 Bft)
01.09.2016 04:44 14,6 C 14,6 C 94 % 1019,6 hPa 0,0 mm 0,0 km/h (0 Bft) W 270 0 min 0,000 mm 0,0 UV-I 0 W/m 13,6 C 0,0 km/h (0 Bft)
01.09.2016 04:45 14,6 C 14,6 C 94 % 1019,7 hPa 0,0 mm 0,0 km/h (0 Bft) W 270 0 min 0,000 mm 0,0 UV-I 0 W/m 13,6 C 0,0 km/h (0 Bft)
01.09.2016 04:46 14,6 C 14,6 C 94 % 1019,6 hPa 0,0 mm 0,0 km/h (0 Bft) W 270 0 min 0,000 mm 0,0 UV-I 0 W/m 13,6 C 0,0 km/h (0 Bft)
01.09.2016 04:47 14,6 C 14,6 C 94 % 1019,7 hPa 0,0 mm 0,0 km/h (0 Bft) W 270 0 min 0,000 mm 0,0 UV-I 0 W/m 13,6 C 0,0 km/h (0 Bft)
01.09.2016 04:48 14,6 C 14,6 C 94 % 1019,7 hPa 0,0 mm 0,0 km/h (0 Bft) W 270 0 min 0,000 mm 0,0 UV-I 0 W/m 13,6 C 0,0 km/h (0 Bft)
01.09.2016 04:49 14,6 C 14,6 C 94 % 1019,7 hPa 0,0 mm 0,0 km/h (0 Bft) W 270 0 min 0,000 mm 0,0 UV-I 0 W/m 13,6 C 0,0 km/h (0 Bft)
01.09.2016 04:50 14,6 C 14,6 C 94 % 1019,7 hPa 0,0 mm 0,0 km/h (0 Bft) W 270 0 min 0,000 mm 0,0 UV-I 0 W/m 13,6 C 0,0 km/h (0 Bft)
01.09.2016 04:51 14,6 C 14,6 C 94 % 1019,8 hPa 0,0 mm 0,0 km/h (0 Bft) W 270 0 min 0,000 mm 0,0 UV-I 0 W/m 13,6 C 0,0 km/h (0 Bft)
01.09.2016 04:52 14,6 C 14,6 C 94 % 1019,8 hPa 0,0 mm 0,0 km/h (0 Bft) W 270 0 min 0,000 mm 0,0 UV-I 0 W/m 13,6 C 0,0 km/h (0 Bft)
01.09.2016 04:53 14,6 C 14,6 C 94 % 1019,8 hPa 0,0 mm 0,0 km/h (0 Bft) W 270 0 min 0,000 mm 0,0 UV-I 0 W/m 13,6 C 0,0 km/h (0 Bft)
01.09.2016 04:54 14,5 C 14,6 C 94 % 1019,8 hPa 0,0 mm 0,0 km/h (0 Bft) W 270 0 min 0,000 mm 0,0 UV-I 0 W/m 13,5 C 0,0 km/h (0 Bft)
01.09.2016 04:55 14,4 C 14,5 C 94 % 1019,7 hPa 0,0 mm 0,0 km/h (0 Bft) W 270 0 min 0,000 mm 0,0 UV-I 0 W/m 13,4 C 0,0 km/h (0 Bft)
01.09.2016 04:56 14,4 C 14,4 C 94 % 1019,7 hPa 0,0 mm 0,0 km/h (0 Bft) W 270 0 min 0,000 mm 0,0 UV-I 0 W/m 13,4 C 0,0 km/h (0 Bft)
01.09.2016 04:57 14,3 C 14,4 C 94 % 1019,7 hPa 0,0 mm 0,0 km/h (0 Bft) W 270 0 min 0,000 mm 0,0 UV-I 0 W/m 13,3 C 0,0 km/h (0 Bft)
01.09.2016 04:58 14,3 C 14,4 C 94 % 1019,7 hPa 0,0 mm 0,0 km/h (0 Bft) W 270 0 min 0,000 mm 0,0 UV-I 0 W/m 13,3 C 0,0 km/h (0 Bft)
01.09.2016 04:59 14,3 C 14,3 C 94 % 1019,8 hPa 0,0 mm 0,0 km/h (0 Bft) W 270 0 min 0,000 mm 0,0 UV-I 0 W/m 13,3 C 0,0 km/h (0 Bft)
01.09.2016 05:00 14,3 C 14,3 C 94 % 1019,8 hPa 0,0 mm 0,0 km/h (0 Bft) W 270 0 min 0,000 mm 0,0 UV-I 0 W/m 13,3 C 0,0 km/h (0 Bft)
01.09.2016 05:01 14,3 C 14,3 C 94 % 1019,7 hPa 0,0 mm 0,0 km/h (0 Bft) W 270 0 min 0,000 mm 0,0 UV-I 0 W/m 13,3 C 0,0 km/h (0 Bft)
01.09.2016 05:02 14,2 C 14,3 C 94 % 1019,7 hPa 0,0 mm 0,0 km/h (0 Bft) W 270 0 min 0,000 mm 0,0 UV-I 0 W/m 13,2 C 0,0 km/h (0 Bft)
01.09.2016 05:03 14,2 C 14,2 C 94 % 1019,7 hPa 0,0 mm 0,0 km/h (0 Bft) W 270 0 min 0,000 mm 0,0 UV-I 0 W/m 13,2 C 0,0 km/h (0 Bft)
01.09.2016 05:04 14,2 C 14,2 C 94 % 1019,7 hPa 0,0 mm 0,0 km/h (0 Bft) W 270 0 min 0,000 mm 0,0 UV-I 0 W/m 13,2 C 0,0 km/h (0 Bft)
01.09.2016 05:05 14,2 C 14,2 C 95 % 1019,8 hPa 0,0 mm 0,0 km/h (0 Bft) W 270 0 min 0,000 mm 0,0 UV-I 0 W/m 13,4 C 0,0 km/h (0 Bft)
01.09.2016 05:06 14,2 C 14,2 C 95 % 1019,7 hPa 0,0 mm 0,0 km/h (0 Bft) W 270 0 min 0,000 mm 0,0 UV-I 0 W/m 13,4 C 0,0 km/h (0 Bft)
01.09.2016 05:07 14,2 C 14,2 C 95 % 1019,8 hPa 0,0 mm 0,0 km/h (0 Bft) W 270 0 min 0,000 mm 0,0 UV-I 0 W/m 13,4 C 0,0 km/h (0 Bft)
01.09.2016 05:08 14,2 C 14,2 C 95 % 1019,8 hPa 0,0 mm 0,0 km/h (0 Bft) W 270 0 min 0,000 mm 0,0 UV-I 0 W/m 13,4 C 0,0 km/h (0 Bft)
01.09.2016 05:09 14,3 C 14,3 C 95 % 1019,8 hPa 0,0 mm 0,0 km/h (0 Bft) W 269 0 min 0,000 mm 0,0 UV-I 0 W/m 13,5 C 0,0 km/h (0 Bft)
01.09.2016 05:10 14,3 C 14,3 C 95 % 1019,8 hPa 0,0 mm 0,0 km/h (0 Bft) W 270 0 min 0,000 mm 0,0 UV-I 0 W/m 13,5 C 0,0 km/h (0 Bft)
01.09.2016 05:11 14,3 C 14,3 C 95 % 1019,8 hPa 0,0 mm 0,0 km/h (0 Bft) W 270 0 min 0,000 mm 0,0 UV-I 0 W/m 13,5 C 0,0 km/h (0 Bft)
01.09.2016 05:12 14,3 C 14,3 C 95 % 1019,8 hPa 0,0 mm 0,0 km/h (0 Bft) W 260 0 min 0,000 mm 0,0 UV-I 0 W/m 13,5 C 0,0 km/h (0 Bft)
01.09.2016 05:13 14,3 C 14,3 C 95 % 1019,9 hPa 0,0 mm 0,0 km/h (0 Bft) W 260 0 min 0,000 mm 0,0 UV-I 0 W/m 13,5 C 0,0 km/h (0 Bft)
01.09.2016 05:14 14,4 C 14,4 C 95 % 1019,9 hPa 0,0 mm 0,0 km/h (0 Bft) W 260 0 min 0,000 mm 0,0 UV-I 0 W/m 13,6 C 0,0 km/h (0 Bft)
01.09.2016 05:15 14,4 C 14,4 C 95 % 1019,9 hPa 0,0 mm 0,0 km/h (0 Bft) W 260 0 min 0,000 mm 0,0 UV-I 0 W/m 13,6 C 0,0 km/h (0 Bft)
01.09.2016 05:16 14,4 C 14,4 C 95 % 1019,8 hPa 0,0 mm 2,1 km/h (1 Bft) SW 223 0 min 0,000 mm 0,0 UV-I 0 W/m 13,6 C 3,2 km/h (1 Bft)
01.09.2016 05:17 14,5 C 14,5 C 95 % 1019,8 hPa 0,0 mm 2,1 km/h (1 Bft) SW 223 0 min 0,000 mm 0,0 UV-I 0 W/m 13,7 C 4,8 km/h (1 Bft)
01.09.2016 05:18 14,6 C 14,6 C 95 % 1019,7 hPa 0,0 mm 1,6 km/h (1 Bft) SW 223 0 min 0,000 mm 0,0 UV-I 0 W/m 13,8 C 1,6 km/h (1 Bft)
01.09.2016 05:19 14,6 C 14,6 C 95 % 1019,7 hPa 0,0 mm 1,2 km/h (1 Bft) SW 221 0 min 0,000 mm 0,0 UV-I 0 W/m 13,8 C 3,2 km/h (1 Bft)
01.09.2016 05:20 14,7 C 14,7 C 95 % 1019,7 hPa 0,0 mm 2,3 km/h (1 Bft) S-SW 199 0 min 0,000 mm 0,0 UV-I 0 W/m 13,9 C 3,2 km/h (1 Bft)
01.09.2016 05:21 14,7 C 14,7 C 94 % 1019,6 hPa 0,0 mm 3,2 km/h (1 Bft) S 178 0 min 0,000 mm 0,0 UV-I 0 W/m 13,7 C 4,8 km/h (1 Bft)
01.09.2016 05:22 14,8 C 14,8 C 94 % 1019,6 hPa 0,0 mm 3,0 km/h (1 Bft) S 171 0 min 0,000 mm 0,0 UV-I 0 W/m 13,8 C 6,4 km/h (2 Bft)
01.09.2016 05:23 14,8 C 14,8 C 94 % 1019,6 hPa 0,0 mm 0,1 km/h (0 Bft) S 171 0 min 0,000 mm 0,0 UV-I 0 W/m 13,8 C 1,6 km/h (1 Bft)
01.09.2016 05:24 14,9 C 14,9 C 94 % 1019,6 hPa 0,0 mm 0,1 km/h (0 Bft) S 171 0 min 0,000 mm 0,0 UV-I 0 W/m 13,9 C 1,6 km/h (1 Bft)
01.09.2016 05:25 15,0 C 15,0 C 94 % 1019,7 hPa 0,0 mm 1,6 km/h (1 Bft) S 172 0 min 0,000 mm 0,0 UV-I 0 W/m 14,0 C 3,2 km/h (1 Bft)
01.09.2016 05:26 15,0 C 15,0 C 93 % 1019,7 hPa 0,0 mm 2,0 km/h (1 Bft) S 172 0 min 0,000 mm 0,0 UV-I 0 W/m 13,9 C 3,2 km/h (1 Bft)
01.09.2016 05:27 15,1 C 15,1 C 93 % 1019,7 hPa 0,0 mm 0,7 km/h (0 Bft) S 172 0 min 0,000 mm 0,0 UV-I 0 W/m 14,0 C 3,2 km/h (1 Bft)
01.09.2016 05:28 15,1 C 15,1 C 93 % 1019,6 hPa 0,0 mm 2,6 km/h (1 Bft) S 172 0 min 0,000 mm 0,0 UV-I 0 W/m 14,0 C 3,2 km/h (1 Bft)
01.09.2016 05:29 15,2 C 15,2 C 93 % 1019,6 hPa 0,0 mm 2,0 km/h (1 Bft) S 172 0 min 0,000 mm 0,0 UV-I 0 W/m 14,1 C 3,2 km/h (1 Bft)
01.09.2016 05:30 15,2 C 15,2 C 93 % 1019,7 hPa 0,0 mm 2,8 km/h (1 Bft) S 172 0 min 0,000 mm 0,0 UV-I 0 W/m 14,1 C 4,8 km/h (1 Bft)
01.09.2016 05:31 15,3 C 15,3 C 93 % 1019,6 hPa 0,0 mm 3,9 km/h (1 Bft) S 169 0 min 0,000 mm 0,0 UV-I 0 W/m 14,2 C 6,4 km/h (2 Bft)
01.09.2016 05:32 15,3 C 15,3 C 93 % 1019,6 hPa 0,0 mm 2,7 km/h (1 Bft) S 169 0 min 0,000 mm 0,0 UV-I 0 W/m 14,2 C 3,2 km/h (1 Bft)
01.09.2016 05:33 15,3 C 15,3 C 93 % 1019,6 hPa 0,0 mm 1,8 km/h (1 Bft) S 169 0 min 0,000 mm 0,0 UV-I 0 W/m 14,2 C 3,2 km/h (1 Bft)
01.09.2016 05:34 15,3 C 15,3 C 92 % 1019,6 hPa 0,0 mm 1,1 km/h (1 Bft) S 169 0 min 0,000 mm 0,0 UV-I 0 W/m 14,0 C 1,6 km/h (1 Bft)
01.09.2016 05:35 15,4 C 15,4 C 92 % 1019,6 hPa 0,0 mm 0,1 km/h (0 Bft) S 169 0 min 0,000 mm 0,0 UV-I 0 W/m 14,1 C 1,6 km/h (1 Bft)
01.09.2016 05:36 15,4 C 15,4 C 92 % 1019,6 hPa 0,0 mm 0,3 km/h (0 Bft) S 169 0 min 0,000 mm 0,0 UV-I 0 W/m 14,1 C 1,6 km/h (1 Bft)
01.09.2016 05:37 15,4 C 15,5 C 92 % 1019,7 hPa 0,0 mm 0,8 km/h (0 Bft) S 169 0 min 0,000 mm 0,0 UV-I 0 W/m 14,1 C 1,6 km/h (1 Bft)
01.09.2016 05:38 15,6 C 15,6 C 92 % 1019,7 hPa 0,0 mm 0,9 km/h (0 Bft) S 170 0 min 0,000 mm 0,0 UV-I 0 W/m 14,3 C 3,2 km/h (1 Bft)
01.09.2016 05:39 15,6 C 15,6 C 91 % 1019,7 hPa 0,0 mm 0,9 km/h (0 Bft) S 170 0 min 0,000 mm 0,0 UV-I 0 W/m 14,1 C 1,6 km/h (1 Bft)
01.09.2016 05:40 15,6 C 15,6 C 92 % 1019,7 hPa 0,0 mm 3,1 km/h (1 Bft) S 180 0 min 0,000 mm 0,0 UV-I 0 W/m 14,3 C 4,8 km/h (1 Bft)
01.09.2016 05:41 15,6 C 15,7 C 92 % 1019,6 hPa 0,0 mm 1,5 km/h (1 Bft) S 180 0 min 0,000 mm 0,0 UV-I 0 W/m 14,3 C 3,2 km/h (1 Bft)
01.09.2016 05:42 15,6 C 15,6 C 92 % 1019,7 hPa 0,0 mm 1,9 km/h (1 Bft) S 180 0 min 0,000 mm 0,0 UV-I 0 W/m 14,3 C 3,2 km/h (1 Bft)
01.09.2016 05:43 15,5 C 15,6 C 92 % 1019,7 hPa 0,0 mm 2,2 km/h (1 Bft) S 180 0 min 0,000 mm 0,0 UV-I 0 W/m 14,2 C 3,2 km/h (1 Bft)
01.09.2016 05:44 15,4 C 15,5 C 92 % 1019,7 hPa 0,0 mm 1,3 km/h (1 Bft) S 180 0 min 0,000 mm 0,0 UV-I 0 W/m 14,1 C 1,6 km/h (1 Bft)
01.09.2016 05:45 15,4 C 15,5 C 92 % 1019,7 hPa 0,0 mm 1,4 km/h (1 Bft) S 180 0 min 0,000 mm 0,0 UV-I 0 W/m 14,1 C 1,6 km/h (1 Bft)
01.09.2016 05:46 15,4 C 15,4 C 92 % 1019,7 hPa 0,0 mm 2,4 km/h (1 Bft) S 180 0 min 0,000 mm 0,0 UV-I 0 W/m 14,1 C 3,2 km/h (1 Bft)
01.09.2016 05:47 15,4 C 15,5 C 92 % 1019,8 hPa 0,0 mm 2,6 km/h (1 Bft) S 180 0 min 0,000 mm 0,0 UV-I 0 W/m 14,1 C 4,8 km/h (1 Bft)
01.09.2016 05:48 15,4 C 15,5 C 92 % 1019,7 hPa 0,0 mm 1,3 km/h (1 Bft) S 180 0 min 0,000 mm 0,0 UV-I 0 W/m 14,1 C 1,6 km/h (1 Bft)
01.09.2016 05:49 15,4 C 15,4 C 92 % 1019,8 hPa 0,0 mm 1,3 km/h (1 Bft) S 180 0 min 0,000 mm 0,0 UV-I 0 W/m 14,1 C 1,6 km/h (1 Bft)
01.09.2016 05:50 15,5 C 15,5 C 92 % 1019,8 hPa 0,0 mm 0,2 km/h (0 Bft) S 180 0 min 0,000 mm 0,0 UV-I 0 W/m 14,2 C 1,6 km/h (1 Bft)
01.09.2016 05:51 15,6 C 15,6 C 92 % 1019,9 hPa 0,0 mm 1,4 km/h (1 Bft) S 180 0 min 0,000 mm 0,0 UV-I 0 W/m 14,3 C 1,6 km/h (1 Bft)
01.09.2016 05:52 15,6 C 15,6 C 91 % 1019,9 hPa 0,0 mm 0,3 km/h (0 Bft) S 180 0 min 0,000 mm 0,0 UV-I 0 W/m 14,1 C 1,6 km/h (1 Bft)
01.09.2016 05:53 15,7 C 15,7 C 91 % 1019,9 hPa 0,0 mm 4,4 km/h (1 Bft) S 190 0 min 0,000 mm 0,0 UV-I 0 W/m 14,2 C 6,4 km/h (2 Bft)
01.09.2016 05:54 15,7 C 15,7 C 91 % 1019,8 hPa 0,0 mm 4,8 km/h (1 Bft) S-SW 195 0 min 0,000 mm 0,0 UV-I 0 W/m 14,2 C 8,0 km/h (2 Bft)
01.09.2016 05:55 15,7 C 15,7 C 91 % 1019,9 hPa 0,0 mm 3,2 km/h (1 Bft) S 191 0 min 0,000 mm 0,0 UV-I 0 W/m 14,2 C 4,8 km/h (1 Bft)
01.09.2016 05:56 15,7 C 15,7 C 91 % 1019,8 hPa 0,0 mm 1,9 km/h (1 Bft) S 191 0 min 0,000 mm 0,0 UV-I 0 W/m 14,2 C 3,2 km/h (1 Bft)
01.09.2016 05:57 15,7 C 15,7 C 91 % 1019,8 hPa 0,0 mm 0,8 km/h (0 Bft) S 191 0 min 0,000 mm 0,0 UV-I 0 W/m 14,2 C 1,6 km/h (1 Bft)
01.09.2016 05:58 15,7 C 15,7 C 91 % 1019,9 hPa 0,0 mm 1,7 km/h (1 Bft) S 191 0 min 0,000 mm 0,0 UV-I 0 W/m 14,2 C 3,2 km/h (1 Bft)
01.09.2016 05:59 15,7 C 15,7 C 91 % 1019,8 hPa 0,0 mm 1,1 km/h (1 Bft) S-SW 196 0 min 0,000 mm 0,0 UV-I 0 W/m 14,2 C 3,2 km/h (1 Bft)
01.09.2016 06:00 15,7 C 15,8 C 91 % 1019,9 hPa 0,0 mm 0,5 km/h (0 Bft) S-SW 196 0 min 0,000 mm 0,0 UV-I 0 W/m 14,2 C 1,6 km/h (1 Bft)
01.09.2016 06:01 15,7 C 15,8 C 91 % 1019,9 hPa 0,0 mm 2,2 km/h (1 Bft) S-SW 196 0 min 0,000 mm 0,0 UV-I 0 W/m 14,2 C 3,2 km/h (1 Bft)
01.09.2016 06:02 15,7 C 15,7 C 91 % 1019,9 hPa 0,0 mm 1,8 km/h (1 Bft) S-SW 196 0 min 0,000 mm 0,0 UV-I 0 W/m 14,2 C 3,2 km/h (1 Bft)
01.09.2016 06:03 15,7 C 15,7 C 91 % 1019,9 hPa 0,0 mm 1,7 km/h (1 Bft) S-SW 196 0 min 0,000 mm 0,0 UV-I 0 W/m 14,2 C 3,2 km/h (1 Bft)
01.09.2016 06:04 15,7 C 15,7 C 92 % 1019,9 hPa 0,0 mm 1,5 km/h (1 Bft) S-SW 196 0 min 0,000 mm 0,0 UV-I 0 W/m 14,4 C 1,6 km/h (1 Bft)
01.09.2016 06:05 15,7 C 15,7 C 92 % 1019,9 hPa 0,0 mm 1,1 km/h (1 Bft) S-SW 196 0 min 0,000 mm 0,0 UV-I 0 W/m 14,4 C 1,6 km/h (1 Bft)
01.09.2016 06:06 15,7 C 15,7 C 92 % 1019,9 hPa 0,0 mm 1,7 km/h (1 Bft) S-SW 196 0 min 0,000 mm 0,0 UV-I 0 W/m 14,4 C 3,2 km/h (1 Bft)
01.09.2016 06:07 15,7 C 15,7 C 92 % 1019,8 hPa 0,0 mm 1,6 km/h (1 Bft) S-SW 196 0 min 0,000 mm 0,0 UV-I 0 W/m 14,4 C 3,2 km/h (1 Bft)
01.09.2016 06:08 15,7 C 15,7 C 92 % 1019,9 hPa 0,0 mm 1,0 km/h (0 Bft) S-SW 196 0 min 0,000 mm 0,0 UV-I 0 W/m 14,4 C 1,6 km/h (1 Bft)
01.09.2016 06:09 15,7 C 15,7 C 92 % 1019,9 hPa 0,0 mm 0,1 km/h (0 Bft) S-SW 196 0 min 0,000 mm 0,0 UV-I 0 W/m 14,4 C 1,6 km/h (1 Bft)
01.09.2016 06:10 15,7 C 15,7 C 92 % 1019,9 hPa 0,0 mm 0,0 km/h (0 Bft) S-SW 196 0 min 0,000 mm 0,0 UV-I 0 W/m 14,4 C 0,0 km/h (0 Bft)
01.09.2016 06:11 15,6 C 15,7 C 92 % 1019,9 hPa 0,0 mm 0,0 km/h (0 Bft) S-SW 196 0 min 0,000 mm 0,0 UV-I 0 W/m 14,3 C 0,0 km/h (0 Bft)
01.09.2016 06:12 15,6 C 15,7 C 92 % 1019,9 hPa 0,0 mm 0,0 km/h (0 Bft) S-SW 196 0 min 0,000 mm 0,0 UV-I 0 W/m 14,3 C 0,0 km/h (0 Bft)
01.09.2016 06:13 15,6 C 15,7 C 92 % 1019,9 hPa 0,0 mm 0,0 km/h (0 Bft) S-SW 196 0 min 0,000 mm 0,0 UV-I 0 W/m 14,3 C 0,0 km/h (0 Bft)
01.09.2016 06:14 15,6 C 15,6 C 92 % 1020,0 hPa 0,0 mm 0,0 km/h (0 Bft) S-SW 196 0 min 0,000 mm 0,0 UV-I 0 W/m 14,3 C 0,0 km/h (0 Bft)
01.09.2016 06:15 15,5 C 15,6 C 92 % 1019,9 hPa 0,0 mm 0,0 km/h (0 Bft) S-SW 196 0 min 0,000 mm 0,0 UV-I 0 W/m 14,2 C 0,0 km/h (0 Bft)
01.09.2016 06:16 15,5 C 15,5 C 92 % 1019,9 hPa 0,0 mm 0,8 km/h (0 Bft) S-SW 196 0 min 0,000 mm 0,0 UV-I 0 W/m 14,2 C 3,2 km/h (1 Bft)
01.09.2016 06:17 15,4 C 15,5 C 92 % 1020,0 hPa 0,0 mm 1,4 km/h (1 Bft) S-SW 196 0 min 0,000 mm 0,0 UV-I 0 W/m 14,1 C 1,6 km/h (1 Bft)
01.09.2016 06:18 15,4 C 15,4 C 92 % 1020,0 hPa 0,0 mm 1,0 km/h (0 Bft) S-SW 196 0 min 0,000 mm 0,0 UV-I 0 W/m 14,1 C 1,6 km/h (1 Bft)
01.09.2016 06:19 15,4 C 15,4 C 92 % 1019,9 hPa 0,0 mm 0,7 km/h (0 Bft) S-SW 196 0 min 0,000 mm 0,0 UV-I 0 W/m 14,1 C 1,6 km/h (1 Bft)
01.09.2016 06:20 15,4 C 15,4 C 93 % 1019,9 hPa 0,0 mm 0,1 km/h (0 Bft) S-SW 196 0 min 0,000 mm 0,0 UV-I 0 W/m 14,3 C 1,6 km/h (1 Bft)
01.09.2016 06:21 15,4 C 15,4 C 93 % 1019,9 hPa 0,0 mm 0,0 km/h (0 Bft) S-SW 196 0 min 0,000 mm 0,0 UV-I 0 W/m 14,3 C 0,0 km/h (0 Bft)
01.09.2016 06:22 15,4 C 15,4 C 93 % 1019,9 hPa 0,0 mm 0,0 km/h (0 Bft) S-SW 196 0 min 0,000 mm 0,0 UV-I 0 W/m 14,3 C 0,0 km/h (0 Bft)
01.09.2016 06:23 15,4 C 15,4 C 93 % 1019,9 hPa 0,0 mm 0,0 km/h (0 Bft) S-SW 196 0 min 0,000 mm 0,0 UV-I 0 W/m 14,3 C 0,0 km/h (0 Bft)
01.09.2016 06:24 15,5 C 15,5 C 93 % 1019,9 hPa 0,0 mm 0,0 km/h (0 Bft) S-SW 196 0 min 0,000 mm 0,0 UV-I 0 W/m 14,4 C 0,0 km/h (0 Bft)
01.09.2016 06:25 15,6 C 15,6 C 92 % 1020,0 hPa 0,0 mm 0,0 km/h (0 Bft) S-SW 196 0 min 0,000 mm 0,0 UV-I 0 W/m 14,3 C 0,0 km/h (0 Bft)
01.09.2016 06:26 15,6 C 15,6 C 92 % 1020,0 hPa 0,0 mm 0,3 km/h (0 Bft) S-SW 200 0 min 0,000 mm 0,0 UV-I 0 W/m 14,3 C 1,6 km/h (1 Bft)
01.09.2016 06:27 15,6 C 15,6 C 92 % 1020,0 hPa 0,0 mm 0,7 km/h (0 Bft) S-SW 200 0 min 0,000 mm 0,0 UV-I 0 W/m 14,3 C 1,6 km/h (1 Bft)
01.09.2016 06:28 15,6 C 15,6 C 92 % 1020,0 hPa 0,0 mm 1,3 km/h (1 Bft) S-SW 193 0 min 0,000 mm 0,0 UV-I 0 W/m 14,3 C 3,2 km/h (1 Bft)
01.09.2016 06:29 15,6 C 15,6 C 92 % 1019,9 hPa 0,0 mm 0,1 km/h (0 Bft) S-SW 193 0 min 0,000 mm 0,0 UV-I 0 W/m 14,3 C 1,6 km/h (1 Bft)
01.09.2016 06:30 15,6 C 15,6 C 92 % 1019,9 hPa 0,0 mm 0,5 km/h (0 Bft) S-SW 193 0 min 0,000 mm 0,0 UV-I 0 W/m 14,3 C 1,6 km/h (1 Bft)
01.09.2016 06:31 15,7 C 15,7 C 92 % 1019,9 hPa 0,0 mm 0,3 km/h (0 Bft) S-SW 193 0 min 0,000 mm 0,0 UV-I 0 W/m 14,4 C 1,6 km/h (1 Bft)
01.09.2016 06:32 15,6 C 15,7 C 92 % 1020,0 hPa 0,0 mm 0,4 km/h (0 Bft) S-SW 193 0 min 0,000 mm 0,0 UV-I 0 W/m 14,3 C 1,6 km/h (1 Bft)
01.09.2016 06:33 15,6 C 15,6 C 92 % 1020,0 hPa 0,0 mm 0,0 km/h (0 Bft) S-SW 193 0 min 0,000 mm 0,0 UV-I 0 W/m 14,3 C 0,0 km/h (0 Bft)
01.09.2016 06:34 15,6 C 15,6 C 92 % 1020,0 hPa 0,0 mm 0,0 km/h (0 Bft) S-SW 193 0 min 0,000 mm 0,0 UV-I 0 W/m 14,3 C 0,0 km/h (0 Bft)
01.09.2016 06:35 15,4 C 15,6 C 92 % 1020,0 hPa 0,0 mm 0,6 km/h (0 Bft) S-SW 193 0 min 0,000 mm 0,0 UV-I 0 W/m 14,1 C 1,6 km/h (1 Bft)
01.09.2016 06:36 15,5 C 15,5 C 92 % 1020,0 hPa 0,0 mm 2,1 km/h (1 Bft) S 178 0 min 0,000 mm 0,0 UV-I 0 W/m 14,2 C 3,2 km/h (1 Bft)
01.09.2016 06:37 15,5 C 15,5 C 92 % 1020,0 hPa 0,0 mm 6,2 km/h (2 Bft) S-SW 202 0 min 0,000 mm 0,0 UV-I 0 W/m 14,2 C 9,7 km/h (2 Bft)
01.09.2016 06:38 15,5 C 15,5 C 92 % 1020,0 hPa 0,0 mm 5,2 km/h (1 Bft) S 184 0 min 0,000 mm 0,0 UV-I 0 W/m 14,2 C 8,0 km/h (2 Bft)
01.09.2016 06:39 15,5 C 15,5 C 92 % 1019,9 hPa 0,0 mm 1,7 km/h (1 Bft) S 184 0 min 0,000 mm 0,0 UV-I 0 W/m 14,2 C 3,2 km/h (1 Bft)
01.09.2016 06:40 15,5 C 15,6 C 92 % 1019,9 hPa 0,0 mm 1,1 km/h (1 Bft) S 184 0 min 0,000 mm 0,0 UV-I 0 W/m 14,2 C 3,2 km/h (1 Bft)
01.09.2016 06:41 15,5 C 15,5 C 92 % 1020,0 hPa 0,0 mm 1,1 km/h (1 Bft) S 184 0 min 0,000 mm 0,0 UV-I 0 W/m 14,2 C 3,2 km/h (1 Bft)
01.09.2016 06:42 15,5 C 15,5 C 92 % 1019,9 hPa 0,0 mm 1,1 km/h (1 Bft) S 184 0 min 0,000 mm 0,0 UV-I 0 W/m 14,2 C 3,2 km/h (1 Bft)
01.09.2016 06:43 15,4 C 15,5 C 92 % 1020,0 hPa 0,0 mm 0,2 km/h (0 Bft) S 184 0 min 0,000 mm 0,0 UV-I 0 W/m 14,1 C 1,6 km/h (1 Bft)
01.09.2016 06:44 15,5 C 15,5 C 92 % 1020,0 hPa 0,0 mm 1,9 km/h (1 Bft) SW 231 0 min 0,000 mm 0,0 UV-I 0 W/m 14,2 C 4,8 km/h (1 Bft)
01.09.2016 06:45 15,5 C 15,5 C 92 % 1020,0 hPa 0,0 mm 1,1 km/h (1 Bft) SW 230 0 min 0,000 mm 0,0 UV-I 0 W/m 14,2 C 1,6 km/h (1 Bft)
01.09.2016 06:46 15,6 C 15,6 C 92 % 1020,0 hPa 0,0 mm 1,3 km/h (1 Bft) S-SW 213 0 min 0,000 mm 0,0 UV-I 0 W/m 14,3 C 1,6 km/h (1 Bft)
01.09.2016 06:47 15,6 C 15,6 C 91 % 1019,9 hPa 0,0 mm 4,1 km/h (1 Bft) S 186 0 min 0,000 mm 0,0 UV-I 5 W/m 14,1 C 6,4 km/h (2 Bft)
01.09.2016 06:48 15,5 C 15,6 C 92 % 1020,0 hPa 0,0 mm 3,3 km/h (1 Bft) S 186 0 min 0,000 mm 0,0 UV-I 5 W/m 14,2 C 4,8 km/h (1 Bft)
01.09.2016 06:49 15,5 C 15,6 C 92 % 1020,0 hPa 0,0 mm 0,9 km/h (0 Bft) S 186 0 min 0,000 mm 0,0 UV-I 5 W/m 14,2 C 1,6 km/h (1 Bft)
01.09.2016 06:50 15,5 C 15,5 C 92 % 1020,0 hPa 0,0 mm 0,5 km/h (0 Bft) S 186 0 min 0,000 mm 0,0 UV-I 5 W/m 14,2 C 1,6 km/h (1 Bft)
01.09.2016 06:51 15,5 C 15,5 C 92 % 1020,0 hPa 0,0 mm 2,3 km/h (1 Bft) S 186 0 min 0,000 mm 0,0 UV-I 5 W/m 14,2 C 4,8 km/h (1 Bft)
01.09.2016 06:52 15,6 C 15,6 C 92 % 1020,1 hPa 0,0 mm 3,6 km/h (1 Bft) S 186 0 min 0,000 mm 0,0 UV-I 5 W/m 14,3 C 4,8 km/h (1 Bft)
01.09.2016 06:53 15,6 C 15,6 C 92 % 1020,1 hPa 0,0 mm 1,2 km/h (1 Bft) S 186 0 min 0,000 mm 0,0 UV-I 5 W/m 14,3 C 1,6 km/h (1 Bft)
01.09.2016 06:54 15,5 C 15,6 C 92 % 1020,1 hPa 0,0 mm 0,0 km/h (0 Bft) S 186 0 min 0,000 mm 0,0 UV-I 7 W/m 14,2 C 0,0 km/h (0 Bft)
01.09.2016 06:55 15,6 C 15,6 C 92 % 1020,1 hPa 0,0 mm 0,1 km/h (0 Bft) S 186 0 min 0,000 mm 0,0 UV-I 7 W/m 14,3 C 1,6 km/h (1 Bft)
01.09.2016 06:56 15,6 C 15,6 C 92 % 1020,1 hPa 0,0 mm 0,1 km/h (0 Bft) S 186 0 min 0,000 mm 0,0 UV-I 7 W/m 14,3 C 1,6 km/h (1 Bft)
01.09.2016 06:57 15,6 C 15,6 C 92 % 1020,1 hPa 0,0 mm 1,3 km/h (1 Bft) S 186 0 min 0,000 mm 0,0 UV-I 9 W/m 14,3 C 3,2 km/h (1 Bft)
01.09.2016 06:58 15,6 C 15,6 C 92 % 1020,1 hPa 0,0 mm 3,1 km/h (1 Bft) S 175 0 min 0,000 mm 0,0 UV-I 9 W/m 14,3 C 4,8 km/h (1 Bft)
01.09.2016 06:59 15,6 C 15,6 C 92 % 1020,1 hPa 0,0 mm 4,2 km/h (1 Bft) S-SO 164 0 min 0,000 mm 0,0 UV-I 9 W/m 14,3 C 6,4 km/h (2 Bft)
01.09.2016 07:00 15,6 C 15,6 C 92 % 1020,1 hPa 0,0 mm 2,7 km/h (1 Bft) S-SO 165 0 min 0,000 mm 0,0 UV-I 9 W/m 14,3 C 6,4 km/h (2 Bft)
01.09.2016 07:01 15,6 C 15,6 C 92 % 1020,1 hPa 0,0 mm 3,0 km/h (1 Bft) S 181 0 min 0,000 mm 0,0 UV-I 9 W/m 14,3 C 4,8 km/h (1 Bft)
01.09.2016 07:02 15,7 C 15,7 C 92 % 1020,2 hPa 0,0 mm 3,7 km/h (1 Bft) S 182 0 min 0,000 mm 0,0 UV-I 9 W/m 14,4 C 4,8 km/h (1 Bft)
01.09.2016 07:03 15,7 C 15,7 C 92 % 1020,1 hPa 0,0 mm 2,4 km/h (1 Bft) S 182 0 min 0,000 mm 0,0 UV-I 9 W/m 14,4 C 3,2 km/h (1 Bft)
01.09.2016 07:04 15,7 C 15,7 C 92 % 1020,1 hPa 0,0 mm 2,1 km/h (1 Bft) S 175 0 min 0,000 mm 0,0 UV-I 9 W/m 14,4 C 3,2 km/h (1 Bft)
01.09.2016 07:05 15,7 C 15,7 C 92 % 1020,1 hPa 0,0 mm 1,9 km/h (1 Bft) S 175 0 min 0,000 mm 0,0 UV-I 9 W/m 14,4 C 3,2 km/h (1 Bft)
01.09.2016 07:06 15,7 C 15,7 C 92 % 1020,2 hPa 0,0 mm 0,7 km/h (0 Bft) S 175 0 min 0,000 mm 0,0 UV-I 9 W/m 14,4 C 3,2 km/h (1 Bft)
01.09.2016 07:07 15,7 C 15,7 C 92 % 1020,2 hPa 0,0 mm 1,5 km/h (1 Bft) SW 233 0 min 0,000 mm 0,0 UV-I 9 W/m 14,4 C 3,2 km/h (1 Bft)
01.09.2016 07:08 15,7 C 15,7 C 91 % 1020,2 hPa 0,0 mm 2,1 km/h (1 Bft) SW 233 0 min 0,000 mm 0,0 UV-I 9 W/m 14,2 C 3,2 km/h (1 Bft)
01.09.2016 07:09 15,8 C 15,8 C 91 % 1020,2 hPa 0,0 mm 0,1 km/h (0 Bft) SW 233 0 min 0,000 mm 0,0 UV-I 9 W/m 14,3 C 1,6 km/h (1 Bft)
01.09.2016 07:10 15,8 C 15,8 C 91 % 1020,2 hPa 0,0 mm 0,0 km/h (0 Bft) SW 233 0 min 0,000 mm 0,0 UV-I 9 W/m 14,3 C 0,0 km/h (0 Bft)
01.09.2016 07:11 15,8 C 15,8 C 91 % 1020,2 hPa 0,0 mm 0,0 km/h (0 Bft) SW 233 0 min 0,000 mm 0,0 UV-I 9 W/m 14,3 C 0,0 km/h (0 Bft)
01.09.2016 07:12 15,8 C 15,8 C 91 % 1020,2 hPa 0,0 mm 0,1 km/h (0 Bft) SW 233 0 min 0,000 mm 0,0 UV-I 7 W/m 14,3 C 1,6 km/h (1 Bft)
01.09.2016 07:13 15,8 C 15,8 C 91 % 1020,2 hPa 0,0 mm 0,1 km/h (0 Bft) SW 233 0 min 0,000 mm 0,0 UV-I 7 W/m 14,3 C 1,6 km/h (1 Bft)
01.09.2016 07:14 15,8 C 15,9 C 91 % 1020,2 hPa 0,0 mm 2,1 km/h (1 Bft) SW 233 0 min 0,000 mm 0,0 UV-I 7 W/m 14,3 C 3,2 km/h (1 Bft)
01.09.2016 07:15 15,9 C 15,9 C 91 % 1020,3 hPa 0,0 mm 0,3 km/h (0 Bft) SW 223 0 min 0,000 mm 0,0 UV-I 5 W/m 14,4 C 1,6 km/h (1 Bft)
01.09.2016 07:16 15,9 C 15,9 C 91 % 1020,3 hPa 0,0 mm 3,2 km/h (1 Bft) S-SW 192 0 min 0,000 mm 0,0 UV-I 5 W/m 14,4 C 4,8 km/h (1 Bft)
01.09.2016 07:17 15,9 C 15,9 C 91 % 1020,3 hPa 0,0 mm 2,1 km/h (1 Bft) S-SW 193 0 min 0,000 mm 0,0 UV-I 5 W/m 14,4 C 4,8 km/h (1 Bft)
01.09.2016 07:18 15,9 C 15,9 C 91 % 1020,3 hPa 0,0 mm 2,8 km/h (1 Bft) S 186 0 min 0,000 mm 0,0 UV-I 5 W/m 14,4 C 3,2 km/h (1 Bft)
01.09.2016 07:19 16,0 C 16,0 C 90 % 1020,3 hPa 0,0 mm 3,0 km/h (1 Bft) S 169 0 min 0,000 mm 0,0 UV-I 5 W/m 14,4 C 4,8 km/h (1 Bft)
01.09.2016 07:20 15,9 C 16,0 C 91 % 1020,3 hPa 0,2 mm 1,5 km/h (1 Bft) S 169 0 min 0,000 mm 0,0 UV-I 5 W/m 14,4 C 3,2 km/h (1 Bft)
01.09.2016 07:21 15,9 C 15,9 C 91 % 1020,3 hPa 0,0 mm 2,7 km/h (1 Bft) S 169 0 min 0,000 mm 0,0 UV-I 5 W/m 14,4 C 3,2 km/h (1 Bft)
01.09.2016 07:22 15,8 C 15,9 C 92 % 1020,3 hPa 0,0 mm 2,3 km/h (1 Bft) S 169 0 min 0,000 mm 0,0 UV-I 5 W/m 14,5 C 3,2 km/h (1 Bft)
01.09.2016 07:23 15,8 C 15,8 C 92 % 1020,3 hPa 0,2 mm 1,8 km/h (1 Bft) S 169 0 min 0,000 mm 0,0 UV-I 5 W/m 14,5 C 3,2 km/h (1 Bft)
01.09.2016 07:24 15,8 C 15,8 C 92 % 1020,3 hPa 0,0 mm 2,1 km/h (1 Bft) S-SO 159 0 min 0,000 mm 0,0 UV-I 5 W/m 14,5 C 3,2 km/h (1 Bft)
01.09.2016 07:25 15,8 C 15,8 C 92 % 1020,3 hPa 0,0 mm 1,7 km/h (1 Bft) S-SO 159 0 min 0,000 mm 0,0 UV-I 5 W/m 14,5 C 3,2 km/h (1 Bft)
01.09.2016 07:26 15,7 C 15,8 C 93 % 1020,3 hPa 0,0 mm 0,5 km/h (0 Bft) S-SO 159 0 min 0,000 mm 0,0 UV-I 7 W/m 14,6 C 1,6 km/h (1 Bft)
01.09.2016 07:27 15,7 C 15,7 C 93 % 1020,3 hPa 0,0 mm 0,8 km/h (0 Bft) S-SO 159 0 min 0,000 mm 0,0 UV-I 7 W/m 14,6 C 1,6 km/h (1 Bft)
01.09.2016 07:28 15,7 C 15,7 C 93 % 1020,4 hPa 0,0 mm 0,1 km/h (0 Bft) S-SO 159 0 min 0,000 mm 0,0 UV-I 9 W/m 14,6 C 1,6 km/h (1 Bft)
01.09.2016 07:29 15,6 C 15,7 C 93 % 1020,4 hPa 0,0 mm 1,3 km/h (1 Bft) S-SO 160 0 min 0,000 mm 0,0 UV-I 11 W/m 14,5 C 1,6 km/h (1 Bft)
01.09.2016 07:30 15,6 C 15,6 C 93 % 1020,4 hPa 0,0 mm 1,3 km/h (1 Bft) S-SO 160 0 min 0,000 mm 0,0 UV-I 12 W/m 14,5 C 3,2 km/h (1 Bft)
01.09.2016 07:31 15,6 C 15,6 C 94 % 1020,3 hPa 0,0 mm 1,5 km/h (1 Bft) S-SO 160 0 min 0,000 mm 0,0 UV-I 14 W/m 14,6 C 3,2 km/h (1 Bft)
01.09.2016 07:32 15,6 C 15,6 C 94 % 1020,4 hPa 0,0 mm 0,9 km/h (0 Bft) S-SO 160 0 min 0,000 mm 0,0 UV-I 16 W/m 14,6 C 1,6 km/h (1 Bft)
01.09.2016 07:33 15,6 C 15,6 C 94 % 1020,4 hPa 0,0 mm 0,3 km/h (0 Bft) S-SO 160 0 min 0,000 mm 0,0 UV-I 18 W/m 14,6 C 1,6 km/h (1 Bft)
01.09.2016 07:34 15,6 C 15,6 C 94 % 1020,4 hPa 0,0 mm 0,4 km/h (0 Bft) S-SO 160 0 min 0,000 mm 0,0 UV-I 23 W/m 14,6 C 1,6 km/h (1 Bft)
01.09.2016 07:35 15,6 C 15,6 C 94 % 1020,4 hPa 0,0 mm 0,6 km/h (0 Bft) S-SO 160 0 min 0,000 mm 0,0 UV-I 25 W/m 14,6 C 1,6 km/h (1 Bft)
01.09.2016 07:36 15,6 C 15,6 C 94 % 1020,4 hPa 0,0 mm 0,0 km/h (0 Bft) S-SO 160 0 min 0,000 mm 0,0 UV-I 25 W/m 14,6 C 0,0 km/h (0 Bft)
01.09.2016 07:37 15,5 C 15,6 C 94 % 1020,4 hPa 0,0 mm 0,9 km/h (0 Bft) S-SO 160 0 min 0,000 mm 0,0 UV-I 25 W/m 14,5 C 1,6 km/h (1 Bft)
01.09.2016 07:38 15,5 C 15,6 C 94 % 1020,4 hPa 0,0 mm 0,0 km/h (0 Bft) S-SO 160 0 min 0,000 mm 0,0 UV-I 23 W/m 14,5 C 0,0 km/h (0 Bft)
01.09.2016 07:39 15,5 C 15,5 C 94 % 1020,4 hPa 0,0 mm 0,0 km/h (0 Bft) S-SO 160 0 min 0,000 mm 0,0 UV-I 21 W/m 14,5 C 0,0 km/h (0 Bft)
01.09.2016 07:40 15,5 C 15,5 C 94 % 1020,4 hPa 0,0 mm 0,5 km/h (0 Bft) S-SO 160 0 min 0,000 mm 0,0 UV-I 21 W/m 14,5 C 3,2 km/h (1 Bft)
01.09.2016 07:41 15,4 C 15,5 C 94 % 1020,4 hPa 0,0 mm 0,5 km/h (0 Bft) S-SO 160 0 min 0,000 mm 0,0 UV-I 21 W/m 14,4 C 1,6 km/h (1 Bft)
01.09.2016 07:42 15,4 C 15,5 C 94 % 1020,4 hPa 0,0 mm 0,1 km/h (0 Bft) S-SO 160 0 min 0,000 mm 0,0 UV-I 21 W/m 14,4 C 1,6 km/h (1 Bft)
01.09.2016 07:43 15,4 C 15,5 C 95 % 1020,4 hPa 0,0 mm 0,0 km/h (0 Bft) S-SO 160 0 min 0,000 mm 0,0 UV-I 23 W/m 14,6 C 0,0 km/h (0 Bft)
01.09.2016 07:44 15,4 C 15,5 C 95 % 1020,4 hPa 0,0 mm 0,9 km/h (0 Bft) S-SO 160 0 min 0,000 mm 0,0 UV-I 23 W/m 14,6 C 3,2 km/h (1 Bft)
01.09.2016 07:45 15,4 C 15,5 C 94 % 1020,4 hPa 0,0 mm 1,8 km/h (1 Bft) S-SO 160 0 min 0,000 mm 0,0 UV-I 21 W/m 14,4 C 3,2 km/h (1 Bft)
01.09.2016 07:46 15,4 C 15,4 C 94 % 1020,4 hPa 0,0 mm 1,7 km/h (1 Bft) S 186 0 min 0,000 mm 0,0 UV-I 19 W/m 14,4 C 4,8 km/h (1 Bft)
01.09.2016 07:47 15,5 C 15,5 C 94 % 1020,4 hPa 0,0 mm 2,2 km/h (1 Bft) S-SO 157 0 min 0,000 mm 0,0 UV-I 18 W/m 14,5 C 3,2 km/h (1 Bft)
01.09.2016 07:48 15,5 C 15,5 C 94 % 1020,4 hPa 0,0 mm 1,9 km/h (1 Bft) S-SO 157 0 min 0,000 mm 0,0 UV-I 16 W/m 14,5 C 3,2 km/h (1 Bft)
01.09.2016 07:49 15,6 C 15,6 C 94 % 1020,4 hPa 0,0 mm 1,6 km/h (1 Bft) S-SO 159 0 min 0,000 mm 0,0 UV-I 14 W/m 14,6 C 4,8 km/h (1 Bft)
01.09.2016 07:50 15,6 C 15,6 C 94 % 1020,4 hPa 0,0 mm 2,0 km/h (1 Bft) S-SO 167 0 min 0,000 mm 0,0 UV-I 14 W/m 14,6 C 4,8 km/h (1 Bft)
01.09.2016 07:51 15,6 C 15,6 C 94 % 1020,4 hPa 0,0 mm 2,0 km/h (1 Bft) S 177 0 min 0,000 mm 0,0 UV-I 14 W/m 14,6 C 4,8 km/h (1 Bft)
01.09.2016 07:52 15,6 C 15,6 C 94 % 1020,4 hPa 0,0 mm 3,9 km/h (1 Bft) SW 221 0 min 0,000 mm 0,0 UV-I 14 W/m 14,6 C 6,4 km/h (2 Bft)
01.09.2016 07:53 15,7 C 15,7 C 93 % 1020,4 hPa 0,0 mm 2,7 km/h (1 Bft) SW 225 0 min 0,000 mm 0,0 UV-I 16 W/m 14,6 C 3,2 km/h (1 Bft)
01.09.2016 07:54 15,8 C 15,8 C 93 % 1020,4 hPa 0,0 mm 2,5 km/h (1 Bft) SW 232 0 min 0,000 mm 0,0 UV-I 18 W/m 14,7 C 3,2 km/h (1 Bft)
01.09.2016 07:55 15,8 C 15,8 C 92 % 1020,5 hPa 0,0 mm 2,1 km/h (1 Bft) S 190 0 min 0,000 mm 0,0 UV-I 19 W/m 14,5 C 3,2 km/h (1 Bft)
01.09.2016 07:56 15,9 C 15,9 C 92 % 1020,5 hPa 0,0 mm 6,3 km/h (2 Bft) S 183 0 min 0,000 mm 0,0 UV-I 21 W/m 14,6 C 9,7 km/h (2 Bft)
01.09.2016 07:57 15,9 C 15,9 C 91 % 1020,5 hPa 0,0 mm 6,8 km/h (2 Bft) S-SW 203 0 min 0,000 mm 0,0 UV-I 25 W/m 14,4 C 11,3 km/h (2 Bft)
01.09.2016 07:58 15,9 C 15,9 C 92 % 1020,5 hPa 0,0 mm 7,1 km/h (2 Bft) S 175 0 min 0,000 mm 0,0 UV-I 23 W/m 14,6 C 9,7 km/h (2 Bft)
01.09.2016 07:59 15,9 C 15,9 C 91 % 1020,5 hPa 0,0 mm 6,4 km/h (2 Bft) S 182 0 min 0,000 mm 0,0 UV-I 23 W/m 14,4 C 8,0 km/h (2 Bft)
01.09.2016 08:00 15,9 C 16,0 C 91 % 1020,5 hPa 0,0 mm 4,7 km/h (1 Bft) S-SW 198 0 min 0,000 mm 0,0 UV-I 21 W/m 14,4 C 8,0 km/h (2 Bft)
01.09.2016 08:01 15,9 C 16,0 C 91 % 1020,5 hPa 0,0 mm 5,7 km/h (1 Bft) S 185 0 min 0,000 mm 0,0 UV-I 21 W/m 14,4 C 8,0 km/h (2 Bft)
01.09.2016 08:02 15,9 C 15,9 C 91 % 1020,5 hPa 0,0 mm 3,9 km/h (1 Bft) S 186 0 min 0,000 mm 0,0 UV-I 19 W/m 14,4 C 6,4 km/h (2 Bft)
01.09.2016 08:03 15,9 C 15,9 C 91 % 1020,5 hPa 0,0 mm 5,6 km/h (1 Bft) S 184 0 min 0,000 mm 0,0 UV-I 18 W/m 14,4 C 8,0 km/h (2 Bft)
01.09.2016 08:04 15,9 C 15,9 C 91 % 1020,5 hPa 0,0 mm 6,7 km/h (2 Bft) S-SW 211 0 min 0,000 mm 0,0 UV-I 16 W/m 14,4 C 9,7 km/h (2 Bft)
01.09.2016 08:05 15,9 C 16,0 C 91 % 1020,5 hPa 0,0 mm 4,0 km/h (1 Bft) S 179 0 min 0,000 mm 0,0 UV-I 16 W/m 14,4 C 6,4 km/h (2 Bft)
01.09.2016 08:06 15,9 C 15,9 C 91 % 1020,5 hPa 0,0 mm 4,1 km/h (1 Bft) S 173 0 min 0,000 mm 0,0 UV-I 16 W/m 14,4 C 6,4 km/h (2 Bft)
01.09.2016 08:07 15,9 C 15,9 C 92 % 1020,5 hPa 0,0 mm 5,5 km/h (1 Bft) S 180 0 min 0,000 mm 0,0 UV-I 18 W/m 14,6 C 8,0 km/h (2 Bft)
01.09.2016 08:08 15,9 C 15,9 C 92 % 1020,5 hPa 0,0 mm 6,5 km/h (2 Bft) S 185 0 min 0,000 mm 0,0 UV-I 19 W/m 14,6 C 9,7 km/h (2 Bft)
01.09.2016 08:09 15,9 C 15,9 C 91 % 1020,6 hPa 0,0 mm 6,2 km/h (2 Bft) S 179 0 min 0,000 mm 0,0 UV-I 25 W/m 14,4 C 9,7 km/h (2 Bft)
01.09.2016 08:10 15,9 C 15,9 C 91 % 1020,6 hPa 0,0 mm 5,8 km/h (2 Bft) SW 218 0 min 0,000 mm 0,0 UV-I 26 W/m 14,4 C 8,0 km/h (2 Bft)
01.09.2016 08:11 15,9 C 15,9 C 91 % 1020,6 hPa 0,0 mm 3,6 km/h (1 Bft) S 171 0 min 0,000 mm 0,0 UV-I 26 W/m 14,4 C 6,4 km/h (2 Bft)
01.09.2016 08:12 15,9 C 15,9 C 92 % 1020,5 hPa 0,0 mm 4,9 km/h (1 Bft) S-SW 200 0 min 0,000 mm 0,0 UV-I 28 W/m 14,6 C 9,7 km/h (2 Bft)
01.09.2016 08:13 15,9 C 15,9 C 92 % 1020,6 hPa 0,0 mm 5,9 km/h (2 Bft) S 172 0 min 0,000 mm 0,0 UV-I 28 W/m 14,6 C 8,0 km/h (2 Bft)
01.09.2016 08:14 15,9 C 15,9 C 92 % 1020,6 hPa 0,0 mm 2,3 km/h (1 Bft) S-SO 158 0 min 0,000 mm 0,0 UV-I 30 W/m 14,6 C 4,8 km/h (1 Bft)
01.09.2016 08:15 15,8 C 15,9 C 93 % 1020,6 hPa 0,0 mm 1,3 km/h (1 Bft) S-SO 158 0 min 0,000 mm 0,0 UV-I 32 W/m 14,7 C 3,2 km/h (1 Bft)
01.09.2016 08:16 15,8 C 15,9 C 92 % 1020,6 hPa 0,0 mm 4,5 km/h (1 Bft) S 178 0 min 0,000 mm 0,0 UV-I 33 W/m 14,5 C 8,0 km/h (2 Bft)
01.09.2016 08:17 15,8 C 15,9 C 92 % 1020,6 hPa 0,0 mm 2,5 km/h (1 Bft) S-SO 159 0 min 0,000 mm 0,0 UV-I 35 W/m 14,5 C 6,4 km/h (2 Bft)
01.09.2016 08:18 15,9 C 15,9 C 92 % 1020,7 hPa 0,0 mm 4,6 km/h (1 Bft) S-SW 207 0 min 0,000 mm 0,0 UV-I 37 W/m 14,6 C 8,0 km/h (2 Bft)
01.09.2016 08:19 15,9 C 15,9 C 93 % 1020,7 hPa 0,0 mm 3,6 km/h (1 Bft) S-SW 194 0 min 0,000 mm 0,0 UV-I 37 W/m 14,8 C 8,0 km/h (2 Bft)
01.09.2016 08:20 15,9 C 15,9 C 92 % 1020,7 hPa 0,0 mm 1,5 km/h (1 Bft) S-SW 194 0 min 0,000 mm 0,0 UV-I 33 W/m 14,6 C 3,2 km/h (1 Bft)
01.09.2016 08:21 15,9 C 15,9 C 92 % 1020,7 hPa 0,0 mm 1,1 km/h (1 Bft) S-SW 202 0 min 0,000 mm 0,0 UV-I 28 W/m 14,6 C 1,6 km/h (1 Bft)
01.09.2016 08:22 15,9 C 16,0 C 92 % 1020,7 hPa 0,0 mm 3,0 km/h (1 Bft) W-SW 246 0 min 0,000 mm 0,0 UV-I 26 W/m 14,6 C 4,8 km/h (1 Bft)
01.09.2016 08:23 16,0 C 16,0 C 92 % 1020,8 hPa 0,0 mm 3,8 km/h (1 Bft) W 263 0 min 0,000 mm 0,0 UV-I 26 W/m 14,7 C 6,4 km/h (2 Bft)
01.09.2016 08:24 16,1 C 16,1 C 92 % 1020,8 hPa 0,0 mm 6,2 km/h (2 Bft) W-SW 241 0 min 0,000 mm 0,0 UV-I 28 W/m 14,8 C 12,9 km/h (3 Bft)
01.09.2016 08:25 16,1 C 16,1 C 92 % 1020,9 hPa 0,0 mm 7,4 km/h (2 Bft) W-SW 244 0 min 0,000 mm 0,0 UV-I 30 W/m 14,8 C 11,3 km/h (2 Bft)
01.09.2016 08:26 16,1 C 16,1 C 92 % 1020,9 hPa 0,0 mm 2,9 km/h (1 Bft) SW 221 0 min 0,000 mm 0,0 UV-I 30 W/m 14,8 C 4,8 km/h (1 Bft)
01.09.2016 08:27 16,1 C 16,1 C 92 % 1020,8 hPa 0,0 mm 4,8 km/h (1 Bft) W-SW 254 0 min 0,000 mm 0,0 UV-I 26 W/m 14,8 C 6,4 km/h (2 Bft)
01.09.2016 08:28 16,1 C 16,1 C 92 % 1020,8 hPa 0,2 mm 3,1 km/h (1 Bft) W-SW 244 0 min 0,000 mm 0,0 UV-I 25 W/m 14,8 C 4,8 km/h (1 Bft)
01.09.2016 08:29 16,1 C 16,1 C 92 % 1020,8 hPa 0,0 mm 4,8 km/h (1 Bft) W-SW 252 0 min 0,000 mm 0,0 UV-I 23 W/m 14,8 C 6,4 km/h (2 Bft)
01.09.2016 08:30 16,1 C 16,1 C 92 % 1020,9 hPa 0,0 mm 2,1 km/h (1 Bft) W-SW 252 0 min 0,000 mm 0,0 UV-I 19 W/m 14,8 C 3,2 km/h (1 Bft)
01.09.2016 08:31 16,1 C 16,1 C 92 % 1020,9 hPa 0,0 mm 3,2 km/h (1 Bft) W-SW 255 0 min 0,000 mm 0,0 UV-I 19 W/m 14,8 C 4,8 km/h (1 Bft)
01.09.2016 08:32 16,1 C 16,1 C 92 % 1020,9 hPa 0,2 mm 2,3 km/h (1 Bft) W-SW 255 0 min 0,000 mm 0,0 UV-I 19 W/m 14,8 C 3,2 km/h (1 Bft)
01.09.2016 08:33 16,1 C 16,1 C 92 % 1020,9 hPa 0,2 mm 3,1 km/h (1 Bft) SW 232 0 min 0,000 mm 0,0 UV-I 19 W/m 14,8 C 4,8 km/h (1 Bft)
01.09.2016 08:34 16,1 C 16,1 C 92 % 1021,0 hPa 0,2 mm 4,8 km/h (1 Bft) W 275 0 min 0,000 mm 0,0 UV-I 19 W/m 14,8 C 6,4 km/h (2 Bft)
01.09.2016 08:35 16,0 C 16,1 C 92 % 1021,0 hPa 0,2 mm 4,2 km/h (1 Bft) W 271 0 min 0,000 mm 0,0 UV-I 19 W/m 14,7 C 6,4 km/h (2 Bft)
01.09.2016 08:36 16,0 C 16,0 C 92 % 1021,0 hPa 0,4 mm 2,2 km/h (1 Bft) W 271 0 min 0,000 mm 0,0 UV-I 19 W/m 14,7 C 3,2 km/h (1 Bft)
01.09.2016 08:37 15,9 C 16,0 C 93 % 1021,0 hPa 0,2 mm 0,3 km/h (0 Bft) W 271 0 min 0,000 mm 0,0 UV-I 19 W/m 14,8 C 1,6 km/h (1 Bft)
01.09.2016 08:38 15,9 C 15,9 C 93 % 1021,0 hPa 0,2 mm 0,4 km/h (0 Bft) W 270 0 min 0,000 mm 0,0 UV-I 19 W/m 14,8 C 1,6 km/h (1 Bft)
01.09.2016 08:39 15,9 C 15,9 C 93 % 1021,0 hPa 0,4 mm 3,0 km/h (1 Bft) S-SW 211 0 min 0,000 mm 0,0 UV-I 19 W/m 14,8 C 3,2 km/h (1 Bft)
01.09.2016 08:40 15,8 C 15,9 C 93 % 1021,1 hPa 0,4 mm 2,1 km/h (1 Bft) W-SW 257 0 min 0,000 mm 0,0 UV-I 19 W/m 14,7 C 4,8 km/h (1 Bft)
01.09.2016 08:41 15,8 C 15,8 C 93 % 1021,0 hPa 0,4 mm 3,4 km/h (1 Bft) S-SW 193 0 min 0,000 mm 0,0 UV-I 19 W/m 14,7 C 8,0 km/h (2 Bft)
01.09.2016 08:42 15,8 C 15,8 C 93 % 1021,0 hPa 0,8 mm 2,7 km/h (1 Bft) S 179 0 min 0,000 mm 0,0 UV-I 19 W/m 14,7 C 6,4 km/h (2 Bft)
01.09.2016 08:43 15,8 C 15,8 C 93 % 1021,0 hPa 0,2 mm 4,4 km/h (1 Bft) SW 225 0 min 0,000 mm 0,0 UV-I 19 W/m 14,7 C 8,0 km/h (2 Bft)
01.09.2016 08:44 15,8 C 15,8 C 93 % 1021,0 hPa 0,2 mm 2,7 km/h (1 Bft) SW 216 0 min 0,000 mm 0,0 UV-I 21 W/m 14,7 C 6,4 km/h (2 Bft)
01.09.2016 08:45 15,8 C 15,8 C 93 % 1021,0 hPa 0,2 mm 2,5 km/h (1 Bft) S-SW 193 0 min 0,000 mm 0,0 UV-I 23 W/m 14,7 C 4,8 km/h (1 Bft)
01.09.2016 08:46 15,8 C 15,8 C 93 % 1021,0 hPa 0,2 mm 4,4 km/h (1 Bft) S-SW 201 0 min 0,000 mm 0,0 UV-I 25 W/m 14,7 C 9,7 km/h (2 Bft)
01.09.2016 08:47 15,8 C 15,8 C 93 % 1021,0 hPa 0,0 mm 2,7 km/h (1 Bft) S 186 0 min 0,000 mm 0,0 UV-I 26 W/m 14,7 C 4,8 km/h (1 Bft)
01.09.2016 08:48 15,8 C 15,8 C 93 % 1021,0 hPa 0,0 mm 3,0 km/h (1 Bft) S-SW 202 0 min 0,000 mm 0,0 UV-I 28 W/m 14,7 C 4,8 km/h (1 Bft)
01.09.2016 08:49 15,8 C 15,8 C 93 % 1021,0 hPa 0,0 mm 2,7 km/h (1 Bft) W-SW 250 0 min 0,000 mm 0,0 UV-I 30 W/m 14,7 C 4,8 km/h (1 Bft)
01.09.2016 08:50 15,8 C 15,9 C 93 % 1021,0 hPa 0,2 mm 3,2 km/h (1 Bft) W-SW 246 0 min 0,000 mm 0,0 UV-I 33 W/m 14,7 C 6,4 km/h (2 Bft)
01.09.2016 08:51 15,9 C 15,9 C 94 % 1021,0 hPa 0,0 mm 3,1 km/h (1 Bft) S-SW 194 0 min 0,000 mm 0,0 UV-I 35 W/m 14,9 C 6,4 km/h (2 Bft)
01.09.2016 08:52 15,9 C 15,9 C 93 % 1021,0 hPa 0,0 mm 2,1 km/h (1 Bft) SW 228 0 min 0,000 mm 0,0 UV-I 37 W/m 14,8 C 3,2 km/h (1 Bft)
01.09.2016 08:53 15,9 C 15,9 C 94 % 1021,0 hPa 0,0 mm 2,4 km/h (1 Bft) W-SW 244 0 min 0,000 mm 0,0 UV-I 37 W/m 14,9 C 4,8 km/h (1 Bft)
01.09.2016 08:54 15,9 C 15,9 C 94 % 1021,0 hPa 0,0 mm 1,2 km/h (1 Bft) W-SW 244 0 min 0,000 mm 0,0 UV-I 37 W/m 14,9 C 3,2 km/h (1 Bft)
01.09.2016 08:55 15,9 C 15,9 C 93 % 1021,0 hPa 0,0 mm 1,7 km/h (1 Bft) S-SW 193 0 min 0,000 mm 0,0 UV-I 37 W/m 14,8 C 4,8 km/h (1 Bft)
01.09.2016 08:56 15,9 C 15,9 C 94 % 1021,0 hPa 0,0 mm 4,0 km/h (1 Bft) S 180 0 min 0,000 mm 0,0 UV-I 39 W/m 14,9 C 6,4 km/h (2 Bft)
01.09.2016 08:57 15,9 C 15,9 C 93 % 1021,0 hPa 0,0 mm 3,1 km/h (1 Bft) W-SW 254 0 min 0,000 mm 0,0 UV-I 40 W/m 14,8 C 3,2 km/h (1 Bft)
01.09.2016 08:58 15,9 C 16,0 C 93 % 1021,0 hPa 0,2 mm 2,9 km/h (1 Bft) SW 230 0 min 0,000 mm 0,0 UV-I 42 W/m 14,8 C 4,8 km/h (1 Bft)
01.09.2016 08:59 15,9 C 15,9 C 93 % 1021,1 hPa 0,0 mm 1,8 km/h (1 Bft) W-SW 248 0 min 0,000 mm 0,0 UV-I 42 W/m 14,8 C 3,2 km/h (1 Bft)
01.09.2016 09:00 15,9 C 15,9 C 93 % 1021,1 hPa 0,0 mm 2,3 km/h (1 Bft) W-SW 248 0 min 0,000 mm 0,0 UV-I 44 W/m 14,8 C 3,2 km/h (1 Bft)
01.09.2016 09:01 15,9 C 15,9 C 93 % 1021,1 hPa 0,2 mm 0,1 km/h (0 Bft) W-SW 249 0 min 0,025 mm 0,0 UV-I 47 W/m 14,8 C 1,6 km/h (1 Bft)
01.09.2016 09:02 15,9 C 16,0 C 93 % 1021,1 hPa 0,0 mm 4,2 km/h (1 Bft) S-SW 200 0 min 0,000 mm 0,0 UV-I 51 W/m 14,8 C 4,8 km/h (1 Bft)
01.09.2016 09:03 16,0 C 16,0 C 93 % 1021,1 hPa 0,0 mm 2,0 km/h (1 Bft) S-SW 205 0 min 0,000 mm 0,0 UV-I 54 W/m 14,9 C 3,2 km/h (1 Bft)
01.09.2016 09:04 16,0 C 16,0 C 93 % 1021,2 hPa 0,0 mm 2,2 km/h (1 Bft) SW 223 0 min 0,000 mm 0,5 UV-I 56 W/m 14,9 C 3,2 km/h (1 Bft)
01.09.2016 09:05 16,0 C 16,0 C 94 % 1021,2 hPa 0,0 mm 2,8 km/h (1 Bft) SW 219 0 min 0,000 mm 0,5 UV-I 58 W/m 15,0 C 4,8 km/h (1 Bft)
01.09.2016 09:06 16,0 C 16,0 C 94 % 1021,1 hPa 0,2 mm 2,0 km/h (1 Bft) S-SW 203 0 min 0,000 mm 0,5 UV-I 60 W/m 15,0 C 4,8 km/h (1 Bft)
01.09.2016 09:07 16,0 C 16,0 C 94 % 1021,2 hPa 0,0 mm 0,7 km/h (0 Bft) SW 219 0 min 0,000 mm 0,5 UV-I 62 W/m 15,0 C 1,6 km/h (1 Bft)
01.09.2016 09:08 16,0 C 16,0 C 93 % 1021,2 hPa 0,0 mm 4,1 km/h (1 Bft) W-SW 258 0 min 0,000 mm 0,5 UV-I 63 W/m 14,9 C 6,4 km/h (2 Bft)
01.09.2016 09:09 16,0 C 16,0 C 93 % 1021,2 hPa 0,0 mm 2,1 km/h (1 Bft) S-SW 208 0 min 0,000 mm 0,5 UV-I 63 W/m 14,9 C 4,8 km/h (1 Bft)
01.09.2016 09:10 15,9 C 16,0 C 93 % 1021,2 hPa 0,0 mm 2,3 km/h (1 Bft) S-SW 192 0 min 0,000 mm 0,5 UV-I 63 W/m 14,8 C 6,4 km/h (2 Bft)
01.09.2016 09:11 16,0 C 16,0 C 94 % 1021,2 hPa 0,0 mm 0,9 km/h (0 Bft) S-SW 193 0 min 0,000 mm 0,5 UV-I 62 W/m 15,0 C 3,2 km/h (1 Bft)
01.09.2016 09:12 15,9 C 16,0 C 94 % 1021,3 hPa 0,0 mm 1,4 km/h (1 Bft) S-SW 199 0 min 0,000 mm 0,5 UV-I 60 W/m 14,9 C 3,2 km/h (1 Bft)
01.09.2016 09:13 15,9 C 16,0 C 94 % 1021,3 hPa 0,0 mm 1,6 km/h (1 Bft) S-SW 199 0 min 0,000 mm 0,5 UV-I 54 W/m 14,9 C 3,2 km/h (1 Bft)
01.09.2016 09:14 15,9 C 16,0 C 94 % 1021,3 hPa 0,0 mm 1,4 km/h (1 Bft) S-SW 199 0 min 0,000 mm 0,0 UV-I 53 W/m 14,9 C 1,6 km/h (1 Bft)
01.09.2016 09:15 16,0 C 16,0 C 94 % 1021,3 hPa 0,0 mm 2,1 km/h (1 Bft) S-SW 209 0 min 0,000 mm 0,0 UV-I 51 W/m 15,0 C 3,2 km/h (1 Bft)
01.09.2016 09:16 16,0 C 16,0 C 94 % 1021,3 hPa 0,0 mm 2,6 km/h (1 Bft) SW 217 0 min 0,000 mm 0,0 UV-I 49 W/m 15,0 C 4,8 km/h (1 Bft)
01.09.2016 09:17 16,0 C 16,0 C 95 % 1021,3 hPa 0,0 mm 1,3 km/h (1 Bft) S-SW 213 0 min 0,000 mm 0,0 UV-I 49 W/m 15,2 C 1,6 km/h (1 Bft)
01.09.2016 09:18 16,0 C 16,0 C 95 % 1021,3 hPa 0,0 mm 0,4 km/h (0 Bft) S-SW 213 0 min 0,000 mm 0,0 UV-I 47 W/m 15,2 C 1,6 km/h (1 Bft)
01.09.2016 09:19 16,0 C 16,0 C 94 % 1021,2 hPa 0,0 mm 2,0 km/h (1 Bft) W-SW 240 0 min 0,000 mm 0,0 UV-I 46 W/m 15,0 C 3,2 km/h (1 Bft)
01.09.2016 09:20 15,9 C 16,0 C 94 % 1021,2 hPa 0,0 mm 2,6 km/h (1 Bft) SW 214 0 min 0,000 mm 0,0 UV-I 46 W/m 14,9 C 3,2 km/h (1 Bft)
01.09.2016 09:21 15,9 C 16,0 C 94 % 1021,2 hPa 0,0 mm 1,8 km/h (1 Bft) SO 124 0 min 0,000 mm 0,0 UV-I 44 W/m 14,9 C 3,2 km/h (1 Bft)
01.09.2016 09:22 15,9 C 15,9 C 94 % 1021,2 hPa 0,0 mm 0,5 km/h (0 Bft) SO 124 0 min 0,000 mm 0,0 UV-I 44 W/m 14,9 C 1,6 km/h (1 Bft)
01.09.2016 09:23 15,9 C 15,9 C 94 % 1021,2 hPa 0,0 mm 0,3 km/h (0 Bft) SO 124 0 min 0,000 mm 0,0 UV-I 44 W/m 14,9 C 1,6 km/h (1 Bft)
01.09.2016 09:24 15,9 C 15,9 C 94 % 1021,2 hPa 0,0 mm 0,0 km/h (0 Bft) SO 124 0 min 0,000 mm 0,0 UV-I 46 W/m 14,9 C 0,0 km/h (0 Bft)
01.09.2016 09:25 15,9 C 15,9 C 94 % 1021,2 hPa 0,0 mm 0,3 km/h (0 Bft) SO 124 0 min 0,000 mm 0,0 UV-I 46 W/m 14,9 C 1,6 km/h (1 Bft)
01.09.2016 09:26 15,9 C 15,9 C 95 % 1021,2 hPa 0,0 mm 1,9 km/h (1 Bft) W 259 0 min 0,000 mm 0,0 UV-I 46 W/m 15,1 C 6,4 km/h (2 Bft)
01.09.2016 09:27 15,9 C 15,9 C 94 % 1021,2 hPa 0,0 mm 0,9 km/h (0 Bft) S 176 0 min 0,000 mm 0,0 UV-I 46 W/m 14,9 C 1,6 km/h (1 Bft)
01.09.2016 09:28 15,9 C 15,9 C 94 % 1021,2 hPa 0,0 mm 2,2 km/h (1 Bft) SW 233 0 min 0,000 mm 0,0 UV-I 46 W/m 14,9 C 3,2 km/h (1 Bft)
01.09.2016 09:29 15,9 C 15,9 C 94 % 1021,3 hPa 0,0 mm 2,5 km/h (1 Bft) W-SW 255 0 min 0,000 mm 0,0 UV-I 46 W/m 14,9 C 6,4 km/h (2 Bft)
01.09.2016 09:30 16,0 C 16,0 C 94 % 1021,3 hPa 0,0 mm 3,0 km/h (1 Bft) W-SW 250 0 min 0,000 mm 0,0 UV-I 46 W/m 15,0 C 4,8 km/h (1 Bft)
01.09.2016 09:31 16,0 C 16,0 C 94 % 1021,3 hPa 0,0 mm 2,6 km/h (1 Bft) W-SW 249 0 min 0,000 mm 0,0 UV-I 44 W/m 15,0 C 4,8 km/h (1 Bft)
01.09.2016 09:32 16,0 C 16,0 C 94 % 1021,3 hPa 0,0 mm 0,9 km/h (0 Bft) W-SW 249 0 min 0,000 mm 0,0 UV-I 44 W/m 15,0 C 1,6 km/h (1 Bft)
01.09.2016 09:33 16,0 C 16,0 C 94 % 1021,3 hPa 0,0 mm 0,5 km/h (0 Bft) W-SW 249 0 min 0,000 mm 0,0 UV-I 42 W/m 15,0 C 1,6 km/h (1 Bft)
01.09.2016 09:34 16,0 C 16,0 C 94 % 1021,3 hPa 0,0 mm 0,5 km/h (0 Bft) W-SW 249 0 min 0,000 mm 0,0 UV-I 42 W/m 15,0 C 1,6 km/h (1 Bft)
01.09.2016 09:35 15,9 C 16,0 C 94 % 1021,3 hPa 0,0 mm 0,6 km/h (0 Bft) W-SW 249 0 min 0,000 mm 0,0 UV-I 40 W/m 14,9 C 1,6 km/h (1 Bft)
01.09.2016 09:36 15,9 C 15,9 C 94 % 1021,3 hPa 0,0 mm 2,3 km/h (1 Bft) W-SW 244 0 min 0,000 mm 0,0 UV-I 40 W/m 14,9 C 4,8 km/h (1 Bft)
01.09.2016 09:37 16,0 C 16,0 C 94 % 1021,4 hPa 0,0 mm 2,3 km/h (1 Bft) W-SW 245 0 min 0,000 mm 0,0 UV-I 39 W/m 15,0 C 3,2 km/h (1 Bft)
01.09.2016 09:38 16,0 C 16,0 C 94 % 1021,4 hPa 0,0 mm 1,4 km/h (1 Bft) W 268 0 min 0,000 mm 0,0 UV-I 39 W/m 15,0 C 3,2 km/h (1 Bft)
01.09.2016 09:39 16,0 C 16,0 C 94 % 1021,4 hPa 0,0 mm 2,9 km/h (1 Bft) W-SW 255 0 min 0,000 mm 0,0 UV-I 39 W/m 15,0 C 4,8 km/h (1 Bft)
01.09.2016 09:40 16,1 C 16,1 C 94 % 1021,4 hPa 0,0 mm 3,2 km/h (1 Bft) SW 236 0 min 0,000 mm 0,0 UV-I 39 W/m 15,1 C 4,8 km/h (1 Bft)
01.09.2016 09:41 16,1 C 16,1 C 94 % 1021,4 hPa 0,0 mm 1,5 km/h (1 Bft) SW 236 0 min 0,000 mm 0,0 UV-I 40 W/m 15,1 C 3,2 km/h (1 Bft)
01.09.2016 09:42 16,1 C 16,1 C 94 % 1021,4 hPa 0,0 mm 1,3 km/h (1 Bft) W-SW 245 0 min 0,000 mm 0,0 UV-I 40 W/m 15,1 C 3,2 km/h (1 Bft)
01.09.2016 09:43 16,1 C 16,1 C 94 % 1021,4 hPa 0,0 mm 1,8 km/h (1 Bft) W-SW 246 0 min 0,000 mm 0,0 UV-I 42 W/m 15,1 C 3,2 km/h (1 Bft)
01.09.2016 09:44 16,1 C 16,1 C 95 % 1021,5 hPa 0,0 mm 2,4 km/h (1 Bft) W-SW 253 0 min 0,000 mm 0,0 UV-I 44 W/m 15,3 C 3,2 km/h (1 Bft)
01.09.2016 09:45 16,1 C 16,1 C 94 % 1021,5 hPa 0,0 mm 2,6 km/h (1 Bft) W 259 0 min 0,000 mm 0,0 UV-I 47 W/m 15,1 C 4,8 km/h (1 Bft)
01.09.2016 09:46 16,1 C 16,1 C 94 % 1021,4 hPa 0,0 mm 1,3 km/h (1 Bft) SW 227 0 min 0,000 mm 0,0 UV-I 49 W/m 15,1 C 3,2 km/h (1 Bft)
01.09.2016 09:47 16,1 C 16,1 C 94 % 1021,5 hPa 0,0 mm 1,7 km/h (1 Bft) SW 236 0 min 0,000 mm 0,0 UV-I 53 W/m 15,1 C 4,8 km/h (1 Bft)
01.09.2016 09:48 16,1 C 16,1 C 95 % 1021,4 hPa 0,0 mm 1,9 km/h (1 Bft) SW 236 0 min 0,000 mm 0,5 UV-I 60 W/m 15,3 C 3,2 km/h (1 Bft)
01.09.2016 09:49 16,1 C 16,1 C 95 % 1021,5 hPa 0,0 mm 0,5 km/h (0 Bft) SW 236 0 min 0,000 mm 0,5 UV-I 63 W/m 15,3 C 1,6 km/h (1 Bft)
01.09.2016 09:50 16,1 C 16,1 C 95 % 1021,5 hPa 0,0 mm 0,2 km/h (0 Bft) SW 236 0 min 0,000 mm 0,6 UV-I 67 W/m 15,3 C 1,6 km/h (1 Bft)
01.09.2016 09:51 16,0 C 16,1 C 95 % 1021,5 hPa 0,0 mm 0,3 km/h (0 Bft) SW 236 0 min 0,000 mm 0,6 UV-I 72 W/m 15,2 C 1,6 km/h (1 Bft)
01.09.2016 09:52 16,0 C 16,0 C 95 % 1021,4 hPa 0,0 mm 0,7 km/h (0 Bft) SW 236 0 min 0,000 mm 0,7 UV-I 77 W/m 15,2 C 1,6 km/h (1 Bft)
01.09.2016 09:53 16,0 C 16,0 C 94 % 1021,5 hPa 0,0 mm 0,8 km/h (0 Bft) SW 225 0 min 0,000 mm 0,7 UV-I 83 W/m 15,0 C 1,6 km/h (1 Bft)
01.09.2016 09:54 16,0 C 16,0 C 95 % 1021,5 hPa 0,0 mm 0,6 km/h (0 Bft) SW 225 0 min 0,000 mm 0,8 UV-I 95 W/m 15,2 C 1,6 km/h (1 Bft)
01.09.2016 09:55 16,0 C 16,0 C 95 % 1021,5 hPa 0,0 mm 0,8 km/h (0 Bft) SW 225 0 min 0,000 mm 0,8 UV-I 102 W/m 15,2 C 1,6 km/h (1 Bft)
01.09.2016 09:56 16,0 C 16,0 C 95 % 1021,5 hPa 0,0 mm 2,4 km/h (1 Bft) W 259 0 min 0,000 mm 1,0 UV-I 111 W/m 15,2 C 4,8 km/h (1 Bft)
01.09.2016 09:57 16,1 C 16,1 C 95 % 1021,5 hPa 0,2 mm 2,3 km/h (1 Bft) W 265 0 min 0,000 mm 1,0 UV-I 118 W/m 15,3 C 4,8 km/h (1 Bft)
01.09.2016 09:58 16,1 C 16,1 C 95 % 1021,5 hPa 0,0 mm 2,3 km/h (1 Bft) W 268 0 min 0,000 mm 1,1 UV-I 123 W/m 15,3 C 3,2 km/h (1 Bft)
01.09.2016 09:59 16,2 C 16,2 C 95 % 1021,5 hPa 0,0 mm 2,0 km/h (1 Bft) SW 234 0 min 0,000 mm 1,1 UV-I 127 W/m 15,4 C 3,2 km/h (1 Bft)
01.09.2016 10:00 16,3 C 16,3 C 95 % 1021,5 hPa 0,0 mm 1,5 km/h (1 Bft) S-SW 200 0 min 0,000 mm 1,2 UV-I 135 W/m 15,5 C 3,2 km/h (1 Bft)
01.09.2016 10:01 16,2 C 16,3 C 95 % 1021,5 hPa 0,0 mm 0,1 km/h (0 Bft) S-SW 200 0 min 0,025 mm 1,2 UV-I 139 W/m 15,4 C 1,6 km/h (1 Bft)
01.09.2016 10:02 16,3 C 16,3 C 95 % 1021,5 hPa 0,0 mm 0,0 km/h (0 Bft) S-SW 200 0 min 0,001 mm 1,3 UV-I 142 W/m 15,5 C 0,0 km/h (0 Bft)
01.09.2016 10:03 16,3 C 16,3 C 95 % 1021,5 hPa 0,0 mm 0,6 km/h (0 Bft) S-SW 200 0 min 0,000 mm 1,3 UV-I 144 W/m 15,5 C 1,6 km/h (1 Bft)
01.09.2016 10:04 16,2 C 16,3 C 95 % 1021,5 hPa 0,0 mm 0,1 km/h (0 Bft) S-SW 200 0 min 0,000 mm 1,3 UV-I 148 W/m 15,4 C 1,6 km/h (1 Bft)
01.09.2016 10:05 16,2 C 16,2 C 95 % 1021,5 hPa 0,0 mm 0,0 km/h (0 Bft) S-SW 200 0 min 0,000 mm 1,4 UV-I 149 W/m 15,4 C 0,0 km/h (0 Bft)
01.09.2016 10:06 16,2 C 16,2 C 95 % 1021,5 hPa 0,0 mm 0,0 km/h (0 Bft) S-SW 200 0 min 0,000 mm 1,4 UV-I 155 W/m 15,4 C 0,0 km/h (0 Bft)
01.09.2016 10:07 16,3 C 16,3 C 95 % 1021,5 hPa 0,0 mm 0,5 km/h (0 Bft) S-SW 201 0 min 0,000 mm 1,5 UV-I 160 W/m 15,5 C 1,6 km/h (1 Bft)
01.09.2016 10:08 16,3 C 16,3 C 95 % 1021,5 hPa 0,0 mm 0,3 km/h (0 Bft) S-SW 201 0 min 0,000 mm 1,5 UV-I 163 W/m 15,5 C 1,6 km/h (1 Bft)
01.09.2016 10:09 16,4 C 16,4 C 95 % 1021,5 hPa 0,0 mm 1,1 km/h (1 Bft) SO 136 0 min 0,000 mm 1,5 UV-I 165 W/m 15,6 C 3,2 km/h (1 Bft)
01.09.2016 10:10 16,5 C 16,5 C 95 % 1021,5 hPa 0,0 mm 2,0 km/h (1 Bft) O 86 0 min 0,000 mm 1,5 UV-I 167 W/m 15,7 C 4,8 km/h (1 Bft)
01.09.2016 10:11 16,5 C 16,5 C 95 % 1021,5 hPa 0,0 mm 1,3 km/h (1 Bft) O 92 0 min 0,000 mm 1,5 UV-I 167 W/m 15,7 C 3,2 km/h (1 Bft)
01.09.2016 10:12 16,5 C 16,5 C 95 % 1021,5 hPa 0,0 mm 2,5 km/h (1 Bft) O-SO 116 0 min 0,000 mm 1,5 UV-I 165 W/m 15,7 C 3,2 km/h (1 Bft)
01.09.2016 10:13 16,5 C 16,5 C 95 % 1021,5 hPa 0,0 mm 2,1 km/h (1 Bft) S 171 0 min 0,000 mm 1,4 UV-I 162 W/m 15,7 C 6,4 km/h (2 Bft)
01.09.2016 10:14 16,6 C 16,6 C 95 % 1021,5 hPa 0,0 mm 0,8 km/h (0 Bft) S 171 0 min 0,000 mm 1,4 UV-I 162 W/m 15,8 C 1,6 km/h (1 Bft)
01.09.2016 10:15 16,6 C 16,6 C 95 % 1021,5 hPa 0,0 mm 0,6 km/h (0 Bft) S 171 0 min 0,000 mm 1,4 UV-I 162 W/m 15,8 C 1,6 km/h (1 Bft)
01.09.2016 10:16 16,6 C 16,6 C 95 % 1021,5 hPa 0,0 mm 1,3 km/h (1 Bft) W-SW 245 0 min 0,000 mm 1,3 UV-I 162 W/m 15,8 C 3,2 km/h (1 Bft)
01.09.2016 10:17 16,6 C 16,6 C 95 % 1021,6 hPa 0,0 mm 3,2 km/h (1 Bft) W 279 0 min 0,000 mm 1,3 UV-I 176 W/m 15,8 C 4,8 km/h (1 Bft)
01.09.2016 10:18 16,6 C 16,7 C 95 % 1021,5 hPa 0,0 mm 2,3 km/h (1 Bft) W 281 0 min 0,000 mm 1,2 UV-I 142 W/m 15,8 C 4,8 km/h (1 Bft)
01.09.2016 10:19 16,7 C 16,7 C 95 % 1021,5 hPa 0,0 mm 1,5 km/h (1 Bft) W 281 0 min 0,000 mm 1,1 UV-I 134 W/m 15,9 C 3,2 km/h (1 Bft)
01.09.2016 10:20 16,8 C 16,8 C 95 % 1021,6 hPa 0,0 mm 2,0 km/h (1 Bft) SW 219 0 min 0,000 mm 1,0 UV-I 125 W/m 16,0 C 4,8 km/h (1 Bft)
01.09.2016 10:21 16,8 C 16,8 C 95 % 1021,6 hPa 0,0 mm 3,0 km/h (1 Bft) W-SW 256 0 min 0,000 mm 0,9 UV-I 125 W/m 16,0 C 4,8 km/h (1 Bft)
01.09.2016 10:22 16,8 C 16,8 C 94 % 1021,5 hPa 0,0 mm 1,3 km/h (1 Bft) W-SW 256 0 min 0,000 mm 0,9 UV-I 111 W/m 15,8 C 3,2 km/h (1 Bft)
01.09.2016 10:23 16,8 C 16,8 C 94 % 1021,5 hPa 0,0 mm 0,5 km/h (0 Bft) W-SW 256 0 min 0,000 mm 0,8 UV-I 104 W/m 15,8 C 1,6 km/h (1 Bft)
01.09.2016 10:24 16,8 C 16,8 C 94 % 1021,6 hPa 0,0 mm 2,1 km/h (1 Bft) W 263 0 min 0,000 mm 0,8 UV-I 95 W/m 15,8 C 4,8 km/h (1 Bft)
01.09.2016 10:25 16,8 C 16,8 C 94 % 1021,6 hPa 0,0 mm 0,7 km/h (0 Bft) W 262 0 min 0,000 mm 0,7 UV-I 91 W/m 15,8 C 3,2 km/h (1 Bft)
01.09.2016 10:26 16,7 C 16,8 C 94 % 1021,6 hPa 0,0 mm 1,0 km/h (0 Bft) W 262 0 min 0,000 mm 0,7 UV-I 86 W/m 15,7 C 3,2 km/h (1 Bft)
01.09.2016 10:27 16,6 C 16,7 C 94 % 1021,5 hPa 0,0 mm 1,3 km/h (1 Bft) W 262 0 min 0,000 mm 0,7 UV-I 83 W/m 15,6 C 3,2 km/h (1 Bft)
01.09.2016 10:28 16,6 C 16,6 C 94 % 1021,6 hPa 0,0 mm 0,8 km/h (0 Bft) W 262 0 min 0,000 mm 0,6 UV-I 79 W/m 15,6 C 1,6 km/h (1 Bft)
01.09.2016 10:29 16,6 C 16,7 C 94 % 1021,6 hPa 0,0 mm 0,6 km/h (0 Bft) W 262 0 min 0,000 mm 0,6 UV-I 74 W/m 15,6 C 1,6 km/h (1 Bft)
01.09.2016 10:30 16,6 C 16,6 C 94 % 1021,6 hPa 0,0 mm 1,1 km/h (1 Bft) W 262 0 min 0,000 mm 0,6 UV-I 72 W/m 15,6 C 3,2 km/h (1 Bft)
01.09.2016 10:31 16,5 C 16,6 C 94 % 1021,6 hPa 0,0 mm 0,5 km/h (0 Bft) W 262 0 min 0,000 mm 0,6 UV-I 72 W/m 15,5 C 1,6 km/h (1 Bft)
01.09.2016 10:32 16,4 C 16,5 C 94 % 1021,6 hPa 0,0 mm 0,1 km/h (0 Bft) W 262 0 min 0,000 mm 0,6 UV-I 72 W/m 15,4 C 1,6 km/h (1 Bft)
01.09.2016 10:33 16,4 C 16,4 C 94 % 1021,6 hPa 0,0 mm 0,0 km/h (0 Bft) W 262 0 min 0,000 mm 0,6 UV-I 69 W/m 15,4 C 0,0 km/h (0 Bft)
01.09.2016 10:34 16,4 C 16,4 C 95 % 1021,6 hPa 0,0 mm 0,2 km/h (0 Bft) W 262 0 min 0,000 mm 0,6 UV-I 69 W/m 15,6 C 1,6 km/h (1 Bft)
01.09.2016 10:35 16,4 C 16,4 C 95 % 1021,6 hPa 0,0 mm 0,6 km/h (0 Bft) W 262 0 min 0,000 mm 0,6 UV-I 67 W/m 15,6 C 1,6 km/h (1 Bft)
01.09.2016 10:36 16,4 C 16,4 C 95 % 1021,6 hPa 0,0 mm 1,0 km/h (0 Bft) W 262 0 min 0,000 mm 0,6 UV-I 67 W/m 15,6 C 1,6 km/h (1 Bft)
01.09.2016 10:37 16,4 C 16,4 C 95 % 1021,6 hPa 0,0 mm 0,7 km/h (0 Bft) W 262 0 min 0,000 mm 0,6 UV-I 69 W/m 15,6 C 1,6 km/h (1 Bft)
01.09.2016 10:38 16,4 C 16,4 C 95 % 1021,6 hPa 0,0 mm 0,0 km/h (0 Bft) W 262 0 min 0,000 mm 0,6 UV-I 69 W/m 15,6 C 0,0 km/h (0 Bft)
01.09.2016 10:39 16,4 C 16,4 C 95 % 1021,6 hPa 0,0 mm 0,0 km/h (0 Bft) W 262 0 min 0,000 mm 0,6 UV-I 72 W/m 15,6 C 0,0 km/h (0 Bft)
01.09.2016 10:40 16,4 C 16,4 C 95 % 1021,6 hPa 0,0 mm 0,0 km/h (0 Bft) W 262 0 min 0,000 mm 0,6 UV-I 74 W/m 15,6 C 0,0 km/h (0 Bft)
01.09.2016 10:41 16,4 C 16,4 C 95 % 1021,6 hPa 0,0 mm 0,1 km/h (0 Bft) W 262 0 min 0,000 mm 0,6 UV-I 77 W/m 15,6 C 1,6 km/h (1 Bft)
01.09.2016 10:42 16,4 C 16,4 C 95 % 1021,7 hPa 0,0 mm 0,1 km/h (0 Bft) W 262 0 min 0,000 mm 0,6 UV-I 77 W/m 15,6 C 1,6 km/h (1 Bft)
01.09.2016 10:43 16,4 C 16,4 C 95 % 1021,7 hPa 0,0 mm 0,3 km/h (0 Bft) W 262 0 min 0,000 mm 0,7 UV-I 77 W/m 15,6 C 1,6 km/h (1 Bft)
01.09.2016 10:44 16,4 C 16,4 C 95 % 1021,7 hPa 0,0 mm 0,1 km/h (0 Bft) W 262 0 min 0,000 mm 0,7 UV-I 79 W/m 15,6 C 1,6 km/h (1 Bft)
01.09.2016 10:45 16,5 C 16,5 C 95 % 1021,6 hPa 0,0 mm 0,0 km/h (0 Bft) W 262 0 min 0,000 mm 0,7 UV-I 79 W/m 15,7 C 0,0 km/h (0 Bft)
01.09.2016 10:46 16,5 C 16,6 C 95 % 1021,7 hPa 0,0 mm 0,1 km/h (0 Bft) W 262 0 min 0,000 mm 0,7 UV-I 79 W/m 15,7 C 1,6 km/h (1 Bft)
01.09.2016 10:47 16,6 C 16,6 C 95 % 1021,7 hPa 0,0 mm 0,3 km/h (0 Bft) W 262 0 min 0,000 mm 0,7 UV-I 81 W/m 15,8 C 1,6 km/h (1 Bft)
01.09.2016 10:48 16,5 C 16,6 C 95 % 1021,8 hPa 0,0 mm 0,4 km/h (0 Bft) W 262 0 min 0,000 mm 0,7 UV-I 81 W/m 15,7 C 1,6 km/h (1 Bft)
01.09.2016 10:49 16,5 C 16,5 C 95 % 1021,8 hPa 0,0 mm 0,0 km/h (0 Bft) W 262 0 min 0,000 mm 0,7 UV-I 81 W/m 15,7 C 0,0 km/h (0 Bft)
01.09.2016 10:50 16,5 C 16,5 C 95 % 1021,7 hPa 0,0 mm 0,2 km/h (0 Bft) W 262 0 min 0,000 mm 0,7 UV-I 81 W/m 15,7 C 1,6 km/h (1 Bft)
01.09.2016 10:51 16,6 C 16,6 C 95 % 1021,7 hPa 0,0 mm 1,0 km/h (0 Bft) W 262 0 min 0,000 mm 0,7 UV-I 81 W/m 15,8 C 3,2 km/h (1 Bft)
01.09.2016 10:52 16,6 C 16,6 C 95 % 1021,7 hPa 0,0 mm 0,0 km/h (0 Bft) W 262 0 min 0,000 mm 0,7 UV-I 88 W/m 15,8 C 0,0 km/h (0 Bft)
01.09.2016 10:53 16,6 C 16,6 C 95 % 1021,7 hPa 0,0 mm 0,3 km/h (0 Bft) W 262 0 min 0,000 mm 0,7 UV-I 93 W/m 15,8 C 1,6 km/h (1 Bft)
01.09.2016 10:54 16,6 C 16,6 C 95 % 1021,7 hPa 0,0 mm 0,3 km/h (0 Bft) W 262 0 min 0,000 mm 0,8 UV-I 97 W/m 15,8 C 1,6 km/h (1 Bft)
01.09.2016 10:55 16,6 C 16,6 C 95 % 1021,7 hPa 0,0 mm 0,4 km/h (0 Bft) W 262 0 min 0,000 mm 0,8 UV-I 98 W/m 15,8 C 1,6 km/h (1 Bft)
01.09.2016 10:56 16,7 C 16,7 C 95 % 1021,7 hPa 0,0 mm 0,2 km/h (0 Bft) W 262 0 min 0,000 mm 0,8 UV-I 98 W/m 15,9 C 1,6 km/h (1 Bft)
01.09.2016 10:57 16,7 C 16,7 C 95 % 1021,7 hPa 0,0 mm 0,1 km/h (0 Bft) W 262 0 min 0,000 mm 0,8 UV-I 100 W/m 15,9 C 1,6 km/h (1 Bft)
01.09.2016 10:58 16,7 C 16,7 C 95 % 1021,7 hPa 0,0 mm 0,1 km/h (0 Bft) W 262 0 min 0,000 mm 0,8 UV-I 102 W/m 15,9 C 1,6 km/h (1 Bft)
01.09.2016 10:59 16,6 C 16,7 C 95 % 1021,7 hPa 0,0 mm 0,3 km/h (0 Bft) W 262 0 min 0,000 mm 0,9 UV-I 105 W/m 15,8 C 1,6 km/h (1 Bft)
01.09.2016 11:00 16,7 C 16,7 C 94 % 1021,7 hPa 0,0 mm 0,0 km/h (0 Bft) W 262 0 min 0,000 mm 0,9 UV-I 109 W/m 15,7 C 0,0 km/h (0 Bft)
01.09.2016 11:01 16,7 C 16,7 C 95 % 1021,7 hPa 0,0 mm 0,0 km/h (0 Bft) W 262 0 min 0,051 mm 0,9 UV-I 113 W/m 15,9 C 0,0 km/h (0 Bft)
01.09.2016 11:02 16,7 C 16,7 C 94 % 1021,7 hPa 0,0 mm 0,1 km/h (0 Bft) W 262 0 min 0,000 mm 1,0 UV-I 116 W/m 15,7 C 1,6 km/h (1 Bft)
01.09.2016 11:03 16,7 C 16,7 C 94 % 1021,7 hPa 0,0 mm 0,0 km/h (0 Bft) W 262 0 min 0,000 mm 1,0 UV-I 120 W/m 15,7 C 0,0 km/h (0 Bft)
01.09.2016 11:04 16,7 C 16,7 C 95 % 1021,7 hPa 0,0 mm 0,1 km/h (0 Bft) W 262 0 min 0,000 mm 1,0 UV-I 125 W/m 15,9 C 1,6 km/h (1 Bft)
01.09.2016 11:05 16,7 C 16,7 C 94 % 1021,7 hPa 0,0 mm 0,1 km/h (0 Bft) W 262 0 min 0,000 mm 1,0 UV-I 127 W/m 15,7 C 1,6 km/h (1 Bft)
01.09.2016 11:06 16,8 C 16,8 C 95 % 1021,7 hPa 0,0 mm 0,1 km/h (0 Bft) W 262 0 min 0,000 mm 1,0 UV-I 127 W/m 16,0 C 1,6 km/h (1 Bft)
01.09.2016 11:07 16,8 C 16,8 C 95 % 1021,7 hPa 0,0 mm 0,0 km/h (0 Bft) W 262 0 min 0,000 mm 1,1 UV-I 127 W/m 16,0 C 0,0 km/h (0 Bft)
01.09.2016 11:08 16,8 C 16,8 C 95 % 1021,7 hPa 0,0 mm 1,2 km/h (1 Bft) W 267 0 min 0,000 mm 1,1 UV-I 127 W/m 16,0 C 3,2 km/h (1 Bft)
01.09.2016 11:09 16,8 C 16,8 C 94 % 1021,7 hPa 0,0 mm 1,9 km/h (1 Bft) W 267 0 min 0,000 mm 1,1 UV-I 127 W/m 15,8 C 3,2 km/h (1 Bft)
01.09.2016 11:10 16,9 C 16,9 C 94 % 1021,7 hPa 0,0 mm 1,7 km/h (1 Bft) W 268 0 min 0,000 mm 1,1 UV-I 127 W/m 15,9 C 4,8 km/h (1 Bft)
01.09.2016 11:11 16,9 C 16,9 C 94 % 1021,7 hPa 0,0 mm 2,0 km/h (1 Bft) W 268 0 min 0,000 mm 1,1 UV-I 127 W/m 15,9 C 3,2 km/h (1 Bft)
01.09.2016 11:12 16,9 C 17,0 C 94 % 1021,7 hPa 0,0 mm 1,3 km/h (1 Bft) W 268 0 min 0,000 mm 1,1 UV-I 130 W/m 15,9 C 1,6 km/h (1 Bft)
01.09.2016 11:13 17,0 C 17,0 C 94 % 1021,7 hPa 0,0 mm 0,6 km/h (0 Bft) W 267 0 min 0,000 mm 1,1 UV-I 132 W/m 16,0 C 1,6 km/h (1 Bft)
01.09.2016 11:14 17,1 C 17,1 C 94 % 1021,7 hPa 0,0 mm 0,3 km/h (0 Bft) W 267 0 min 0,000 mm 1,2 UV-I 135 W/m 16,1 C 1,6 km/h (1 Bft)
01.09.2016 11:15 17,1 C 17,1 C 94 % 1021,7 hPa 0,0 mm 0,4 km/h (0 Bft) W 265 0 min 0,000 mm 1,2 UV-I 141 W/m 16,1 C 1,6 km/h (1 Bft)
01.09.2016 11:16 17,1 C 17,1 C 94 % 1021,7 hPa 0,0 mm 0,0 km/h (0 Bft) W 265 0 min 0,000 mm 1,3 UV-I 148 W/m 16,1 C 0,0 km/h (0 Bft)
01.09.2016 11:17 17,1 C 17,2 C 95 % 1021,7 hPa 0,0 mm 0,3 km/h (0 Bft) W 265 0 min 0,000 mm 1,4 UV-I 163 W/m 16,3 C 1,6 km/h (1 Bft)
01.09.2016 11:18 17,2 C 17,2 C 94 % 1021,7 hPa 0,0 mm 0,6 km/h (0 Bft) W 265 0 min 0,000 mm 1,5 UV-I 174 W/m 16,2 C 1,6 km/h (1 Bft)
01.09.2016 11:19 17,3 C 17,3 C 93 % 1021,7 hPa 0,0 mm 0,9 km/h (0 Bft) W 265 0 min 0,000 mm 1,6 UV-I 186 W/m 16,2 C 1,6 km/h (1 Bft)
01.09.2016 11:20 17,3 C 17,3 C 93 % 1021,7 hPa 0,0 mm 1,5 km/h (1 Bft) W 265 0 min 0,000 mm 1,7 UV-I 199 W/m 16,2 C 3,2 km/h (1 Bft)
01.09.2016 11:21 17,4 C 17,4 C 93 % 1021,7 hPa 0,0 mm 0,6 km/h (0 Bft) W 265 0 min 0,000 mm 1,7 UV-I 209 W/m 16,3 C 3,2 km/h (1 Bft)
01.09.2016 11:22 17,5 C 17,5 C 93 % 1021,7 hPa 0,0 mm 0,7 km/h (0 Bft) W 265 0 min 0,000 mm 1,9 UV-I 230 W/m 16,4 C 1,6 km/h (1 Bft)
01.09.2016 11:23 17,6 C 17,6 C 93 % 1021,7 hPa 0,0 mm 1,1 km/h (1 Bft) W 265 0 min 0,000 mm 2,0 UV-I 241 W/m 16,5 C 3,2 km/h (1 Bft)
01.09.2016 11:24 17,7 C 17,7 C 93 % 1021,7 hPa 0,0 mm 1,2 km/h (1 Bft) W 265 0 min 0,000 mm 2,1 UV-I 248 W/m 16,6 C 3,2 km/h (1 Bft)
01.09.2016 11:25 17,7 C 17,7 C 93 % 1021,7 hPa 0,0 mm 2,3 km/h (1 Bft) W 264 0 min 0,000 mm 2,2 UV-I 258 W/m 16,6 C 3,2 km/h (1 Bft)
01.09.2016 11:26 17,7 C 17,7 C 91 % 1021,7 hPa 0,0 mm 1,9 km/h (1 Bft) W 265 0 min 0,000 mm 2,2 UV-I 265 W/m 16,2 C 3,2 km/h (1 Bft)
01.09.2016 11:27 17,7 C 17,7 C 91 % 1021,7 hPa 0,0 mm 1,7 km/h (1 Bft) W 265 0 min 0,000 mm 2,3 UV-I 271 W/m 16,2 C 3,2 km/h (1 Bft)
01.09.2016 11:28 17,7 C 17,7 C 91 % 1021,7 hPa 0,0 mm 1,7 km/h (1 Bft) W 265 0 min 0,000 mm 2,3 UV-I 278 W/m 16,2 C 3,2 km/h (1 Bft)
01.09.2016 11:29 17,8 C 17,8 C 92 % 1021,7 hPa 0,0 mm 1,7 km/h (1 Bft) W 265 0 min 0,000 mm 2,4 UV-I 311 W/m 16,5 C 3,2 km/h (1 Bft)
01.09.2016 11:30 17,8 C 17,8 C 90 % 1021,7 hPa 0,0 mm 0,1 km/h (0 Bft) W 265 0 min 0,000 mm 2,3 UV-I 283 W/m 16,1 C 1,6 km/h (1 Bft)
01.09.2016 11:31 17,8 C 17,8 C 91 % 1021,6 hPa 0,0 mm 1,3 km/h (1 Bft) W 267 0 min 0,000 mm 2,3 UV-I 262 W/m 16,3 C 3,2 km/h (1 Bft)
01.09.2016 11:32 17,9 C 17,9 C 91 % 1021,7 hPa 0,0 mm 0,8 km/h (0 Bft) W 267 0 min 0,000 mm 2,3 UV-I 262 W/m 16,4 C 1,6 km/h (1 Bft)
01.09.2016 11:33 17,9 C 17,9 C 90 % 1021,7 hPa 0,0 mm 0,1 km/h (0 Bft) W 267 0 min 0,000 mm 2,3 UV-I 271 W/m 16,2 C 1,6 km/h (1 Bft)
01.09.2016 11:34 17,9 C 17,9 C 91 % 1021,7 hPa 0,0 mm 1,0 km/h (0 Bft) W 267 0 min 0,000 mm 2,3 UV-I 257 W/m 16,4 C 1,6 km/h (1 Bft)
01.09.2016 11:35 17,9 C 17,9 C 90 % 1021,7 hPa 0,0 mm 1,5 km/h (1 Bft) S 179 0 min 0,000 mm 2,2 UV-I 250 W/m 16,2 C 3,2 km/h (1 Bft)
01.09.2016 11:36 18,1 C 18,1 C 91 % 1021,7 hPa 0,0 mm 0,5 km/h (0 Bft) S 179 0 min 0,000 mm 2,2 UV-I 246 W/m 16,6 C 1,6 km/h (1 Bft)
01.09.2016 11:37 18,2 C 18,2 C 92 % 1021,7 hPa 0,0 mm 0,1 km/h (0 Bft) S 179 0 min 0,000 mm 2,1 UV-I 234 W/m 16,9 C 1,6 km/h (1 Bft)
01.09.2016 11:38 18,1 C 18,2 C 90 % 1021,7 hPa 0,0 mm 0,3 km/h (0 Bft) S 179 0 min 0,000 mm 2,1 UV-I 230 W/m 16,4 C 1,6 km/h (1 Bft)
01.09.2016 11:39 18,1 C 18,1 C 91 % 1021,7 hPa 0,0 mm 0,0 km/h (0 Bft) S 179 0 min 0,000 mm 2,1 UV-I 227 W/m 16,6 C 0,0 km/h (0 Bft)
01.09.2016 11:40 18,1 C 18,2 C 93 % 1021,7 hPa 0,0 mm 0,0 km/h (0 Bft) S 179 0 min 0,000 mm 2,2 UV-I 239 W/m 16,9 C 0,0 km/h (0 Bft)
01.09.2016 11:41 18,2 C 18,2 C 92 % 1021,7 hPa 0,0 mm 0,0 km/h (0 Bft) S 179 0 min 0,000 mm 2,5 UV-I 265 W/m 16,9 C 0,0 km/h (0 Bft)
01.09.2016 11:42 18,1 C 18,2 C 92 % 1021,7 hPa 0,0 mm 0,3 km/h (0 Bft) S 179 0 min 0,000 mm 2,4 UV-I 262 W/m 16,8 C 1,6 km/h (1 Bft)
01.09.2016 11:43 18,1 C 18,1 C 90 % 1021,7 hPa 0,0 mm 0,3 km/h (0 Bft) S 179 0 min 0,000 mm 2,4 UV-I 262 W/m 16,4 C 1,6 km/h (1 Bft)
01.09.2016 11:44 18,2 C 18,2 C 91 % 1021,7 hPa 0,0 mm 0,1 km/h (0 Bft) S 179 0 min 0,000 mm 2,5 UV-I 278 W/m 16,7 C 1,6 km/h (1 Bft)
01.09.2016 11:45 18,3 C 18,3 C 91 % 1021,7 hPa 0,0 mm 0,0 km/h (0 Bft) S 180 0 min 0,000 mm 2,5 UV-I 281 W/m 16,8 C 0,0 km/h (0 Bft)
01.09.2016 11:46 18,4 C 18,4 C 90 % 1021,7 hPa 0,0 mm 0,0 km/h (0 Bft) S 180 0 min 0,000 mm 2,6 UV-I 281 W/m 16,7 C 0,0 km/h (0 Bft)
01.09.2016 11:47 18,4 C 18,4 C 89 % 1021,7 hPa 0,0 mm 0,0 km/h (0 Bft) S 180 0 min 0,000 mm 2,6 UV-I 281 W/m 16,6 C 0,0 km/h (0 Bft)
01.09.2016 11:48 18,5 C 18,5 C 90 % 1021,7 hPa 0,0 mm 0,0 km/h (0 Bft) S-SW 195 0 min 0,000 mm 2,6 UV-I 283 W/m 16,8 C 0,0 km/h (0 Bft)
01.09.2016 11:49 18,6 C 18,6 C 89 % 1021,7 hPa 0,0 mm 1,5 km/h (1 Bft) SW 232 0 min 0,000 mm 2,7 UV-I 290 W/m 16,7 C 4,8 km/h (1 Bft)
01.09.2016 11:50 18,7 C 18,7 C 91 % 1021,7 hPa 0,0 mm 1,4 km/h (1 Bft) W-SW 244 0 min 0,000 mm 2,8 UV-I 299 W/m 17,2 C 4,8 km/h (1 Bft)
01.09.2016 11:51 18,8 C 18,8 C 89 % 1021,7 hPa 0,0 mm 3,8 km/h (1 Bft) W-SW 247 0 min 0,000 mm 2,9 UV-I 311 W/m 16,9 C 4,8 km/h (1 Bft)
01.09.2016 11:52 18,8 C 18,8 C 88 % 1021,7 hPa 0,0 mm 3,8 km/h (1 Bft) W-SW 238 0 min 0,000 mm 3,0 UV-I 355 W/m 16,8 C 4,8 km/h (1 Bft)
01.09.2016 11:53 18,8 C 18,8 C 88 % 1021,7 hPa 0,0 mm 2,3 km/h (1 Bft) W-SW 237 0 min 0,000 mm 3,4 UV-I 355 W/m 16,8 C 3,2 km/h (1 Bft)
01.09.2016 11:54 18,9 C 18,9 C 88 % 1021,7 hPa 0,0 mm 1,7 km/h (1 Bft) SW 234 1 min 0,000 mm 3,7 UV-I 496 W/m 16,9 C 3,2 km/h (1 Bft)
01.09.2016 11:55 18,9 C 18,9 C 87 % 1021,7 hPa 0,0 mm 2,7 km/h (1 Bft) S-SW 210 1 min 0,000 mm 3,5 UV-I 424 W/m 16,7 C 4,8 km/h (1 Bft)
01.09.2016 11:56 18,9 C 18,9 C 88 % 1021,7 hPa 0,0 mm 1,5 km/h (1 Bft) SW 235 1 min 0,000 mm 3,4 UV-I 408 W/m 16,9 C 3,2 km/h (1 Bft)
01.09.2016 11:57 18,9 C 19,0 C 87 % 1021,7 hPa 0,0 mm 3,6 km/h (1 Bft) SW 223 0 min 0,000 mm 3,2 UV-I 376 W/m 16,7 C 4,8 km/h (1 Bft)
01.09.2016 11:58 19,0 C 19,0 C 87 % 1021,7 hPa 0,0 mm 3,3 km/h (1 Bft) SW 235 0 min 0,000 mm 3,2 UV-I 371 W/m 16,8 C 4,8 km/h (1 Bft)
01.09.2016 11:59 19,1 C 19,1 C 88 % 1021,7 hPa 0,0 mm 1,8 km/h (1 Bft) W-SW 243 1 min 0,000 mm 3,3 UV-I 417 W/m 17,1 C 3,2 km/h (1 Bft)
01.09.2016 12:00 19,1 C 19,1 C 86 % 1021,7 hPa 0,0 mm 2,6 km/h (1 Bft) SW 229 0 min 0,000 mm 3,2 UV-I 373 W/m 16,7 C 4,8 km/h (1 Bft)
01.09.2016 12:01 19,1 C 19,1 C 87 % 1021,7 hPa 0,0 mm 2,5 km/h (1 Bft) S 172 0 min 0,127 mm 3,2 UV-I 387 W/m 16,9 C 4,8 km/h (1 Bft)
01.09.2016 12:02 19,2 C 19,2 C 87 % 1021,7 hPa 0,0 mm 3,9 km/h (1 Bft) SW 228 0 min 0,000 mm 3,5 UV-I 392 W/m 17,0 C 6,4 km/h (2 Bft)
01.09.2016 12:03 19,2 C 19,2 C 88 % 1021,7 hPa 0,0 mm 2,6 km/h (1 Bft) SW 233 0 min 0,000 mm 3,1 UV-I 323 W/m 17,2 C 3,2 km/h (1 Bft)
01.09.2016 12:04 19,2 C 19,3 C 84 % 1021,6 hPa 0,0 mm 2,6 km/h (1 Bft) W-SW 237 0 min 0,000 mm 3,1 UV-I 325 W/m 16,4 C 4,8 km/h (1 Bft)
01.09.2016 12:05 19,2 C 19,2 C 85 % 1021,7 hPa 0,0 mm 3,1 km/h (1 Bft) W-SW 241 0 min 0,000 mm 3,0 UV-I 308 W/m 16,6 C 4,8 km/h (1 Bft)
01.09.2016 12:06 19,2 C 19,2 C 86 % 1021,6 hPa 0,0 mm 1,5 km/h (1 Bft) W-SW 241 0 min 0,000 mm 3,0 UV-I 315 W/m 16,8 C 3,2 km/h (1 Bft)
01.09.2016 12:07 19,1 C 19,2 C 86 % 1021,7 hPa 0,0 mm 1,1 km/h (1 Bft) W-SW 249 0 min 0,000 mm 3,1 UV-I 322 W/m 16,7 C 3,2 km/h (1 Bft)
01.09.2016 12:08 18,9 C 19,1 C 88 % 1021,6 hPa 0,0 mm 1,8 km/h (1 Bft) W-SW 246 0 min 0,000 mm 3,2 UV-I 338 W/m 16,9 C 3,2 km/h (1 Bft)
01.09.2016 12:09 18,8 C 18,9 C 90 % 1021,6 hPa 0,0 mm 1,5 km/h (1 Bft) W-SW 246 0 min 0,000 mm 3,3 UV-I 369 W/m 17,1 C 3,2 km/h (1 Bft)
01.09.2016 12:10 18,8 C 18,8 C 91 % 1021,6 hPa 0,0 mm 4,1 km/h (1 Bft) W-SW 252 0 min 0,000 mm 3,3 UV-I 374 W/m 17,3 C 6,4 km/h (2 Bft)
01.09.2016 12:11 18,9 C 18,9 C 91 % 1021,6 hPa 0,0 mm 4,7 km/h (1 Bft) SW 231 0 min 0,000 mm 3,3 UV-I 373 W/m 17,4 C 6,4 km/h (2 Bft)
01.09.2016 12:12 18,9 C 18,9 C 91 % 1021,6 hPa 0,0 mm 3,2 km/h (1 Bft) W-SW 239 0 min 0,000 mm 3,3 UV-I 373 W/m 17,4 C 3,2 km/h (1 Bft)
01.09.2016 12:13 19,1 C 19,1 C 86 % 1021,6 hPa 0,0 mm 2,4 km/h (1 Bft) W-SW 250 0 min 0,000 mm 3,1 UV-I 355 W/m 16,7 C 3,2 km/h (1 Bft)
01.09.2016 12:14 19,1 C 19,1 C 87 % 1021,6 hPa 0,0 mm 2,0 km/h (1 Bft) W-SW 243 0 min 0,000 mm 2,9 UV-I 339 W/m 16,9 C 3,2 km/h (1 Bft)
01.09.2016 12:15 19,1 C 19,2 C 86 % 1021,6 hPa 0,0 mm 1,1 km/h (1 Bft) W-SW 242 0 min 0,000 mm 2,8 UV-I 316 W/m 16,7 C 3,2 km/h (1 Bft)
01.09.2016 12:16 19,1 C 19,1 C 86 % 1021,7 hPa 0,0 mm 1,2 km/h (1 Bft) W-SW 242 0 min 0,000 mm 2,5 UV-I 290 W/m 16,7 C 3,2 km/h (1 Bft)
01.09.2016 12:17 19,1 C 19,1 C 86 % 1021,7 hPa 0,0 mm 4,2 km/h (1 Bft) W-SW 258 0 min 0,000 mm 2,4 UV-I 274 W/m 16,7 C 6,4 km/h (2 Bft)
01.09.2016 12:18 19,1 C 19,1 C 88 % 1021,7 hPa 0,0 mm 4,0 km/h (1 Bft) W-SW 249 0 min 0,000 mm 2,3 UV-I 278 W/m 17,1 C 4,8 km/h (1 Bft)
01.09.2016 12:19 18,9 C 19,1 C 86 % 1021,7 hPa 0,0 mm 0,4 km/h (0 Bft) W-SW 249 0 min 0,000 mm 2,2 UV-I 248 W/m 16,5 C 1,6 km/h (1 Bft)
01.09.2016 12:20 19,0 C 19,0 C 87 % 1021,6 hPa 0,0 mm 0,2 km/h (0 Bft) W-SW 249 0 min 0,000 mm 2,1 UV-I 239 W/m 16,8 C 1,6 km/h (1 Bft)
01.09.2016 12:21 19,0 C 19,0 C 87 % 1021,6 hPa 0,0 mm 0,0 km/h (0 Bft) W-SW 249 0 min 0,000 mm 2,1 UV-I 232 W/m 16,8 C 0,0 km/h (0 Bft)
01.09.2016 12:22 19,0 C 19,0 C 87 % 1021,6 hPa 0,0 mm 0,6 km/h (0 Bft) W-SW 249 0 min 0,000 mm 2,0 UV-I 220 W/m 16,8 C 1,6 km/h (1 Bft)
01.09.2016 12:23 19,0 C 19,0 C 87 % 1021,6 hPa 0,0 mm 0,7 km/h (0 Bft) W-SW 244 0 min 0,000 mm 2,0 UV-I 216 W/m 16,8 C 1,6 km/h (1 Bft)
01.09.2016 12:24 19,0 C 19,0 C 88 % 1021,6 hPa 0,0 mm 4,2 km/h (1 Bft) SW 232 0 min 0,000 mm 1,9 UV-I 211 W/m 17,0 C 6,4 km/h (2 Bft)
01.09.2016 12:25 19,1 C 19,1 C 89 % 1021,6 hPa 0,0 mm 1,7 km/h (1 Bft) S 184 0 min 0,000 mm 1,9 UV-I 209 W/m 17,2 C 3,2 km/h (1 Bft)
01.09.2016 12:26 19,1 C 19,1 C 86 % 1021,6 hPa 0,0 mm 0,8 km/h (0 Bft) S 185 0 min 0,000 mm 1,9 UV-I 206 W/m 16,7 C 1,6 km/h (1 Bft)
01.09.2016 12:27 19,1 C 19,1 C 87 % 1021,6 hPa 0,0 mm 1,0 km/h (0 Bft) W-SW 240 0 min 0,000 mm 1,9 UV-I 206 W/m 16,9 C 3,2 km/h (1 Bft)
01.09.2016 12:28 19,1 C 19,1 C 89 % 1021,6 hPa 0,0 mm 2,0 km/h (1 Bft) SW 221 0 min 0,000 mm 1,9 UV-I 206 W/m 17,2 C 4,8 km/h (1 Bft)
01.09.2016 12:29 19,0 C 19,1 C 89 % 1021,6 hPa 0,0 mm 0,0 km/h (0 Bft) SW 221 0 min 0,000 mm 1,9 UV-I 207 W/m 17,1 C 0,0 km/h (0 Bft)
01.09.2016 12:30 19,0 C 19,0 C 90 % 1021,7 hPa 0,0 mm 0,9 km/h (0 Bft) SW 221 0 min 0,000 mm 2,0 UV-I 211 W/m 17,3 C 1,6 km/h (1 Bft)
01.09.2016 12:31 19,0 C 19,0 C 88 % 1021,6 hPa 0,0 mm 1,5 km/h (1 Bft) SW 221 0 min 0,000 mm 2,0 UV-I 213 W/m 17,0 C 3,2 km/h (1 Bft)
01.09.2016 12:32 18,9 C 19,0 C 89 % 1021,6 hPa 0,0 mm 0,1 km/h (0 Bft) SW 221 0 min 0,000 mm 2,0 UV-I 216 W/m 17,0 C 1,6 km/h (1 Bft)
01.09.2016 12:33 18,9 C 18,9 C 88 % 1021,5 hPa 0,0 mm 0,4 km/h (0 Bft) SW 221 0 min 0,000 mm 2,1 UV-I 223 W/m 16,9 C 1,6 km/h (1 Bft)
01.09.2016 12:34 18,9 C 18,9 C 89 % 1021,6 hPa 0,0 mm 0,6 km/h (0 Bft) SW 224 0 min 0,000 mm 2,1 UV-I 227 W/m 17,0 C 1,6 km/h (1 Bft)
01.09.2016 12:35 19,0 C 19,0 C 90 % 1021,6 hPa 0,0 mm 1,5 km/h (1 Bft) SW 234 0 min 0,000 mm 2,2 UV-I 232 W/m 17,3 C 3,2 km/h (1 Bft)
01.09.2016 12:36 19,1 C 19,1 C 89 % 1021,5 hPa 0,0 mm 1,5 km/h (1 Bft) SW 234 0 min 0,000 mm 2,2 UV-I 236 W/m 17,2 C 3,2 km/h (1 Bft)
01.09.2016 12:37 19,1 C 19,1 C 90 % 1021,5 hPa 0,0 mm 1,1 km/h (1 Bft) SW 235 0 min 0,000 mm 2,2 UV-I 237 W/m 17,4 C 1,6 km/h (1 Bft)
01.09.2016 12:38 19,2 C 19,2 C 91 % 1021,6 hPa 0,0 mm 0,0 km/h (0 Bft) SW 235 0 min 0,000 mm 2,2 UV-I 239 W/m 17,7 C 0,0 km/h (0 Bft)
01.09.2016 12:39 19,1 C 19,2 C 88 % 1021,5 hPa 0,0 mm 0,0 km/h (0 Bft) SW 235 0 min 0,000 mm 2,2 UV-I 237 W/m 17,1 C 0,0 km/h (0 Bft)
01.09.2016 12:40 19,1 C 19,2 C 88 % 1021,6 hPa 0,0 mm 0,7 km/h (0 Bft) SW 235 0 min 0,000 mm 2,2 UV-I 232 W/m 17,1 C 1,6 km/h (1 Bft)
01.09.2016 12:41 19,1 C 19,1 C 89 % 1021,6 hPa 0,0 mm 1,0 km/h (0 Bft) SW 235 0 min 0,000 mm 2,1 UV-I 225 W/m 17,2 C 1,6 km/h (1 Bft)
01.09.2016 12:42 19,2 C 19,2 C 89 % 1021,5 hPa 0,0 mm 1,1 km/h (1 Bft) SW 235 0 min 0,000 mm 2,1 UV-I 221 W/m 17,3 C 1,6 km/h (1 Bft)
01.09.2016 12:43 19,2 C 19,2 C 91 % 1021,5 hPa 0,0 mm 0,3 km/h (0 Bft) SW 234 0 min 0,000 mm 2,0 UV-I 218 W/m 17,7 C 1,6 km/h (1 Bft)
01.09.2016 12:44 19,2 C 19,2 C 90 % 1021,5 hPa 0,0 mm 0,0 km/h (0 Bft) SW 235 0 min 0,000 mm 2,0 UV-I 214 W/m 17,5 C 0,0 km/h (0 Bft)
01.09.2016 12:45 19,2 C 19,2 C 89 % 1021,5 hPa 0,0 mm 0,0 km/h (0 Bft) SW 235 0 min 0,000 mm 2,0 UV-I 211 W/m 17,3 C 0,0 km/h (0 Bft)
01.09.2016 12:46 19,2 C 19,2 C 89 % 1021,5 hPa 0,0 mm 0,0 km/h (0 Bft) SW 234 0 min 0,000 mm 2,0 UV-I 207 W/m 17,3 C 0,0 km/h (0 Bft)
01.09.2016 12:47 19,2 C 19,2 C 86 % 1021,5 hPa 0,0 mm 0,0 km/h (0 Bft) W-SW 242 0 min 0,000 mm 1,9 UV-I 204 W/m 16,8 C 0,0 km/h (0 Bft)
01.09.2016 12:48 19,1 C 19,2 C 86 % 1021,5 hPa 0,0 mm 0,0 km/h (0 Bft) W-SW 243 0 min 0,000 mm 1,9 UV-I 202 W/m 16,7 C 0,0 km/h (0 Bft)
01.09.2016 12:49 19,1 C 19,1 C 88 % 1021,5 hPa 0,0 mm 0,0 km/h (0 Bft) W-SW 243 0 min 0,000 mm 1,9 UV-I 200 W/m 17,1 C 0,0 km/h (0 Bft)
01.09.2016 12:50 19,1 C 19,1 C 89 % 1021,5 hPa 0,0 mm 0,0 km/h (0 Bft) W-SW 243 0 min 0,000 mm 1,8 UV-I 199 W/m 17,2 C 0,0 km/h (0 Bft)
01.09.2016 12:51 19,1 C 19,1 C 90 % 1021,5 hPa 0,0 mm 0,0 km/h (0 Bft) W-SW 243 0 min 0,000 mm 1,8 UV-I 197 W/m 17,4 C 0,0 km/h (0 Bft)
01.09.2016 12:52 19,2 C 19,2 C 89 % 1021,5 hPa 0,0 mm 0,0 km/h (0 Bft) W-SW 243 0 min 0,000 mm 1,8 UV-I 195 W/m 17,3 C 0,0 km/h (0 Bft)
01.09.2016 12:53 19,2 C 19,2 C 90 % 1021,5 hPa 0,0 mm 0,0 km/h (0 Bft) W-SW 243 0 min 0,000 mm 1,8 UV-I 195 W/m 17,5 C 0,0 km/h (0 Bft)
01.09.2016 12:54 19,2 C 19,2 C 89 % 1021,5 hPa 0,0 mm 0,0 km/h (0 Bft) W-SW 243 0 min 0,000 mm 1,8 UV-I 195 W/m 17,3 C 0,0 km/h (0 Bft)
01.09.2016 12:55 19,1 C 19,2 C 88 % 1021,5 hPa 0,0 mm 0,0 km/h (0 Bft) W-SW 243 0 min 0,000 mm 1,8 UV-I 193 W/m 17,1 C 0,0 km/h (0 Bft)
01.09.2016 12:56 19,1 C 19,1 C 86 % 1021,5 hPa 0,0 mm 0,0 km/h (0 Bft) W-SW 243 0 min 0,000 mm 1,8 UV-I 193 W/m 16,7 C 0,0 km/h (0 Bft)
01.09.2016 12:57 19,1 C 19,1 C 86 % 1021,5 hPa 0,0 mm 0,0 km/h (0 Bft) W-SW 243 0 min 0,000 mm 1,8 UV-I 193 W/m 16,7 C 0,0 km/h (0 Bft)
01.09.2016 12:58 19,1 C 19,1 C 87 % 1021,5 hPa 0,0 mm 0,0 km/h (0 Bft) W-SW 243 0 min 0,000 mm 1,8 UV-I 193 W/m 16,9 C 0,0 km/h (0 Bft)
01.09.2016 12:59 19,1 C 19,1 C 87 % 1021,5 hPa 0,0 mm 0,0 km/h (0 Bft) W-SW 243 0 min 0,000 mm 1,8 UV-I 195 W/m 16,9 C 0,0 km/h (0 Bft)
01.09.2016 13:00 19,0 C 19,1 C 90 % 1021,5 hPa 0,0 mm 0,0 km/h (0 Bft) W-SW 243 0 min 0,152 mm 1,8 UV-I 199 W/m 17,3 C 0,0 km/h (0 Bft)
01.09.2016 13:01 18,9 C 19,0 C 88 % 1021,4 hPa 0,0 mm 0,0 km/h (0 Bft) W-SW 243 0 min 0,000 mm 1,8 UV-I 200 W/m 16,9 C 0,0 km/h (0 Bft)
01.09.2016 13:02 18,9 C 19,0 C 86 % 1021,5 hPa 0,0 mm 0,3 km/h (0 Bft) W-SW 243 0 min 0,000 mm 1,9 UV-I 206 W/m 16,5 C 3,2 km/h (1 Bft)
01.09.2016 13:03 19,1 C 19,1 C 87 % 1021,5 hPa 0,0 mm 2,8 km/h (1 Bft) W-SW 242 0 min 0,000 mm 1,9 UV-I 209 W/m 16,9 C 4,8 km/h (1 Bft)
01.09.2016 13:04 19,1 C 19,2 C 88 % 1021,5 hPa 0,0 mm 2,9 km/h (1 Bft) N 360 0 min 0,000 mm 2,0 UV-I 213 W/m 17,1 C 4,8 km/h (1 Bft)
01.09.2016 13:05 19,2 C 19,2 C 86 % 1021,5 hPa 0,0 mm 3,0 km/h (1 Bft) W-SW 245 0 min 0,000 mm 2,0 UV-I 216 W/m 16,8 C 4,8 km/h (1 Bft)
01.09.2016 13:06 19,2 C 19,2 C 86 % 1021,5 hPa 0,0 mm 1,3 km/h (1 Bft) W-SW 245 0 min 0,000 mm 2,0 UV-I 221 W/m 16,8 C 1,6 km/h (1 Bft)
01.09.2016 13:07 19,3 C 19,3 C 86 % 1021,5 hPa 0,0 mm 1,3 km/h (1 Bft) W-SW 245 0 min 0,000 mm 2,1 UV-I 225 W/m 16,9 C 1,6 km/h (1 Bft)
01.09.2016 13:08 19,3 C 19,3 C 85 % 1021,5 hPa 0,0 mm 3,0 km/h (1 Bft) SW 229 0 min 0,000 mm 2,1 UV-I 236 W/m 16,7 C 3,2 km/h (1 Bft)
01.09.2016 13:09 19,3 C 19,3 C 86 % 1021,4 hPa 0,0 mm 2,4 km/h (1 Bft) W-SW 244 0 min 0,000 mm 2,2 UV-I 241 W/m 16,9 C 4,8 km/h (1 Bft)
01.09.2016 13:10 19,2 C 19,3 C 86 % 1021,5 hPa 0,0 mm 2,0 km/h (1 Bft) SW 236 0 min 0,000 mm 2,2 UV-I 244 W/m 16,8 C 3,2 km/h (1 Bft)
01.09.2016 13:11 19,2 C 19,2 C 87 % 1021,4 hPa 0,0 mm 2,9 km/h (1 Bft) SW 225 0 min 0,000 mm 2,2 UV-I 248 W/m 17,0 C 4,8 km/h (1 Bft)
01.09.2016 13:12 19,2 C 19,2 C 85 % 1021,5 hPa 0,0 mm 2,9 km/h (1 Bft) SW 236 0 min 0,000 mm 2,3 UV-I 250 W/m 16,6 C 3,2 km/h (1 Bft)
01.09.2016 13:13 19,2 C 19,2 C 85 % 1021,5 hPa 0,0 mm 1,6 km/h (1 Bft) SW 236 0 min 0,000 mm 2,3 UV-I 251 W/m 16,6 C 1,6 km/h (1 Bft)
01.09.2016 13:14 19,3 C 19,3 C 87 % 1021,5 hPa 0,0 mm 2,7 km/h (1 Bft) SW 236 0 min 0,000 mm 2,3 UV-I 255 W/m 17,1 C 3,2 km/h (1 Bft)
01.09.2016 13:15 19,3 C 19,3 C 85 % 1021,4 hPa 0,0 mm 3,8 km/h (1 Bft) W-SW 248 0 min 0,000 mm 2,3 UV-I 257 W/m 16,7 C 4,8 km/h (1 Bft)
01.09.2016 13:16 19,3 C 19,3 C 84 % 1021,5 hPa 0,0 mm 6,2 km/h (2 Bft) W 267 0 min 0,000 mm 2,4 UV-I 258 W/m 16,5 C 6,4 km/h (2 Bft)
01.09.2016 13:17 19,3 C 19,3 C 86 % 1021,4 hPa 0,0 mm 2,0 km/h (1 Bft) W 264 0 min 0,000 mm 2,4 UV-I 262 W/m 16,9 C 3,2 km/h (1 Bft)
01.09.2016 13:18 19,4 C 19,4 C 88 % 1021,5 hPa 0,0 mm 0,5 km/h (0 Bft) W 264 0 min 0,000 mm 2,5 UV-I 265 W/m 17,4 C 3,2 km/h (1 Bft)
01.09.2016 13:19 19,4 C 19,4 C 87 % 1021,4 hPa 0,0 mm 1,9 km/h (1 Bft) W 264 0 min 0,000 mm 2,6 UV-I 274 W/m 17,2 C 3,2 km/h (1 Bft)
01.09.2016 13:20 19,4 C 19,4 C 86 % 1021,5 hPa 0,0 mm 3,1 km/h (1 Bft) W 269 0 min 0,000 mm 2,7 UV-I 279 W/m 17,0 C 4,8 km/h (1 Bft)
01.09.2016 13:21 19,4 C 19,4 C 89 % 1021,4 hPa 0,0 mm 3,0 km/h (1 Bft) W 263 0 min 0,000 mm 2,8 UV-I 287 W/m 17,5 C 4,8 km/h (1 Bft)
01.09.2016 13:22 19,5 C 19,5 C 87 % 1021,4 hPa 0,0 mm 4,2 km/h (1 Bft) W-SW 256 0 min 0,000 mm 2,9 UV-I 302 W/m 17,3 C 4,8 km/h (1 Bft)
01.09.2016 13:23 19,5 C 19,5 C 85 % 1021,4 hPa 0,0 mm 2,6 km/h (1 Bft) W-SW 256 0 min 0,000 mm 3,0 UV-I 311 W/m 16,9 C 3,2 km/h (1 Bft)
01.09.2016 13:24 19,6 C 19,6 C 86 % 1021,4 hPa 0,0 mm 3,2 km/h (1 Bft) W 261 0 min 0,000 mm 3,1 UV-I 330 W/m 17,2 C 3,2 km/h (1 Bft)
01.09.2016 13:25 19,6 C 19,7 C 87 % 1021,4 hPa 0,0 mm 4,3 km/h (1 Bft) W-SW 247 0 min 0,000 mm 3,3 UV-I 352 W/m 17,4 C 8,0 km/h (2 Bft)
01.09.2016 13:26 19,6 C 19,6 C 83 % 1021,4 hPa 0,0 mm 8,7 km/h (2 Bft) W 265 0 min 0,000 mm 3,5 UV-I 352 W/m 16,6 C 12,9 km/h (3 Bft)
01.09.2016 13:27 19,6 C 19,6 C 83 % 1021,4 hPa 0,0 mm 2,5 km/h (1 Bft) W-SW 252 0 min 0,000 mm 3,4 UV-I 357 W/m 16,6 C 4,8 km/h (1 Bft)
01.09.2016 13:28 19,6 C 19,6 C 85 % 1021,4 hPa 0,0 mm 3,9 km/h (1 Bft) W-SW 257 0 min 0,000 mm 3,5 UV-I 371 W/m 17,0 C 4,8 km/h (1 Bft)
01.09.2016 13:29 19,7 C 19,7 C 85 % 1021,4 hPa 0,0 mm 4,3 km/h (1 Bft) W 278 0 min 0,000 mm 3,8 UV-I 371 W/m 17,1 C 4,8 km/h (1 Bft)
01.09.2016 13:30 19,7 C 19,7 C 85 % 1021,4 hPa 0,0 mm 3,7 km/h (1 Bft) W 264 0 min 0,000 mm 3,6 UV-I 371 W/m 17,1 C 6,4 km/h (2 Bft)
01.09.2016 13:31 19,8 C 19,8 C 87 % 1021,4 hPa 0,0 mm 2,9 km/h (1 Bft) W 275 0 min 0,000 mm 3,7 UV-I 367 W/m 17,6 C 3,2 km/h (1 Bft)
01.09.2016 13:32 19,8 C 19,8 C 84 % 1021,4 hPa 0,0 mm 3,0 km/h (1 Bft) W 269 0 min 0,000 mm 4,9 UV-I 413 W/m 17,0 C 3,2 km/h (1 Bft)
01.09.2016 13:33 19,9 C 19,9 C 85 % 1021,4 hPa 0,0 mm 4,6 km/h (1 Bft) W 280 0 min 0,000 mm 3,9 UV-I 374 W/m 17,3 C 6,4 km/h (2 Bft)
01.09.2016 13:34 20,0 C 20,0 C 85 % 1021,4 hPa 0,0 mm 5,1 km/h (1 Bft) SW 229 0 min 0,000 mm 4,2 UV-I 352 W/m 17,4 C 6,4 km/h (2 Bft)
01.09.2016 13:35 20,0 C 20,0 C 81 % 1021,3 hPa 0,0 mm 9,7 km/h (2 Bft) W-NW 285 1 min 0,000 mm 4,4 UV-I 424 W/m 16,6 C 12,9 km/h (3 Bft)
01.09.2016 13:36 20,0 C 20,0 C 81 % 1021,3 hPa 0,0 mm 5,1 km/h (1 Bft) W-NW 284 1 min 0,000 mm 5,4 UV-I 424 W/m 16,6 C 6,4 km/h (2 Bft)
01.09.2016 13:37 20,1 C 20,1 C 82 % 1021,3 hPa 0,0 mm 4,3 km/h (1 Bft) W 275 1 min 0,000 mm 5,1 UV-I 619 W/m 16,9 C 6,4 km/h (2 Bft)
01.09.2016 13:38 20,1 C 20,1 C 82 % 1021,3 hPa 0,0 mm 6,4 km/h (2 Bft) W-SW 252 1 min 0,000 mm 4,1 UV-I 619 W/m 16,9 C 9,7 km/h (2 Bft)
01.09.2016 13:39 20,0 C 20,1 C 81 % 1021,4 hPa 0,0 mm 5,3 km/h (1 Bft) W 261 0 min 0,000 mm 3,6 UV-I 332 W/m 16,6 C 6,4 km/h (2 Bft)
01.09.2016 13:40 19,9 C 20,0 C 81 % 1021,3 hPa 0,0 mm 4,3 km/h (1 Bft) W 269 0 min 0,000 mm 3,8 UV-I 323 W/m 16,5 C 6,4 km/h (2 Bft)
01.09.2016 13:41 19,9 C 19,9 C 81 % 1021,3 hPa 0,0 mm 5,1 km/h (1 Bft) SW 228 0 min 0,000 mm 4,0 UV-I 373 W/m 16,5 C 6,4 km/h (2 Bft)
01.09.2016 13:42 19,9 C 19,9 C 79 % 1021,3 hPa 0,0 mm 3,5 km/h (1 Bft) SW 221 0 min 0,000 mm 5,6 UV-I 373 W/m 16,1 C 4,8 km/h (1 Bft)
01.09.2016 13:43 19,9 C 19,9 C 82 % 1021,3 hPa 0,0 mm 4,6 km/h (1 Bft) W-SW 257 0 min 0,000 mm 3,7 UV-I 373 W/m 16,7 C 4,8 km/h (1 Bft)
01.09.2016 13:44 20,1 C 20,1 C 82 % 1021,2 hPa 0,0 mm 3,7 km/h (1 Bft) W-SW 241 1 min 0,000 mm 4,0 UV-I 432 W/m 16,9 C 4,8 km/h (1 Bft)
01.09.2016 13:45 20,1 C 20,1 C 81 % 1021,2 hPa 0,0 mm 4,3 km/h (1 Bft) SW 226 1 min 0,000 mm 4,1 UV-I 432 W/m 16,7 C 6,4 km/h (2 Bft)
01.09.2016 13:46 20,2 C 20,2 C 80 % 1021,3 hPa 0,0 mm 8,9 km/h (2 Bft) SW 234 1 min 0,000 mm 4,3 UV-I 522 W/m 16,6 C 14,5 km/h (3 Bft)
01.09.2016 13:47 20,2 C 20,2 C 79 % 1021,3 hPa 0,0 mm 4,6 km/h (1 Bft) S 175 1 min 0,000 mm 4,3 UV-I 522 W/m 16,4 C 6,4 km/h (2 Bft)
01.09.2016 13:48 20,2 C 20,2 C 78 % 1021,2 hPa 0,0 mm 2,2 km/h (1 Bft) S-SW 213 1 min 0,000 mm 4,7 UV-I 522 W/m 16,2 C 4,8 km/h (1 Bft)
01.09.2016 13:49 20,2 C 20,2 C 80 % 1021,2 hPa 0,0 mm 6,5 km/h (2 Bft) W-NW 283 1 min 0,000 mm 5,3 UV-I 754 W/m 16,6 C 11,3 km/h (2 Bft)
01.09.2016 13:50 20,3 C 20,3 C 81 % 1021,2 hPa 0,0 mm 7,6 km/h (2 Bft) W-NW 282 1 min 0,000 mm 5,4 UV-I 733 W/m 16,9 C 11,3 km/h (2 Bft)
01.09.2016 13:51 20,5 C 20,5 C 81 % 1021,2 hPa 0,0 mm 3,5 km/h (1 Bft) W-SW 255 1 min 0,000 mm 5,2 UV-I 714 W/m 17,1 C 6,4 km/h (2 Bft)
01.09.2016 13:52 20,7 C 20,7 C 83 % 1021,1 hPa 0,0 mm 5,9 km/h (2 Bft) SW 235 1 min 0,000 mm 5,2 UV-I 705 W/m 17,7 C 9,7 km/h (2 Bft)
01.09.2016 13:53 20,7 C 20,7 C 81 % 1021,2 hPa 0,0 mm 5,6 km/h (1 Bft) W 270 1 min 0,000 mm 4,5 UV-I 705 W/m 17,3 C 9,7 km/h (2 Bft)
01.09.2016 13:54 20,6 C 20,7 C 79 % 1021,1 hPa 0,0 mm 3,9 km/h (1 Bft) S-SO 166 1 min 0,000 mm 4,5 UV-I 531 W/m 16,8 C 8,0 km/h (2 Bft)
01.09.2016 13:55 20,6 C 20,6 C 79 % 1021,2 hPa 0,0 mm 3,2 km/h (1 Bft) W-SW 256 1 min 0,000 mm 4,5 UV-I 624 W/m 16,8 C 8,0 km/h (2 Bft)
01.09.2016 13:56 20,6 C 20,6 C 81 % 1021,1 hPa 0,0 mm 5,2 km/h (1 Bft) W-SW 250 1 min 0,000 mm 4,5 UV-I 585 W/m 17,2 C 8,0 km/h (2 Bft)
01.09.2016 13:57 20,6 C 20,6 C 79 % 1021,2 hPa 0,0 mm 5,0 km/h (1 Bft) W 273 1 min 0,000 mm 4,5 UV-I 594 W/m 16,8 C 11,3 km/h (2 Bft)
01.09.2016 13:58 20,5 C 20,6 C 77 % 1021,1 hPa 0,0 mm 4,5 km/h (1 Bft) W-SW 253 1 min 0,000 mm 4,1 UV-I 594 W/m 16,3 C 6,4 km/h (2 Bft)
01.09.2016 13:59 20,4 C 20,5 C 79 % 1021,2 hPa 0,0 mm 6,8 km/h (2 Bft) W-SW 241 1 min 0,000 mm 4,0 UV-I 464 W/m 16,6 C 12,9 km/h (3 Bft)
01.09.2016 14:00 20,4 C 20,4 C 79 % 1021,1 hPa 0,0 mm 4,8 km/h (1 Bft) W 275 1 min 0,000 mm 4,3 UV-I 547 W/m 16,6 C 8,0 km/h (2 Bft)
01.09.2016 14:01 20,4 C 20,4 C 80 % 1021,1 hPa 0,0 mm 2,5 km/h (1 Bft) S-SW 209 1 min 0,229 mm 4,5 UV-I 624 W/m 16,8 C 4,8 km/h (1 Bft)
01.09.2016 14:02 20,5 C 20,5 C 80 % 1021,1 hPa 0,0 mm 3,4 km/h (1 Bft) W-SW 237 1 min 0,000 mm 4,6 UV-I 613 W/m 16,9 C 4,8 km/h (1 Bft)
01.09.2016 14:03 20,7 C 20,7 C 82 % 1021,1 hPa 0,0 mm 3,2 km/h (1 Bft) W-SW 246 1 min 0,000 mm 4,7 UV-I 640 W/m 17,5 C 6,4 km/h (2 Bft)
01.09.2016 14:04 20,8 C 20,8 C 79 % 1021,1 hPa 0,0 mm 6,0 km/h (2 Bft) W-SW 248 1 min 0,000 mm 4,5 UV-I 633 W/m 17,0 C 8,0 km/h (2 Bft)
01.09.2016 14:05 20,7 C 20,8 C 77 % 1021,1 hPa 0,0 mm 6,6 km/h (2 Bft) W 260 1 min 0,000 mm 4,3 UV-I 554 W/m 16,5 C 11,3 km/h (2 Bft)
01.09.2016 14:06 20,8 C 20,8 C 78 % 1021,1 hPa 0,0 mm 2,8 km/h (1 Bft) W 278 1 min 0,000 mm 4,3 UV-I 568 W/m 16,8 C 4,8 km/h (1 Bft)
01.09.2016 14:07 20,8 C 20,8 C 78 % 1021,1 hPa 0,0 mm 2,9 km/h (1 Bft) W 263 1 min 0,000 mm 4,3 UV-I 568 W/m 16,8 C 4,8 km/h (1 Bft)
01.09.2016 14:08 20,7 C 20,8 C 78 % 1021,1 hPa 0,0 mm 3,0 km/h (1 Bft) SW 227 1 min 0,000 mm 4,9 UV-I 568 W/m 16,7 C 6,4 km/h (2 Bft)
01.09.2016 14:09 20,8 C 20,8 C 79 % 1021,1 hPa 0,0 mm 2,7 km/h (1 Bft) W 281 1 min 0,000 mm 5,1 UV-I 568 W/m 17,0 C 4,8 km/h (1 Bft)
01.09.2016 14:10 20,8 C 20,8 C 77 % 1021,1 hPa 0,0 mm 4,2 km/h (1 Bft) W 270 1 min 0,000 mm 5,0 UV-I 687 W/m 16,6 C 9,7 km/h (2 Bft)
01.09.2016 14:11 20,9 C 20,9 C 78 % 1021,1 hPa 0,0 mm 2,5 km/h (1 Bft) W 273 1 min 0,000 mm 5,1 UV-I 703 W/m 16,9 C 4,8 km/h (1 Bft)
01.09.2016 14:12 20,9 C 20,9 C 75 % 1021,0 hPa 0,0 mm 3,0 km/h (1 Bft) W 278 1 min 0,000 mm 4,9 UV-I 664 W/m 16,3 C 4,8 km/h (1 Bft)
01.09.2016 14:13 20,9 C 20,9 C 77 % 1021,0 hPa 0,0 mm 4,0 km/h (1 Bft) W-SW 245 1 min 0,000 mm 5,0 UV-I 679 W/m 16,7 C 4,8 km/h (1 Bft)
01.09.2016 14:14 21,0 C 21,0 C 76 % 1020,9 hPa 0,0 mm 3,1 km/h (1 Bft) W 263 1 min 0,000 mm 5,2 UV-I 700 W/m 16,6 C 4,8 km/h (1 Bft)
01.09.2016 14:15 21,1 C 21,1 C 75 % 1020,9 hPa 0,0 mm 3,5 km/h (1 Bft) W-SW 257 1 min 0,000 mm 5,1 UV-I 694 W/m 16,5 C 6,4 km/h (2 Bft)
01.09.2016 14:16 21,1 C 21,1 C 74 % 1020,9 hPa 0,0 mm 2,0 km/h (1 Bft) W-SW 248 1 min 0,000 mm 5,2 UV-I 684 W/m 16,3 C 3,2 km/h (1 Bft)
01.09.2016 14:17 21,1 C 21,2 C 73 % 1020,9 hPa 0,0 mm 4,6 km/h (1 Bft) W-SW 250 1 min 0,000 mm 5,1 UV-I 643 W/m 16,1 C 6,4 km/h (2 Bft)
01.09.2016 14:18 21,1 C 21,2 C 77 % 1021,0 hPa 0,0 mm 6,8 km/h (2 Bft) W 263 1 min 0,000 mm 5,2 UV-I 680 W/m 16,9 C 11,3 km/h (2 Bft)
01.09.2016 14:19 21,1 C 21,2 C 72 % 1021,0 hPa 0,0 mm 4,6 km/h (1 Bft) W 259 1 min 0,000 mm 5,0 UV-I 671 W/m 15,8 C 6,4 km/h (2 Bft)
01.09.2016 14:20 21,1 C 21,1 C 74 % 1021,0 hPa 0,0 mm 5,8 km/h (2 Bft) W 261 1 min 0,000 mm 5,1 UV-I 700 W/m 16,3 C 6,4 km/h (2 Bft)
01.09.2016 14:21 21,0 C 21,1 C 75 % 1020,9 hPa 0,0 mm 5,5 km/h (1 Bft) W 279 1 min 0,000 mm 4,9 UV-I 700 W/m 16,4 C 6,4 km/h (2 Bft)
01.09.2016 14:22 20,9 C 21,0 C 74 % 1021,0 hPa 0,0 mm 5,2 km/h (1 Bft) W 271 1 min 0,000 mm 4,7 UV-I 700 W/m 16,1 C 6,4 km/h (2 Bft)
01.09.2016 14:23 21,0 C 21,0 C 73 % 1021,0 hPa 0,0 mm 3,9 km/h (1 Bft) W-SW 252 1 min 0,000 mm 4,9 UV-I 635 W/m 16,0 C 4,8 km/h (1 Bft)
01.09.2016 14:24 21,0 C 21,0 C 76 % 1021,0 hPa 0,0 mm 2,1 km/h (1 Bft) W-NW 291 1 min 0,000 mm 4,8 UV-I 606 W/m 16,6 C 3,2 km/h (1 Bft)
01.09.2016 14:25 21,1 C 21,1 C 76 % 1021,0 hPa 0,0 mm 1,7 km/h (1 Bft) W 259 1 min 0,000 mm 5,0 UV-I 679 W/m 16,7 C 3,2 km/h (1 Bft)
01.09.2016 14:26 21,1 C 21,1 C 75 % 1021,0 hPa 0,0 mm 3,9 km/h (1 Bft) W-NW 293 1 min 0,000 mm 5,1 UV-I 701 W/m 16,5 C 6,4 km/h (2 Bft)
01.09.2016 14:27 21,1 C 21,1 C 72 % 1020,9 hPa 0,0 mm 5,7 km/h (1 Bft) W 279 1 min 0,000 mm 5,2 UV-I 733 W/m 15,8 C 11,3 km/h (2 Bft)
01.09.2016 14:28 21,2 C 21,2 C 74 % 1021,0 hPa 0,0 mm 3,3 km/h (1 Bft) SW 221 1 min 0,000 mm 5,3 UV-I 738 W/m 16,4 C 6,4 km/h (2 Bft)
01.09.2016 14:29 21,2 C 21,2 C 73 % 1020,9 hPa 0,0 mm 3,2 km/h (1 Bft) SW 236 1 min 0,000 mm 5,3 UV-I 737 W/m 16,2 C 6,4 km/h (2 Bft)
01.09.2016 14:30 21,3 C 21,3 C 76 % 1020,9 hPa 0,0 mm 1,6 km/h (1 Bft) W-SW 252 1 min 0,000 mm 5,2 UV-I 701 W/m 16,9 C 4,8 km/h (1 Bft)
01.09.2016 14:31 21,4 C 21,4 C 76 % 1020,9 hPa 0,0 mm 6,2 km/h (2 Bft) W-SW 250 1 min 0,000 mm 5,2 UV-I 712 W/m 17,0 C 8,0 km/h (2 Bft)
01.09.2016 14:32 21,3 C 21,4 C 71 % 1020,9 hPa 0,0 mm 2,8 km/h (1 Bft) W-SW 250 1 min 0,000 mm 4,9 UV-I 712 W/m 15,8 C 4,8 km/h (1 Bft)
01.09.2016 14:33 21,2 C 21,3 C 72 % 1020,8 hPa 0,0 mm 0,8 km/h (0 Bft) W-SW 250 1 min 0,000 mm 5,3 UV-I 712 W/m 15,9 C 3,2 km/h (1 Bft)
01.09.2016 14:34 21,2 C 21,2 C 70 % 1020,8 hPa 0,0 mm 0,9 km/h (0 Bft) W-SW 250 1 min 0,000 mm 5,3 UV-I 740 W/m 15,5 C 1,6 km/h (1 Bft)
01.09.2016 14:35 21,1 C 21,2 C 71 % 1020,8 hPa 0,0 mm 1,3 km/h (1 Bft) W-SW 252 1 min 0,000 mm 5,2 UV-I 712 W/m 15,6 C 3,2 km/h (1 Bft)
01.09.2016 14:36 21,2 C 21,2 C 76 % 1020,7 hPa 0,0 mm 4,0 km/h (1 Bft) W-SW 251 1 min 0,000 mm 5,1 UV-I 686 W/m 16,8 C 6,4 km/h (2 Bft)
01.09.2016 14:37 21,2 C 21,2 C 76 % 1020,8 hPa 0,0 mm 6,2 km/h (2 Bft) W 272 1 min 0,000 mm 5,0 UV-I 677 W/m 16,8 C 9,7 km/h (2 Bft)
01.09.2016 14:38 21,3 C 21,3 C 72 % 1020,8 hPa 0,0 mm 4,9 km/h (1 Bft) W-NW 284 1 min 0,000 mm 5,0 UV-I 673 W/m 16,0 C 9,7 km/h (2 Bft)
01.09.2016 14:39 21,4 C 21,4 C 73 % 1020,8 hPa 0,0 mm 5,6 km/h (1 Bft) W 269 1 min 0,000 mm 4,8 UV-I 624 W/m 16,4 C 9,7 km/h (2 Bft)
01.09.2016 14:40 21,5 C 21,5 C 75 % 1020,7 hPa 0,0 mm 4,1 km/h (1 Bft) W-NW 284 1 min 0,000 mm 5,0 UV-I 654 W/m 16,9 C 4,8 km/h (1 Bft)
01.09.2016 14:41 21,6 C 21,6 C 70 % 1020,8 hPa 0,0 mm 5,0 km/h (1 Bft) W 268 1 min 0,000 mm 5,1 UV-I 684 W/m 15,9 C 9,7 km/h (2 Bft)
01.09.2016 14:42 21,5 C 21,6 C 72 % 1020,7 hPa 0,0 mm 4,4 km/h (1 Bft) W 263 1 min 0,000 mm 5,0 UV-I 652 W/m 16,2 C 6,4 km/h (2 Bft)
01.09.2016 14:43 21,6 C 21,6 C 76 % 1020,7 hPa 0,0 mm 4,4 km/h (1 Bft) W 263 1 min 0,000 mm 5,0 UV-I 693 W/m 17,2 C 8,0 km/h (2 Bft)
01.09.2016 14:44 21,6 C 21,7 C 73 % 1020,8 hPa 0,0 mm 5,7 km/h (1 Bft) W 264 1 min 0,000 mm 5,0 UV-I 691 W/m 16,5 C 9,7 km/h (2 Bft)
01.09.2016 14:45 21,6 C 21,7 C 75 % 1020,7 hPa 0,0 mm 2,4 km/h (1 Bft) W-SW 237 1 min 0,000 mm 4,8 UV-I 680 W/m 17,0 C 4,8 km/h (1 Bft)
01.09.2016 14:46 21,6 C 21,6 C 76 % 1020,7 hPa 0,0 mm 0,3 km/h (0 Bft) W-SW 238 1 min 0,000 mm 4,9 UV-I 680 W/m 17,2 C 1,6 km/h (1 Bft)
01.09.2016 14:47 21,6 C 21,6 C 71 % 1020,7 hPa 0,0 mm 2,7 km/h (1 Bft) W 261 1 min 0,000 mm 4,3 UV-I 680 W/m 16,1 C 4,8 km/h (1 Bft)
01.09.2016 14:48 21,6 C 21,6 C 70 % 1020,7 hPa 0,0 mm 2,3 km/h (1 Bft) W 262 1 min 0,000 mm 4,9 UV-I 689 W/m 15,9 C 4,8 km/h (1 Bft)
01.09.2016 14:49 21,6 C 21,6 C 71 % 1020,7 hPa 0,0 mm 3,0 km/h (1 Bft) W 277 1 min 0,000 mm 4,9 UV-I 684 W/m 16,1 C 4,8 km/h (1 Bft)
01.09.2016 14:50 21,6 C 21,6 C 71 % 1020,7 hPa 0,0 mm 2,9 km/h (1 Bft) W-SW 254 1 min 0,000 mm 4,9 UV-I 675 W/m 16,1 C 4,8 km/h (1 Bft)
01.09.2016 14:51 21,7 C 21,7 C 73 % 1020,6 hPa 0,0 mm 4,2 km/h (1 Bft) W 274 1 min 0,000 mm 4,9 UV-I 675 W/m 16,6 C 6,4 km/h (2 Bft)
01.09.2016 14:52 21,7 C 21,7 C 69 % 1020,7 hPa 0,0 mm 4,2 km/h (1 Bft) W 279 1 min 0,000 mm 4,9 UV-I 675 W/m 15,8 C 6,4 km/h (2 Bft)
01.09.2016 14:53 21,7 C 21,7 C 71 % 1020,6 hPa 0,0 mm 3,5 km/h (1 Bft) W-NW 283 1 min 0,000 mm 4,9 UV-I 647 W/m 16,2 C 4,8 km/h (1 Bft)
01.09.2016 14:54 21,8 C 21,8 C 75 % 1020,6 hPa 0,0 mm 3,8 km/h (1 Bft) W-SW 253 1 min 0,000 mm 4,8 UV-I 684 W/m 17,2 C 4,8 km/h (1 Bft)
01.09.2016 14:55 21,9 C 21,9 C 73 % 1020,6 hPa 0,0 mm 4,2 km/h (1 Bft) W-SW 257 1 min 0,000 mm 4,8 UV-I 705 W/m 16,8 C 6,4 km/h (2 Bft)
01.09.2016 14:56 21,9 C 21,9 C 73 % 1020,6 hPa 0,0 mm 4,5 km/h (1 Bft) W-SW 248 1 min 0,000 mm 3,4 UV-I 705 W/m 16,8 C 6,4 km/h (2 Bft)
01.09.2016 14:57 21,8 C 21,9 C 71 % 1020,6 hPa 0,0 mm 6,2 km/h (2 Bft) W-SW 241 1 min 0,000 mm 3,8 UV-I 705 W/m 16,3 C 11,3 km/h (2 Bft)
01.09.2016 14:58 21,7 C 21,8 C 66 % 1020,7 hPa 0,0 mm 6,3 km/h (2 Bft) W-SW 258 0 min 0,000 mm 3,9 UV-I 360 W/m 15,1 C 8,0 km/h (2 Bft)
01.09.2016 14:59 21,6 C 21,7 C 66 % 1020,7 hPa 0,0 mm 3,8 km/h (1 Bft) W-SW 254 0 min 0,000 mm 4,3 UV-I 341 W/m 15,0 C 6,4 km/h (2 Bft)
01.09.2016 15:00 21,5 C 21,6 C 67 % 1020,7 hPa 0,0 mm 0,7 km/h (0 Bft) W-SW 254 0 min 0,000 mm 4,4 UV-I 341 W/m 15,1 C 1,6 km/h (1 Bft)
01.09.2016 15:01 21,5 C 21,5 C 68 % 1020,7 hPa 0,0 mm 2,3 km/h (1 Bft) W 263 0 min 0,381 mm 3,1 UV-I 341 W/m 15,3 C 3,2 km/h (1 Bft)
01.09.2016 15:02 21,6 C 21,6 C 69 % 1020,7 hPa 0,0 mm 3,7 km/h (1 Bft) W-NW 301 0 min 0,000 mm 3,6 UV-I 318 W/m 15,7 C 6,4 km/h (2 Bft)
01.09.2016 15:03 21,6 C 21,6 C 70 % 1020,7 hPa 0,0 mm 5,5 km/h (1 Bft) W-SW 250 0 min 0,000 mm 3,9 UV-I 318 W/m 15,9 C 6,4 km/h (2 Bft)
01.09.2016 15:04 21,6 C 21,6 C 72 % 1020,6 hPa 0,0 mm 4,3 km/h (1 Bft) W-SW 250 0 min 0,000 mm 3,1 UV-I 318 W/m 16,3 C 6,4 km/h (2 Bft)
01.09.2016 15:05 21,6 C 21,6 C 70 % 1020,7 hPa 0,0 mm 5,0 km/h (1 Bft) W-NW 292 0 min 0,000 mm 4,1 UV-I 318 W/m 15,9 C 6,4 km/h (2 Bft)
01.09.2016 15:06 21,6 C 21,6 C 70 % 1020,6 hPa 0,0 mm 2,9 km/h (1 Bft) W 263 1 min 0,000 mm 4,0 UV-I 701 W/m 15,9 C 4,8 km/h (1 Bft)
01.09.2016 15:07 21,6 C 21,6 C 71 % 1020,6 hPa 0,0 mm 5,6 km/h (1 Bft) W-NW 290 1 min 0,000 mm 4,3 UV-I 679 W/m 16,1 C 9,7 km/h (2 Bft)
01.09.2016 15:08 21,6 C 21,6 C 71 % 1020,6 hPa 0,0 mm 3,4 km/h (1 Bft) W-NW 302 1 min 0,000 mm 4,3 UV-I 671 W/m 16,1 C 6,4 km/h (2 Bft)
01.09.2016 15:09 21,7 C 21,7 C 69 % 1020,6 hPa 0,0 mm 5,8 km/h (2 Bft) W-NW 292 1 min 0,000 mm 4,2 UV-I 654 W/m 15,8 C 8,0 km/h (2 Bft)
01.09.2016 15:10 21,7 C 21,7 C 70 % 1020,6 hPa 0,0 mm 6,2 km/h (2 Bft) W-NW 284 1 min 0,000 mm 4,2 UV-I 650 W/m 16,0 C 8,0 km/h (2 Bft)
01.09.2016 15:11 21,8 C 21,8 C 68 % 1020,6 hPa 0,0 mm 6,1 km/h (2 Bft) W-NW 289 1 min 0,000 mm 4,2 UV-I 647 W/m 15,6 C 9,7 km/h (2 Bft)
01.09.2016 15:12 21,8 C 21,8 C 69 % 1020,6 hPa 0,0 mm 7,6 km/h (2 Bft) W-SW 238 1 min 0,000 mm 4,1 UV-I 640 W/m 15,9 C 11,3 km/h (2 Bft)
01.09.2016 15:13 21,8 C 21,8 C 68 % 1020,6 hPa 0,0 mm 3,5 km/h (1 Bft) W-NW 296 1 min 0,000 mm 4,1 UV-I 647 W/m 15,6 C 4,8 km/h (1 Bft)
01.09.2016 15:14 21,7 C 21,8 C 67 % 1020,6 hPa 0,0 mm 4,0 km/h (1 Bft) W-SW 242 1 min 0,000 mm 4,1 UV-I 645 W/m 15,3 C 4,8 km/h (1 Bft)
01.09.2016 15:15 21,7 C 21,7 C 69 % 1020,6 hPa 0,0 mm 6,7 km/h (2 Bft) W-SW 243 1 min 0,000 mm 4,1 UV-I 642 W/m 15,8 C 12,9 km/h (3 Bft)
01.09.2016 15:16 21,6 C 21,7 C 67 % 1020,5 hPa 0,0 mm 7,0 km/h (2 Bft) W 277 1 min 0,000 mm 4,1 UV-I 643 W/m 15,2 C 11,3 km/h (2 Bft)
01.09.2016 15:17 21,7 C 21,7 C 68 % 1020,6 hPa 0,0 mm 3,2 km/h (1 Bft) W-SW 248 1 min 0,000 mm 4,0 UV-I 635 W/m 15,5 C 4,8 km/h (1 Bft)
01.09.2016 15:18 21,6 C 21,7 C 69 % 1020,6 hPa 0,0 mm 7,3 km/h (2 Bft) S-SW 204 1 min 0,000 mm 4,0 UV-I 631 W/m 15,7 C 9,7 km/h (2 Bft)
01.09.2016 15:19 21,7 C 21,7 C 72 % 1020,5 hPa 0,0 mm 5,9 km/h (2 Bft) NW 314 1 min 0,000 mm 4,0 UV-I 631 W/m 16,4 C 8,0 km/h (2 Bft)
01.09.2016 15:20 21,7 C 21,7 C 66 % 1020,6 hPa 0,0 mm 4,3 km/h (1 Bft) W-NW 286 1 min 0,000 mm 4,0 UV-I 631 W/m 15,1 C 8,0 km/h (2 Bft)
01.09.2016 15:21 21,7 C 21,7 C 67 % 1020,5 hPa 0,0 mm 2,7 km/h (1 Bft) NW 304 1 min 0,000 mm 4,0 UV-I 624 W/m 15,3 C 3,2 km/h (1 Bft)
01.09.2016 15:22 21,7 C 21,7 C 65 % 1020,5 hPa 0,0 mm 4,0 km/h (1 Bft) NW 311 1 min 0,000 mm 4,0 UV-I 624 W/m 14,8 C 6,4 km/h (2 Bft)
01.09.2016 15:23 21,7 C 21,7 C 66 % 1020,5 hPa 0,0 mm 5,4 km/h (1 Bft) W-NW 292 1 min 0,000 mm 4,0 UV-I 624 W/m 15,1 C 6,4 km/h (2 Bft)
01.09.2016 15:24 21,7 C 21,7 C 65 % 1020,5 hPa 0,0 mm 4,6 km/h (1 Bft) W 265 1 min 0,000 mm 4,0 UV-I 622 W/m 14,8 C 6,4 km/h (2 Bft)
01.09.2016 15:25 21,7 C 21,7 C 67 % 1020,4 hPa 0,0 mm 4,2 km/h (1 Bft) W-SW 252 1 min 0,000 mm 4,0 UV-I 624 W/m 15,3 C 6,4 km/h (2 Bft)
01.09.2016 15:26 21,8 C 21,8 C 70 % 1020,5 hPa 0,0 mm 2,0 km/h (1 Bft) S-SO 161 1 min 0,000 mm 4,1 UV-I 622 W/m 16,1 C 3,2 km/h (1 Bft)
01.09.2016 15:27 21,8 C 21,8 C 67 % 1020,4 hPa 0,0 mm 1,8 km/h (1 Bft) S-SO 161 1 min 0,000 mm 4,1 UV-I 621 W/m 15,4 C 3,2 km/h (1 Bft)
01.09.2016 15:28 21,8 C 21,8 C 65 % 1020,4 hPa 0,0 mm 0,9 km/h (0 Bft) W-SW 246 1 min 0,000 mm 4,1 UV-I 615 W/m 14,9 C 3,2 km/h (1 Bft)
01.09.2016 15:29 21,8 C 21,8 C 65 % 1020,4 hPa 0,0 mm 3,4 km/h (1 Bft) N-NW 330 1 min 0,000 mm 4,1 UV-I 613 W/m 14,9 C 4,8 km/h (1 Bft)
01.09.2016 15:30 21,8 C 21,8 C 65 % 1020,4 hPa 0,0 mm 2,8 km/h (1 Bft) W-SW 254 1 min 0,000 mm 4,1 UV-I 610 W/m 14,9 C 4,8 km/h (1 Bft)
01.09.2016 15:31 21,8 C 21,8 C 64 % 1020,4 hPa 0,0 mm 6,2 km/h (2 Bft) W-SW 240 1 min 0,000 mm 4,1 UV-I 608 W/m 14,7 C 8,0 km/h (2 Bft)
01.09.2016 15:32 21,8 C 21,8 C 66 % 1020,4 hPa 0,0 mm 3,4 km/h (1 Bft) W-SW 244 1 min 0,000 mm 4,1 UV-I 608 W/m 15,2 C 4,8 km/h (1 Bft)
01.09.2016 15:33 21,8 C 21,8 C 63 % 1020,3 hPa 0,0 mm 1,1 km/h (1 Bft) W-SW 244 1 min 0,000 mm 4,1 UV-I 605 W/m 14,4 C 3,2 km/h (1 Bft)
01.09.2016 15:34 21,8 C 21,8 C 64 % 1020,4 hPa 0,0 mm 2,6 km/h (1 Bft) W-SW 242 1 min 0,000 mm 4,1 UV-I 601 W/m 14,7 C 8,0 km/h (2 Bft)
01.09.2016 15:35 21,8 C 21,9 C 63 % 1020,4 hPa 0,0 mm 3,8 km/h (1 Bft) S-SW 209 1 min 0,000 mm 4,1 UV-I 601 W/m 14,4 C 4,8 km/h (1 Bft)
01.09.2016 15:36 21,9 C 21,9 C 60 % 1020,4 hPa 0,0 mm 2,4 km/h (1 Bft) SW 215 1 min 0,000 mm 4,1 UV-I 599 W/m 13,8 C 4,8 km/h (1 Bft)
01.09.2016 15:37 21,9 C 21,9 C 61 % 1020,4 hPa 0,0 mm 1,6 km/h (1 Bft) SW 215 1 min 0,000 mm 4,0 UV-I 598 W/m 14,0 C 3,2 km/h (1 Bft)
01.09.2016 15:38 21,9 C 21,9 C 65 % 1020,4 hPa 0,0 mm 3,5 km/h (1 Bft) W-SW 242 1 min 0,000 mm 4,0 UV-I 598 W/m 15,0 C 6,4 km/h (2 Bft)
01.09.2016 15:39 21,9 C 21,9 C 66 % 1020,4 hPa 0,0 mm 3,4 km/h (1 Bft) W-SW 244 1 min 0,000 mm 4,0 UV-I 594 W/m 15,3 C 4,8 km/h (1 Bft)
01.09.2016 15:40 21,9 C 21,9 C 65 % 1020,4 hPa 0,0 mm 2,2 km/h (1 Bft) W-SW 257 1 min 0,000 mm 4,0 UV-I 587 W/m 15,0 C 6,4 km/h (2 Bft)
01.09.2016 15:41 21,9 C 21,9 C 65 % 1020,4 hPa 0,0 mm 3,1 km/h (1 Bft) S-SW 196 1 min 0,000 mm 3,9 UV-I 587 W/m 15,0 C 4,8 km/h (1 Bft)
01.09.2016 15:42 21,9 C 22,0 C 67 % 1020,3 hPa 0,0 mm 1,9 km/h (1 Bft) S-SW 196 1 min 0,000 mm 4,0 UV-I 587 W/m 15,5 C 3,2 km/h (1 Bft)
01.09.2016 15:43 22,0 C 22,0 C 68 % 1020,4 hPa 0,0 mm 0,9 km/h (0 Bft) S-SW 196 1 min 0,000 mm 4,0 UV-I 589 W/m 15,8 C 3,2 km/h (1 Bft)
01.09.2016 15:44 22,0 C 22,1 C 64 % 1020,4 hPa 0,0 mm 0,1 km/h (0 Bft) S-SW 196 1 min 0,000 mm 3,9 UV-I 587 W/m 14,9 C 1,6 km/h (1 Bft)
01.09.2016 15:45 22,0 C 22,1 C 70 % 1020,4 hPa 0,0 mm 0,9 km/h (0 Bft) S-SW 196 1 min 0,000 mm 3,9 UV-I 584 W/m 16,3 C 1,6 km/h (1 Bft)
01.09.2016 15:46 21,8 C 22,0 C 69 % 1020,4 hPa 0,0 mm 1,7 km/h (1 Bft) N 5 1 min 0,000 mm 3,9 UV-I 585 W/m 15,9 C 8,0 km/h (2 Bft)
01.09.2016 15:47 21,6 C 21,8 C 71 % 1020,4 hPa 0,0 mm 3,4 km/h (1 Bft) NW 320 1 min 0,000 mm 3,9 UV-I 584 W/m 16,1 C 8,0 km/h (2 Bft)
01.09.2016 15:48 21,6 C 21,6 C 67 % 1020,4 hPa 0,0 mm 1,7 km/h (1 Bft) W-NW 300 1 min 0,000 mm 3,9 UV-I 582 W/m 15,2 C 4,8 km/h (1 Bft)
01.09.2016 15:49 21,7 C 21,7 C 62 % 1020,4 hPa 0,0 mm 4,8 km/h (1 Bft) W-NW 301 1 min 0,000 mm 3,8 UV-I 578 W/m 14,1 C 6,4 km/h (2 Bft)
01.09.2016 15:50 21,8 C 21,8 C 63 % 1020,4 hPa 0,0 mm 3,5 km/h (1 Bft) W-NW 300 1 min 0,000 mm 3,8 UV-I 580 W/m 14,4 C 4,8 km/h (1 Bft)
01.09.2016 15:51 21,9 C 21,9 C 60 % 1020,4 hPa 0,0 mm 5,2 km/h (1 Bft) W-NW 300 1 min 0,000 mm 3,8 UV-I 580 W/m 13,8 C 6,4 km/h (2 Bft)
01.09.2016 15:52 21,9 C 21,9 C 60 % 1020,3 hPa 0,0 mm 4,8 km/h (1 Bft) W-NW 286 1 min 0,000 mm 3,8 UV-I 578 W/m 13,8 C 6,4 km/h (2 Bft)
01.09.2016 15:53 22,1 C 22,1 C 60 % 1020,3 hPa 0,0 mm 4,0 km/h (1 Bft) W-NW 290 1 min 0,000 mm 3,8 UV-I 577 W/m 14,0 C 6,4 km/h (2 Bft)
01.09.2016 15:54 22,1 C 22,1 C 59 % 1020,4 hPa 0,0 mm 2,2 km/h (1 Bft) W-NW 290 1 min 0,000 mm 3,8 UV-I 573 W/m 13,7 C 4,8 km/h (1 Bft)
01.09.2016 15:55 22,1 C 22,1 C 56 % 1020,3 hPa 0,0 mm 1,0 km/h (0 Bft) W-NW 290 1 min 0,000 mm 3,7 UV-I 570 W/m 12,9 C 1,6 km/h (1 Bft)
01.09.2016 15:56 22,2 C 22,2 C 59 % 1020,4 hPa 0,0 mm 4,5 km/h (1 Bft) W 280 1 min 0,000 mm 3,7 UV-I 564 W/m 13,8 C 9,7 km/h (2 Bft)
01.09.2016 15:57 22,2 C 22,2 C 61 % 1020,3 hPa 0,0 mm 3,5 km/h (1 Bft) W-NW 298 1 min 0,000 mm 3,7 UV-I 564 W/m 14,3 C 4,8 km/h (1 Bft)
01.09.2016 15:58 22,2 C 22,2 C 56 % 1020,3 hPa 0,0 mm 3,3 km/h (1 Bft) W-NW 300 1 min 0,000 mm 3,6 UV-I 559 W/m 13,0 C 4,8 km/h (1 Bft)
01.09.2016 15:59 22,2 C 22,2 C 59 % 1020,3 hPa 0,0 mm 2,8 km/h (1 Bft) NW 317 1 min 0,000 mm 3,6 UV-I 557 W/m 13,8 C 4,8 km/h (1 Bft)
01.09.2016 16:00 22,2 C 22,2 C 57 % 1020,3 hPa 0,0 mm 2,3 km/h (1 Bft) NW 317 1 min 0,000 mm 3,6 UV-I 552 W/m 13,3 C 3,2 km/h (1 Bft)
01.09.2016 16:01 22,2 C 22,2 C 56 % 1020,3 hPa 0,0 mm 2,5 km/h (1 Bft) NW 317 1 min 0,381 mm 3,6 UV-I 548 W/m 13,0 C 3,2 km/h (1 Bft)
01.09.2016 16:02 22,3 C 22,3 C 57 % 1020,3 hPa 0,0 mm 1,2 km/h (1 Bft) NW 317 1 min 0,000 mm 3,6 UV-I 548 W/m 13,4 C 3,2 km/h (1 Bft)
01.09.2016 16:03 22,3 C 22,3 C 59 % 1020,4 hPa 0,0 mm 2,4 km/h (1 Bft) W-SW 254 1 min 0,000 mm 3,5 UV-I 547 W/m 13,9 C 4,8 km/h (1 Bft)
01.09.2016 16:04 22,2 C 22,3 C 58 % 1020,4 hPa 0,0 mm 2,8 km/h (1 Bft) W-SW 255 1 min 0,000 mm 3,5 UV-I 543 W/m 13,5 C 4,8 km/h (1 Bft)
01.09.2016 16:05 22,2 C 22,2 C 58 % 1020,4 hPa 0,0 mm 1,4 km/h (1 Bft) S-SW 206 1 min 0,000 mm 3,5 UV-I 541 W/m 13,5 C 3,2 km/h (1 Bft)
01.09.2016 16:06 22,2 C 22,2 C 53 % 1020,4 hPa 0,0 mm 2,4 km/h (1 Bft) S-SW 194 1 min 0,000 mm 3,4 UV-I 541 W/m 12,2 C 4,8 km/h (1 Bft)
01.09.2016 16:07 22,2 C 22,2 C 57 % 1020,4 hPa 0,0 mm 3,9 km/h (1 Bft) S 172 1 min 0,000 mm 3,4 UV-I 534 W/m 13,3 C 6,4 km/h (2 Bft)
01.09.2016 16:08 22,2 C 22,2 C 56 % 1020,4 hPa 0,0 mm 4,9 km/h (1 Bft) S-SW 194 1 min 0,000 mm 3,4 UV-I 533 W/m 13,0 C 6,4 km/h (2 Bft)
01.09.2016 16:09 22,2 C 22,2 C 56 % 1020,3 hPa 0,0 mm 3,1 km/h (1 Bft) S 191 1 min 0,000 mm 3,4 UV-I 531 W/m 13,0 C 4,8 km/h (1 Bft)
01.09.2016 16:10 22,2 C 22,2 C 57 % 1020,3 hPa 0,0 mm 2,3 km/h (1 Bft) S 191 1 min 0,000 mm 3,4 UV-I 529 W/m 13,3 C 3,2 km/h (1 Bft)
01.09.2016 16:11 22,0 C 22,2 C 66 % 1020,4 hPa 0,0 mm 1,4 km/h (1 Bft) S 191 1 min 0,000 mm 3,4 UV-I 527 W/m 15,3 C 3,2 km/h (1 Bft)
01.09.2016 16:12 21,8 C 22,0 C 63 % 1020,3 hPa 0,0 mm 1,4 km/h (1 Bft) S 188 1 min 0,000 mm 3,4 UV-I 526 W/m 14,4 C 3,2 km/h (1 Bft)
01.09.2016 16:13 21,9 C 21,9 C 58 % 1020,3 hPa 0,0 mm 0,3 km/h (0 Bft) S 188 1 min 0,000 mm 3,3 UV-I 522 W/m 13,3 C 1,6 km/h (1 Bft)
01.09.2016 16:14 21,9 C 21,9 C 56 % 1020,4 hPa 0,0 mm 0,0 km/h (0 Bft) S 188 1 min 0,000 mm 3,3 UV-I 519 W/m 12,7 C 0,0 km/h (0 Bft)
01.09.2016 16:15 22,0 C 22,0 C 56 % 1020,3 hPa 0,0 mm 1,1 km/h (1 Bft) S 188 1 min 0,000 mm 3,1 UV-I 503 W/m 12,8 C 3,2 km/h (1 Bft)
01.09.2016 16:16 21,9 C 22,0 C 61 % 1020,3 hPa 0,0 mm 3,6 km/h (1 Bft) SO 140 1 min 0,000 mm 2,7 UV-I 492 W/m 14,0 C 4,8 km/h (1 Bft)
01.09.2016 16:17 21,8 C 21,9 C 62 % 1020,3 hPa 0,0 mm 3,6 km/h (1 Bft) SO 140 1 min 0,000 mm 2,4 UV-I 492 W/m 14,2 C 4,8 km/h (1 Bft)
01.09.2016 16:18 21,7 C 21,8 C 63 % 1020,3 hPa 0,0 mm 2,3 km/h (1 Bft) SO 140 1 min 0,000 mm 2,0 UV-I 492 W/m 14,3 C 3,2 km/h (1 Bft)
01.09.2016 16:19 21,7 C 21,7 C 62 % 1020,3 hPa 0,0 mm 2,6 km/h (1 Bft) SO 140 0 min 0,000 mm 1,9 UV-I 153 W/m 14,1 C 3,2 km/h (1 Bft)
01.09.2016 16:20 21,7 C 21,7 C 65 % 1020,3 hPa 0,0 mm 0,6 km/h (0 Bft) SO 140 0 min 0,000 mm 1,9 UV-I 139 W/m 14,8 C 1,6 km/h (1 Bft)
01.09.2016 16:21 21,7 C 21,7 C 65 % 1020,3 hPa 0,0 mm 0,8 km/h (0 Bft) SO 140 0 min 0,000 mm 1,9 UV-I 62 W/m 14,8 C 1,6 km/h (1 Bft)
01.09.2016 16:22 21,7 C 21,7 C 64 % 1020,3 hPa 0,0 mm 0,3 km/h (0 Bft) SO 140 0 min 0,000 mm 1,9 UV-I 70 W/m 14,6 C 1,6 km/h (1 Bft)
01.09.2016 16:23 21,6 C 21,7 C 67 % 1020,3 hPa 0,0 mm 0,6 km/h (0 Bft) SO 140 0 min 0,000 mm 1,9 UV-I 83 W/m 15,2 C 1,6 km/h (1 Bft)
01.09.2016 16:24 21,4 C 21,6 C 68 % 1020,3 hPa 0,0 mm 0,6 km/h (0 Bft) SO 140 0 min 0,000 mm 1,8 UV-I 62 W/m 15,2 C 1,6 km/h (1 Bft)
01.09.2016 16:25 21,4 C 21,4 C 68 % 1020,2 hPa 0,0 mm 0,6 km/h (0 Bft) SO 140 0 min 0,000 mm 1,8 UV-I 58 W/m 15,2 C 1,6 km/h (1 Bft)
01.09.2016 16:26 21,3 C 21,4 C 67 % 1020,3 hPa 0,0 mm 1,9 km/h (1 Bft) SO 140 0 min 0,000 mm 1,9 UV-I 62 W/m 14,9 C 3,2 km/h (1 Bft)
01.09.2016 16:27 21,3 C 21,3 C 69 % 1020,3 hPa 0,0 mm 2,8 km/h (1 Bft) SO 140 0 min 0,000 mm 1,9 UV-I 74 W/m 15,4 C 4,8 km/h (1 Bft)
01.09.2016 16:28 21,3 C 21,3 C 67 % 1020,4 hPa 0,0 mm 2,7 km/h (1 Bft) SO 140 0 min 0,000 mm 1,8 UV-I 58 W/m 14,9 C 4,8 km/h (1 Bft)
01.09.2016 16:29 21,3 C 21,3 C 67 % 1020,3 hPa 0,0 mm 1,1 km/h (1 Bft) SO 140 0 min 0,000 mm 1,8 UV-I 58 W/m 14,9 C 1,6 km/h (1 Bft)
01.09.2016 16:30 21,3 C 21,3 C 68 % 1020,3 hPa 0,0 mm 2,3 km/h (1 Bft) SO 140 0 min 0,000 mm 1,8 UV-I 65 W/m 15,1 C 3,2 km/h (1 Bft)
01.09.2016 16:31 21,4 C 21,4 C 65 % 1020,3 hPa 0,0 mm 1,3 km/h (1 Bft) SO 140 0 min 0,000 mm 1,9 UV-I 98 W/m 14,5 C 3,2 km/h (1 Bft)
01.09.2016 16:32 21,4 C 21,4 C 67 % 1020,3 hPa 0,0 mm 0,9 km/h (0 Bft) SO 140 0 min 0,000 mm 1,9 UV-I 135 W/m 15,0 C 3,2 km/h (1 Bft)
01.09.2016 16:33 21,3 C 21,4 C 68 % 1020,3 hPa 0,0 mm 1,1 km/h (1 Bft) SO 140 0 min 0,000 mm 1,8 UV-I 84 W/m 15,1 C 3,2 km/h (1 Bft)
01.09.2016 16:34 21,3 C 21,3 C 73 % 1020,3 hPa 0,0 mm 0,5 km/h (0 Bft) SO 140 0 min 0,000 mm 1,8 UV-I 88 W/m 16,3 C 1,6 km/h (1 Bft)
01.09.2016 16:35 21,2 C 21,3 C 69 % 1020,3 hPa 0,0 mm 1,3 km/h (1 Bft) SO 140 0 min 0,000 mm 1,8 UV-I 69 W/m 15,3 C 3,2 km/h (1 Bft)
01.09.2016 16:36 21,1 C 21,2 C 75 % 1020,1 hPa 0,0 mm 1,1 km/h (1 Bft) SO 140 0 min 0,000 mm 1,8 UV-I 63 W/m 16,5 C 1,6 km/h (1 Bft)
01.09.2016 16:37 21,1 C 21,1 C 68 % 1020,2 hPa 0,0 mm 2,7 km/h (1 Bft) SO 140 0 min 0,000 mm 1,8 UV-I 62 W/m 15,0 C 4,8 km/h (1 Bft)
01.09.2016 16:38 21,2 C 21,2 C 64 % 1020,2 hPa 0,0 mm 0,8 km/h (0 Bft) SO 140 0 min 0,000 mm 1,7 UV-I 62 W/m 14,1 C 3,2 km/h (1 Bft)
01.09.2016 16:39 21,4 C 21,4 C 64 % 1020,3 hPa 0,0 mm 0,1 km/h (0 Bft) SO 140 0 min 0,000 mm 1,7 UV-I 62 W/m 14,3 C 1,6 km/h (1 Bft)
01.09.2016 16:40 21,5 C 21,5 C 67 % 1020,3 hPa 0,0 mm 1,1 km/h (1 Bft) SO 140 0 min 0,000 mm 1,7 UV-I 60 W/m 15,1 C 1,6 km/h (1 Bft)
01.09.2016 16:41 21,7 C 21,7 C 67 % 1020,3 hPa 0,0 mm 0,4 km/h (0 Bft) SO 140 0 min 0,000 mm 1,7 UV-I 60 W/m 15,3 C 1,6 km/h (1 Bft)
01.09.2016 16:42 21,7 C 21,7 C 68 % 1020,3 hPa 0,0 mm 1,7 km/h (1 Bft) W-SW 244 0 min 0,000 mm 1,7 UV-I 60 W/m 15,5 C 4,8 km/h (1 Bft)
01.09.2016 16:43 21,7 C 21,7 C 69 % 1020,3 hPa 0,0 mm 4,8 km/h (1 Bft) W-SW 250 0 min 0,000 mm 1,7 UV-I 60 W/m 15,8 C 6,4 km/h (2 Bft)
01.09.2016 16:44 21,7 C 21,7 C 65 % 1020,2 hPa 0,0 mm 6,3 km/h (2 Bft) W-SW 246 0 min 0,000 mm 1,7 UV-I 58 W/m 14,8 C 8,0 km/h (2 Bft)
01.09.2016 16:45 21,7 C 21,7 C 65 % 1020,2 hPa 0,0 mm 2,5 km/h (1 Bft) W 260 0 min 0,000 mm 1,6 UV-I 58 W/m 14,8 C 6,4 km/h (2 Bft)
01.09.2016 16:46 21,8 C 21,8 C 65 % 1020,2 hPa 0,0 mm 0,9 km/h (0 Bft) W 260 0 min 0,000 mm 1,6 UV-I 58 W/m 14,9 C 1,6 km/h (1 Bft)
01.09.2016 16:47 21,8 C 21,8 C 64 % 1020,1 hPa 0,0 mm 2,4 km/h (1 Bft) W 260 0 min 0,000 mm 1,6 UV-I 58 W/m 14,7 C 3,2 km/h (1 Bft)
01.09.2016 16:48 21,8 C 21,8 C 66 % 1020,1 hPa 0,0 mm 3,6 km/h (1 Bft) W 259 0 min 0,000 mm 1,6 UV-I 58 W/m 15,2 C 4,8 km/h (1 Bft)
01.09.2016 16:49 21,8 C 21,8 C 64 % 1020,1 hPa 0,0 mm 2,3 km/h (1 Bft) W 259 0 min 0,000 mm 1,6 UV-I 58 W/m 14,7 C 3,2 km/h (1 Bft)
01.09.2016 16:50 21,8 C 21,8 C 66 % 1020,1 hPa 0,0 mm 2,4 km/h (1 Bft) W 259 0 min 0,000 mm 1,6 UV-I 63 W/m 15,2 C 3,2 km/h (1 Bft)
01.09.2016 16:51 21,8 C 21,8 C 64 % 1020,1 hPa 0,0 mm 1,1 km/h (1 Bft) W 259 0 min 0,000 mm 1,6 UV-I 65 W/m 14,7 C 1,6 km/h (1 Bft)
01.09.2016 16:52 21,8 C 21,8 C 63 % 1020,1 hPa 0,0 mm 1,4 km/h (1 Bft) W 263 0 min 0,000 mm 0,0 UV-I 53 W/m 14,4 C 3,2 km/h (1 Bft)
01.09.2016 16:53 21,8 C 21,8 C 64 % 1020,1 hPa 0,0 mm 1,5 km/h (1 Bft) W 263 0 min 0,000 mm 0,0 UV-I 53 W/m 14,7 C 3,2 km/h (1 Bft)
01.09.2016 16:54 21,7 C 21,8 C 70 % 1020,1 hPa 0,0 mm 1,5 km/h (1 Bft) W 263 0 min 0,000 mm 1,6 UV-I 60 W/m 16,0 C 1,6 km/h (1 Bft)
01.09.2016 16:55 21,6 C 21,7 C 72 % 1020,1 hPa 0,0 mm 2,5 km/h (1 Bft) N-NW 329 0 min 0,000 mm 1,5 UV-I 60 W/m 16,3 C 4,8 km/h (1 Bft)
01.09.2016 16:56 21,6 C 21,6 C 69 % 1020,1 hPa 0,0 mm 2,8 km/h (1 Bft) N-NW 340 0 min 0,000 mm 1,5 UV-I 62 W/m 15,7 C 3,2 km/h (1 Bft)
01.09.2016 16:57 21,7 C 21,7 C 69 % 1020,1 hPa 0,0 mm 5,3 km/h (1 Bft) W-NW 298 0 min 0,000 mm 1,5 UV-I 62 W/m 15,8 C 9,7 km/h (2 Bft)
01.09.2016 16:58 21,7 C 21,7 C 66 % 1020,1 hPa 0,0 mm 3,1 km/h (1 Bft) W-NW 298 0 min 0,000 mm 1,5 UV-I 62 W/m 15,1 C 4,8 km/h (1 Bft)
01.09.2016 16:59 21,8 C 21,8 C 68 % 1020,1 hPa 0,0 mm 3,6 km/h (1 Bft) W-NW 292 0 min 0,000 mm 1,5 UV-I 65 W/m 15,6 C 6,4 km/h (2 Bft)
01.09.2016 17:00 21,8 C 21,8 C 64 % 1020,1 hPa 0,0 mm 1,8 km/h (1 Bft) W-NW 292 0 min 0,000 mm 1,5 UV-I 63 W/m 14,7 C 3,2 km/h (1 Bft)
01.09.2016 17:01 21,8 C 21,8 C 61 % 1020,1 hPa 0,0 mm 2,1 km/h (1 Bft) W-NW 292 0 min 0,127 mm 1,5 UV-I 62 W/m 13,9 C 3,2 km/h (1 Bft)
01.09.2016 17:02 21,9 C 21,9 C 62 % 1020,1 hPa 0,0 mm 3,3 km/h (1 Bft) W-SW 238 0 min 0,000 mm 1,5 UV-I 62 W/m 14,3 C 6,4 km/h (2 Bft)
01.09.2016 17:03 21,9 C 21,9 C 63 % 1020,1 hPa 0,0 mm 4,2 km/h (1 Bft) S-SW 207 0 min 0,000 mm 1,5 UV-I 62 W/m 14,5 C 6,4 km/h (2 Bft)
01.09.2016 17:04 21,9 C 21,9 C 62 % 1020,1 hPa 0,0 mm 1,5 km/h (1 Bft) S-SW 200 0 min 0,000 mm 1,5 UV-I 62 W/m 14,3 C 3,2 km/h (1 Bft)
01.09.2016 17:05 21,9 C 21,9 C 64 % 1020,1 hPa 0,0 mm 1,5 km/h (1 Bft) SW 218 0 min 0,000 mm 1,5 UV-I 62 W/m 14,8 C 3,2 km/h (1 Bft)
01.09.2016 17:06 21,9 C 21,9 C 65 % 1020,1 hPa 0,0 mm 2,5 km/h (1 Bft) W-SW 242 0 min 0,000 mm 1,5 UV-I 62 W/m 15,0 C 4,8 km/h (1 Bft)
01.09.2016 17:07 21,9 C 21,9 C 63 % 1020,1 hPa 0,0 mm 4,4 km/h (1 Bft) W 267 0 min 0,000 mm 1,5 UV-I 62 W/m 14,5 C 8,0 km/h (2 Bft)
01.09.2016 17:08 22,0 C 22,0 C 63 % 1020,1 hPa 0,0 mm 4,2 km/h (1 Bft) W-NW 298 0 min 0,000 mm 1,4 UV-I 62 W/m 14,6 C 4,8 km/h (1 Bft)
01.09.2016 17:09 22,1 C 22,1 C 62 % 1020,0 hPa 0,0 mm 4,0 km/h (1 Bft) W-NW 300 0 min 0,000 mm 1,4 UV-I 62 W/m 14,5 C 6,4 km/h (2 Bft)
01.09.2016 17:10 22,1 C 22,1 C 63 % 1020,0 hPa 0,0 mm 5,0 km/h (1 Bft) NW 313 0 min 0,000 mm 1,4 UV-I 65 W/m 14,7 C 6,4 km/h (2 Bft)
01.09.2016 17:11 22,2 C 22,2 C 64 % 1020,1 hPa 0,0 mm 4,1 km/h (1 Bft) W 275 0 min 0,000 mm 1,4 UV-I 65 W/m 15,1 C 6,4 km/h (2 Bft)
01.09.2016 17:12 22,2 C 22,2 C 64 % 1020,1 hPa 0,0 mm 5,2 km/h (1 Bft) W-NW 286 0 min 0,000 mm 1,4 UV-I 63 W/m 15,1 C 9,7 km/h (2 Bft)
01.09.2016 17:13 22,2 C 22,2 C 65 % 1020,1 hPa 0,0 mm 4,0 km/h (1 Bft) W-SW 248 0 min 0,000 mm 1,4 UV-I 65 W/m 15,3 C 6,4 km/h (2 Bft)
01.09.2016 17:14 22,3 C 22,3 C 65 % 1020,1 hPa 0,0 mm 3,8 km/h (1 Bft) W-SW 242 0 min 0,000 mm 1,4 UV-I 65 W/m 15,4 C 4,8 km/h (1 Bft)
01.09.2016 17:15 22,2 C 22,3 C 64 % 1020,1 hPa 0,0 mm 2,1 km/h (1 Bft) W-SW 240 0 min 0,000 mm 1,4 UV-I 67 W/m 15,1 C 3,2 km/h (1 Bft)
01.09.2016 17:16 22,2 C 22,3 C 66 % 1020,1 hPa 0,0 mm 5,7 km/h (1 Bft) W-NW 286 0 min 0,000 mm 1,4 UV-I 69 W/m 15,5 C 9,7 km/h (2 Bft)
01.09.2016 17:17 22,2 C 22,2 C 66 % 1020,1 hPa 0,0 mm 5,0 km/h (1 Bft) W 273 0 min 0,000 mm 1,4 UV-I 72 W/m 15,5 C 6,4 km/h (2 Bft)
01.09.2016 17:18 22,2 C 22,2 C 64 % 1020,1 hPa 0,0 mm 5,3 km/h (1 Bft) NW 308 0 min 0,000 mm 1,4 UV-I 74 W/m 15,1 C 6,4 km/h (2 Bft)
01.09.2016 17:19 22,2 C 22,2 C 64 % 1020,1 hPa 0,0 mm 4,2 km/h (1 Bft) W-NW 282 0 min 0,000 mm 1,4 UV-I 72 W/m 15,1 C 6,4 km/h (2 Bft)
01.09.2016 17:20 22,2 C 22,2 C 64 % 1020,1 hPa 0,0 mm 5,5 km/h (1 Bft) N-NO 17 0 min 0,000 mm 1,4 UV-I 74 W/m 15,1 C 8,0 km/h (2 Bft)
01.09.2016 17:21 22,2 C 22,2 C 64 % 1020,1 hPa 0,0 mm 3,8 km/h (1 Bft) W 261 0 min 0,000 mm 1,3 UV-I 76 W/m 15,1 C 6,4 km/h (2 Bft)
01.09.2016 17:22 22,2 C 22,2 C 61 % 1020,1 hPa 0,0 mm 3,0 km/h (1 Bft) W-NW 282 0 min 0,000 mm 1,3 UV-I 77 W/m 14,3 C 4,8 km/h (1 Bft)
01.09.2016 17:23 22,2 C 22,2 C 64 % 1020,1 hPa 0,0 mm 3,4 km/h (1 Bft) W-NW 301 0 min 0,000 mm 1,3 UV-I 79 W/m 15,1 C 4,8 km/h (1 Bft)
01.09.2016 17:24 22,1 C 22,2 C 62 % 1020,1 hPa 0,0 mm 1,7 km/h (1 Bft) W-NW 301 0 min 0,000 mm 1,3 UV-I 83 W/m 14,5 C 3,2 km/h (1 Bft)
01.09.2016 17:25 22,2 C 22,2 C 63 % 1020,1 hPa 0,0 mm 2,2 km/h (1 Bft) W-NW 296 0 min 0,000 mm 1,3 UV-I 84 W/m 14,8 C 4,8 km/h (1 Bft)
01.09.2016 17:26 22,2 C 22,2 C 65 % 1020,1 hPa 0,0 mm 4,4 km/h (1 Bft) W 281 0 min 0,000 mm 1,3 UV-I 86 W/m 15,3 C 6,4 km/h (2 Bft)
01.09.2016 17:27 22,1 C 22,2 C 64 % 1020,1 hPa 0,0 mm 6,4 km/h (2 Bft) NW 311 0 min 0,000 mm 1,3 UV-I 88 W/m 15,0 C 9,7 km/h (2 Bft)
01.09.2016 17:28 22,2 C 22,2 C 65 % 1020,2 hPa 0,0 mm 4,4 km/h (1 Bft) W-NW 293 0 min 0,000 mm 1,3 UV-I 88 W/m 15,3 C 6,4 km/h (2 Bft)
01.09.2016 17:29 22,2 C 22,2 C 63 % 1020,1 hPa 0,0 mm 5,3 km/h (1 Bft) W-NW 286 0 min 0,000 mm 1,3 UV-I 86 W/m 14,8 C 9,7 km/h (2 Bft)
01.09.2016 17:30 22,1 C 22,2 C 65 % 1020,1 hPa 0,0 mm 7,2 km/h (2 Bft) W 281 0 min 0,000 mm 1,3 UV-I 84 W/m 15,2 C 11,3 km/h (2 Bft)
01.09.2016 17:31 22,1 C 22,1 C 62 % 1020,1 hPa 0,0 mm 8,6 km/h (2 Bft) W-NW 283 0 min 0,000 mm 1,3 UV-I 84 W/m 14,5 C 11,3 km/h (2 Bft)
01.09.2016 17:32 22,1 C 22,1 C 61 % 1020,1 hPa 0,0 mm 7,0 km/h (2 Bft) W 267 0 min 0,000 mm 1,3 UV-I 84 W/m 14,2 C 11,3 km/h (2 Bft)
01.09.2016 17:33 22,1 C 22,1 C 62 % 1020,1 hPa 0,0 mm 3,8 km/h (1 Bft) NW 315 0 min 0,000 mm 1,3 UV-I 86 W/m 14,5 C 4,8 km/h (1 Bft)
01.09.2016 17:34 22,0 C 22,1 C 62 % 1020,1 hPa 0,0 mm 2,6 km/h (1 Bft) W-NW 297 0 min 0,000 mm 1,2 UV-I 86 W/m 14,4 C 4,8 km/h (1 Bft)
01.09.2016 17:35 22,0 C 22,0 C 64 % 1020,1 hPa 0,0 mm 1,4 km/h (1 Bft) W-NW 297 0 min 0,000 mm 1,2 UV-I 86 W/m 14,9 C 3,2 km/h (1 Bft)
01.09.2016 17:36 21,9 C 22,0 C 63 % 1020,1 hPa 0,0 mm 2,7 km/h (1 Bft) NW 309 0 min 0,000 mm 1,2 UV-I 86 W/m 14,5 C 4,8 km/h (1 Bft)
01.09.2016 17:37 21,9 C 21,9 C 64 % 1020,1 hPa 0,0 mm 2,7 km/h (1 Bft) W-NW 288 0 min 0,000 mm 1,2 UV-I 84 W/m 14,8 C 4,8 km/h (1 Bft)
01.09.2016 17:38 21,9 C 21,9 C 63 % 1020,1 hPa 0,0 mm 4,2 km/h (1 Bft) W 259 0 min 0,000 mm 1,2 UV-I 84 W/m 14,5 C 9,7 km/h (2 Bft)
01.09.2016 17:39 21,9 C 21,9 C 63 % 1020,1 hPa 0,0 mm 5,1 km/h (1 Bft) W 266 0 min 0,000 mm 1,1 UV-I 83 W/m 14,5 C 6,4 km/h (2 Bft)
01.09.2016 17:40 21,9 C 21,9 C 59 % 1020,2 hPa 0,0 mm 4,0 km/h (1 Bft) W 265 0 min 0,000 mm 1,1 UV-I 83 W/m 13,5 C 4,8 km/h (1 Bft)
01.09.2016 17:41 21,8 C 21,9 C 62 % 1020,1 hPa 0,0 mm 5,7 km/h (1 Bft) W 266 0 min 0,000 mm 1,1 UV-I 84 W/m 14,2 C 8,0 km/h (2 Bft)
01.09.2016 17:42 21,8 C 21,8 C 62 % 1020,1 hPa 0,0 mm 4,9 km/h (1 Bft) W-NW 288 0 min 0,000 mm 1,1 UV-I 90 W/m 14,2 C 9,7 km/h (2 Bft)
01.09.2016 17:43 21,8 C 21,8 C 62 % 1020,1 hPa 0,0 mm 6,6 km/h (2 Bft) W 274 0 min 0,000 mm 1,1 UV-I 105 W/m 14,2 C 9,7 km/h (2 Bft)
01.09.2016 17:44 21,7 C 21,8 C 63 % 1020,1 hPa 0,0 mm 5,1 km/h (1 Bft) W 275 0 min 0,000 mm 1,2 UV-I 113 W/m 14,3 C 9,7 km/h (2 Bft)
01.09.2016 17:45 21,7 C 21,8 C 62 % 1020,2 hPa 0,0 mm 3,8 km/h (1 Bft) W-NW 284 0 min 0,000 mm 1,2 UV-I 121 W/m 14,1 C 4,8 km/h (1 Bft)
01.09.2016 17:46 21,8 C 21,8 C 63 % 1020,1 hPa 0,0 mm 2,3 km/h (1 Bft) W-NW 284 0 min 0,000 mm 1,2 UV-I 121 W/m 14,4 C 3,2 km/h (1 Bft)
01.09.2016 17:47 21,8 C 21,8 C 63 % 1020,2 hPa 0,0 mm 3,6 km/h (1 Bft) NW 321 0 min 0,000 mm 1,2 UV-I 132 W/m 14,4 C 4,8 km/h (1 Bft)
01.09.2016 17:48 21,9 C 21,9 C 65 % 1020,2 hPa 0,0 mm 4,6 km/h (1 Bft) N 11 0 min 0,000 mm 1,2 UV-I 134 W/m 15,0 C 8,0 km/h (2 Bft)
01.09.2016 17:49 22,0 C 22,1 C 67 % 1020,3 hPa 0,0 mm 11,3 km/h (2 Bft) N-NO 26 0 min 0,000 mm 1,2 UV-I 123 W/m 15,6 C 16,1 km/h (3 Bft)
01.09.2016 17:50 21,9 C 22,0 C 68 % 1020,2 hPa 0,0 mm 11,3 km/h (2 Bft) N 5 0 min 0,000 mm 1,2 UV-I 121 W/m 15,7 C 14,5 km/h (3 Bft)
01.09.2016 17:51 21,7 C 21,9 C 68 % 1020,2 hPa 0,0 mm 7,3 km/h (2 Bft) N 360 0 min 0,000 mm 1,2 UV-I 120 W/m 15,5 C 12,9 km/h (3 Bft)
01.09.2016 17:52 21,6 C 21,7 C 69 % 1020,2 hPa 0,0 mm 6,7 km/h (2 Bft) N 5 0 min 0,000 mm 1,2 UV-I 120 W/m 15,7 C 9,7 km/h (2 Bft)
01.09.2016 17:53 21,5 C 21,6 C 70 % 1020,1 hPa 0,0 mm 5,4 km/h (1 Bft) N-NW 332 0 min 0,000 mm 1,1 UV-I 118 W/m 15,8 C 8,0 km/h (2 Bft)
01.09.2016 17:54 21,4 C 21,5 C 71 % 1020,1 hPa 0,0 mm 5,8 km/h (2 Bft) NW 312 0 min 0,000 mm 1,1 UV-I 116 W/m 15,9 C 9,7 km/h (2 Bft)
01.09.2016 17:55 21,3 C 21,4 C 71 % 1020,2 hPa 0,0 mm 5,7 km/h (1 Bft) W 261 0 min 0,000 mm 1,1 UV-I 111 W/m 15,8 C 8,0 km/h (2 Bft)
01.09.2016 17:56 21,3 C 21,3 C 72 % 1020,1 hPa 0,0 mm 6,7 km/h (2 Bft) W-NW 299 0 min 0,000 mm 1,1 UV-I 105 W/m 16,0 C 12,9 km/h (3 Bft)
01.09.2016 17:57 21,2 C 21,3 C 71 % 1020,2 hPa 0,0 mm 7,2 km/h (2 Bft) W-NW 302 0 min 0,000 mm 1,1 UV-I 102 W/m 15,7 C 12,9 km/h (3 Bft)
01.09.2016 17:58 21,2 C 21,2 C 72 % 1020,1 hPa 0,0 mm 8,0 km/h (2 Bft) N-NW 330 0 min 0,000 mm 1,0 UV-I 98 W/m 15,9 C 12,9 km/h (3 Bft)
01.09.2016 17:59 21,1 C 21,2 C 72 % 1020,2 hPa 0,0 mm 5,5 km/h (1 Bft) NW 306 0 min 0,000 mm 1,0 UV-I 93 W/m 15,8 C 9,7 km/h (2 Bft)
01.09.2016 18:00 21,0 C 21,1 C 72 % 1020,1 hPa 0,0 mm 3,4 km/h (1 Bft) N-NW 338 0 min 0,000 mm 1,0 UV-I 83 W/m 15,8 C 4,8 km/h (1 Bft)
01.09.2016 18:01 21,0 C 21,0 C 73 % 1020,1 hPa 0,0 mm 3,9 km/h (1 Bft) N 5 0 min 0,076 mm 1,0 UV-I 86 W/m 16,0 C 6,4 km/h (2 Bft)
01.09.2016 18:02 21,0 C 21,0 C 74 % 1020,1 hPa 0,0 mm 3,3 km/h (1 Bft) N-NW 344 0 min 0,000 mm 0,9 UV-I 83 W/m 16,2 C 6,4 km/h (2 Bft)
01.09.2016 18:03 20,9 C 21,0 C 73 % 1020,1 hPa 0,0 mm 4,2 km/h (1 Bft) N 355 0 min 0,000 mm 0,9 UV-I 83 W/m 15,9 C 6,4 km/h (2 Bft)
01.09.2016 18:04 20,9 C 20,9 C 73 % 1020,1 hPa 0,0 mm 4,1 km/h (1 Bft) N 355 0 min 0,000 mm 0,9 UV-I 79 W/m 15,9 C 6,4 km/h (2 Bft)
01.09.2016 18:05 21,0 C 21,0 C 74 % 1020,2 hPa 0,0 mm 3,4 km/h (1 Bft) N 355 0 min 0,000 mm 0,9 UV-I 77 W/m 16,2 C 4,8 km/h (1 Bft)
01.09.2016 18:06 21,1 C 21,1 C 73 % 1020,2 hPa 0,0 mm 4,0 km/h (1 Bft) N-NW 345 0 min 0,000 mm 0,9 UV-I 77 W/m 16,1 C 8,0 km/h (2 Bft)
01.09.2016 18:07 21,0 C 21,1 C 73 % 1020,2 hPa 0,0 mm 5,9 km/h (2 Bft) N-NO 13 0 min 0,000 mm 0,8 UV-I 84 W/m 16,0 C 9,7 km/h (2 Bft)
01.09.2016 18:08 20,9 C 21,0 C 73 % 1020,1 hPa 0,0 mm 2,8 km/h (1 Bft) N 9 0 min 0,000 mm 0,8 UV-I 88 W/m 15,9 C 4,8 km/h (1 Bft)
01.09.2016 18:09 20,9 C 20,9 C 75 % 1020,1 hPa 0,0 mm 2,0 km/h (1 Bft) N 9 0 min 0,000 mm 0,8 UV-I 86 W/m 16,3 C 3,2 km/h (1 Bft)
01.09.2016 18:10 20,9 C 20,9 C 75 % 1020,1 hPa 0,0 mm 1,5 km/h (1 Bft) N 355 0 min 0,000 mm 0,8 UV-I 84 W/m 16,3 C 3,2 km/h (1 Bft)
01.09.2016 18:11 20,8 C 20,9 C 75 % 1020,1 hPa 0,0 mm 2,4 km/h (1 Bft) N 355 0 min 0,000 mm 0,8 UV-I 83 W/m 16,2 C 4,8 km/h (1 Bft)
01.09.2016 18:12 20,8 C 20,8 C 75 % 1020,1 hPa 0,0 mm 3,8 km/h (1 Bft) N 355 0 min 0,000 mm 0,8 UV-I 84 W/m 16,2 C 4,8 km/h (1 Bft)
01.09.2016 18:13 20,8 C 20,8 C 74 % 1020,1 hPa 0,0 mm 5,6 km/h (1 Bft) NW 322 0 min 0,000 mm 0,8 UV-I 88 W/m 16,0 C 8,0 km/h (2 Bft)
01.09.2016 18:14 20,8 C 20,8 C 74 % 1020,2 hPa 0,0 mm 3,9 km/h (1 Bft) NW 323 0 min 0,000 mm 0,8 UV-I 90 W/m 16,0 C 6,4 km/h (2 Bft)
01.09.2016 18:15 20,8 C 20,8 C 74 % 1020,1 hPa 0,0 mm 2,2 km/h (1 Bft) N-NW 327 0 min 0,000 mm 0,8 UV-I 90 W/m 16,0 C 3,2 km/h (1 Bft)
01.09.2016 18:16 20,8 C 20,8 C 75 % 1020,1 hPa 0,0 mm 1,6 km/h (1 Bft) NO 38 0 min 0,000 mm 0,8 UV-I 86 W/m 16,2 C 4,8 km/h (1 Bft)
01.09.2016 18:17 20,8 C 20,9 C 74 % 1020,1 hPa 0,0 mm 1,7 km/h (1 Bft) NO 38 0 min 0,000 mm 0,7 UV-I 84 W/m 16,0 C 4,8 km/h (1 Bft)
01.09.2016 18:18 20,8 C 20,8 C 75 % 1020,1 hPa 0,0 mm 2,9 km/h (1 Bft) NO 36 0 min 0,000 mm 0,7 UV-I 79 W/m 16,2 C 3,2 km/h (1 Bft)
01.09.2016 18:19 20,8 C 20,9 C 74 % 1020,1 hPa 0,0 mm 2,6 km/h (1 Bft) N 5 0 min 0,000 mm 0,7 UV-I 74 W/m 16,0 C 4,8 km/h (1 Bft)
01.09.2016 18:20 20,9 C 20,9 C 75 % 1020,1 hPa 0,0 mm 2,7 km/h (1 Bft) N 5 0 min 0,000 mm 0,7 UV-I 69 W/m 16,3 C 3,2 km/h (1 Bft)
01.09.2016 18:21 20,9 C 20,9 C 74 % 1020,1 hPa 0,0 mm 1,4 km/h (1 Bft) NO 44 0 min 0,000 mm 0,7 UV-I 63 W/m 16,1 C 3,2 km/h (1 Bft)
01.09.2016 18:22 20,8 C 20,9 C 75 % 1020,1 hPa 0,0 mm 1,5 km/h (1 Bft) NO 44 0 min 0,000 mm 0,7 UV-I 62 W/m 16,2 C 3,2 km/h (1 Bft)
01.09.2016 18:23 20,8 C 20,8 C 75 % 1020,1 hPa 0,0 mm 4,2 km/h (1 Bft) O-NO 77 0 min 0,000 mm 0,7 UV-I 62 W/m 16,2 C 6,4 km/h (2 Bft)
01.09.2016 18:24 20,7 C 20,8 C 74 % 1020,1 hPa 0,0 mm 4,2 km/h (1 Bft) O-NO 74 0 min 0,000 mm 0,7 UV-I 62 W/m 15,9 C 4,8 km/h (1 Bft)
01.09.2016 18:25 20,6 C 20,7 C 75 % 1020,1 hPa 0,0 mm 5,1 km/h (1 Bft) NO 51 0 min 0,000 mm 0,6 UV-I 69 W/m 16,0 C 6,4 km/h (2 Bft)
01.09.2016 18:26 20,6 C 20,6 C 77 % 1020,1 hPa 0,0 mm 2,3 km/h (1 Bft) NO 55 0 min 0,000 mm 0,7 UV-I 74 W/m 16,4 C 4,8 km/h (1 Bft)
01.09.2016 18:27 20,4 C 20,6 C 78 % 1020,2 hPa 0,0 mm 1,1 km/h (1 Bft) NO 55 0 min 0,000 mm 0,7 UV-I 77 W/m 16,4 C 1,6 km/h (1 Bft)
01.09.2016 18:28 20,4 C 20,4 C 79 % 1020,2 hPa 0,0 mm 1,1 km/h (1 Bft) NO 55 0 min 0,000 mm 0,7 UV-I 83 W/m 16,6 C 1,6 km/h (1 Bft)
01.09.2016 18:29 20,3 C 20,4 C 80 % 1020,1 hPa 0,0 mm 1,0 km/h (0 Bft) NO 54 0 min 0,000 mm 0,7 UV-I 84 W/m 16,7 C 1,6 km/h (1 Bft)
01.09.2016 18:30 20,3 C 20,3 C 77 % 1020,2 hPa 0,0 mm 0,9 km/h (0 Bft) O-NO 68 0 min 0,000 mm 0,7 UV-I 86 W/m 16,1 C 1,6 km/h (1 Bft)
01.09.2016 18:31 20,3 C 20,3 C 77 % 1020,2 hPa 0,0 mm 2,2 km/h (1 Bft) O-NO 68 0 min 0,000 mm 0,6 UV-I 90 W/m 16,1 C 3,2 km/h (1 Bft)
01.09.2016 18:32 20,3 C 20,3 C 78 % 1020,2 hPa 0,0 mm 1,2 km/h (1 Bft) O-NO 68 0 min 0,000 mm 0,6 UV-I 91 W/m 16,3 C 3,2 km/h (1 Bft)
01.09.2016 18:33 20,3 C 20,3 C 76 % 1020,1 hPa 0,0 mm 2,0 km/h (1 Bft) O-NO 69 0 min 0,000 mm 0,6 UV-I 91 W/m 15,9 C 4,8 km/h (1 Bft)
01.09.2016 18:34 20,3 C 20,3 C 77 % 1020,2 hPa 0,0 mm 1,9 km/h (1 Bft) O-NO 69 0 min 0,000 mm 0,6 UV-I 93 W/m 16,1 C 3,2 km/h (1 Bft)
01.09.2016 18:35 20,3 C 20,3 C 79 % 1020,2 hPa 0,0 mm 3,2 km/h (1 Bft) O-NO 61 0 min 0,000 mm 0,6 UV-I 93 W/m 16,5 C 6,4 km/h (2 Bft)
01.09.2016 18:36 20,3 C 20,3 C 78 % 1020,2 hPa 0,0 mm 1,6 km/h (1 Bft) O-NO 61 0 min 0,000 mm 0,6 UV-I 100 W/m 16,3 C 3,2 km/h (1 Bft)
01.09.2016 18:37 20,3 C 20,3 C 79 % 1020,2 hPa 0,0 mm 1,1 km/h (1 Bft) O-NO 61 0 min 0,000 mm 0,6 UV-I 105 W/m 16,5 C 1,6 km/h (1 Bft)
01.09.2016 18:38 20,3 C 20,3 C 77 % 1020,1 hPa 0,0 mm 2,7 km/h (1 Bft) O-NO 61 0 min 0,000 mm 0,6 UV-I 109 W/m 16,1 C 4,8 km/h (1 Bft)
01.09.2016 18:39 20,3 C 20,3 C 77 % 1020,1 hPa 0,0 mm 2,0 km/h (1 Bft) NO 42 0 min 0,000 mm 0,6 UV-I 105 W/m 16,1 C 4,8 km/h (1 Bft)
01.09.2016 18:40 20,3 C 20,3 C 77 % 1020,1 hPa 0,0 mm 3,4 km/h (1 Bft) O-NO 63 0 min 0,000 mm 0,6 UV-I 104 W/m 16,1 C 4,8 km/h (1 Bft)
01.09.2016 18:41 20,3 C 20,4 C 77 % 1020,1 hPa 0,0 mm 4,1 km/h (1 Bft) O-NO 65 0 min 0,000 mm 0,6 UV-I 102 W/m 16,1 C 8,0 km/h (2 Bft)
01.09.2016 18:42 20,4 C 20,4 C 79 % 1020,3 hPa 0,0 mm 7,1 km/h (2 Bft) O 80 0 min 0,000 mm 0,6 UV-I 97 W/m 16,6 C 11,3 km/h (2 Bft)
01.09.2016 18:43 20,4 C 20,4 C 79 % 1020,3 hPa 0,0 mm 5,4 km/h (1 Bft) O-NO 57 0 min 0,000 mm 0,5 UV-I 93 W/m 16,6 C 8,0 km/h (2 Bft)
01.09.2016 18:44 20,5 C 20,5 C 76 % 1020,1 hPa 0,0 mm 3,1 km/h (1 Bft) O-NO 65 0 min 0,000 mm 0,5 UV-I 90 W/m 16,1 C 4,8 km/h (1 Bft)
01.09.2016 18:45 20,4 C 20,5 C 75 % 1020,1 hPa 0,0 mm 2,1 km/h (1 Bft) NO 56 0 min 0,000 mm 0,5 UV-I 90 W/m 15,8 C 4,8 km/h (1 Bft)
01.09.2016 18:46 20,5 C 20,5 C 76 % 1020,2 hPa 0,0 mm 2,6 km/h (1 Bft) NO 44 0 min 0,000 mm 0,5 UV-I 88 W/m 16,1 C 4,8 km/h (1 Bft)
01.09.2016 18:47 20,5 C 20,5 C 78 % 1020,2 hPa 0,0 mm 5,4 km/h (1 Bft) NO 45 0 min 0,000 mm 0,5 UV-I 86 W/m 16,5 C 8,0 km/h (2 Bft)
01.09.2016 18:48 20,4 C 20,5 C 76 % 1020,2 hPa 0,0 mm 5,0 km/h (1 Bft) NO 51 0 min 0,000 mm 0,0 UV-I 72 W/m 16,0 C 8,0 km/h (2 Bft)
01.09.2016 18:49 20,4 C 20,5 C 76 % 1020,2 hPa 0,0 mm 4,8 km/h (1 Bft) O-NO 67 0 min 0,000 mm 0,0 UV-I 69 W/m 16,0 C 9,7 km/h (2 Bft)
01.09.2016 18:50 20,4 C 20,4 C 77 % 1020,3 hPa 0,0 mm 4,6 km/h (1 Bft) NO 46 0 min 0,000 mm 0,0 UV-I 63 W/m 16,2 C 9,7 km/h (2 Bft)
01.09.2016 18:51 20,4 C 20,4 C 80 % 1020,2 hPa 0,0 mm 4,3 km/h (1 Bft) O-SO 105 0 min 0,000 mm 0,0 UV-I 63 W/m 16,8 C 8,0 km/h (2 Bft)
01.09.2016 18:52 20,2 C 20,4 C 78 % 1020,2 hPa 0,0 mm 6,2 km/h (2 Bft) NO 56 0 min 0,000 mm 0,0 UV-I 62 W/m 16,2 C 8,0 km/h (2 Bft)
01.09.2016 18:53 20,2 C 20,2 C 78 % 1020,2 hPa 0,0 mm 7,8 km/h (2 Bft) N-NO 30 0 min 0,000 mm 0,0 UV-I 62 W/m 16,2 C 12,9 km/h (3 Bft)
01.09.2016 18:54 20,1 C 20,2 C 78 % 1020,2 hPa 0,0 mm 5,6 km/h (1 Bft) NO 55 0 min 0,000 mm 0,0 UV-I 65 W/m 16,1 C 9,7 km/h (2 Bft)
01.09.2016 18:55 20,0 C 20,1 C 80 % 1020,3 hPa 0,0 mm 5,3 km/h (1 Bft) NO 56 0 min 0,000 mm 0,0 UV-I 65 W/m 16,4 C 6,4 km/h (2 Bft)
01.09.2016 18:56 19,9 C 20,0 C 80 % 1020,2 hPa 0,0 mm 6,6 km/h (2 Bft) NO 34 0 min 0,000 mm 0,0 UV-I 62 W/m 16,3 C 9,7 km/h (2 Bft)
01.09.2016 18:57 19,8 C 19,9 C 80 % 1020,2 hPa 0,0 mm 5,8 km/h (2 Bft) O-NO 64 0 min 0,000 mm 0,0 UV-I 58 W/m 16,2 C 8,0 km/h (2 Bft)
01.09.2016 18:58 19,7 C 19,8 C 81 % 1020,3 hPa 0,0 mm 4,2 km/h (1 Bft) O-NO 64 0 min 0,000 mm 0,0 UV-I 54 W/m 16,3 C 6,4 km/h (2 Bft)
01.09.2016 18:59 19,6 C 19,7 C 81 % 1020,2 hPa 0,0 mm 2,6 km/h (1 Bft) O-NO 65 0 min 0,000 mm 0,0 UV-I 60 W/m 16,2 C 4,8 km/h (1 Bft)
01.09.2016 19:00 19,6 C 19,6 C 81 % 1020,2 hPa 0,0 mm 3,5 km/h (1 Bft) O-NO 61 0 min 0,000 mm 0,0 UV-I 60 W/m 16,2 C 6,4 km/h (2 Bft)
01.09.2016 19:01 19,5 C 19,6 C 81 % 1020,2 hPa 0,0 mm 4,7 km/h (1 Bft) SO 144 0 min 0,051 mm 0,0 UV-I 60 W/m 16,1 C 6,4 km/h (2 Bft)
01.09.2016 19:02 19,4 C 19,5 C 80 % 1020,3 hPa 0,0 mm 4,8 km/h (1 Bft) O-NO 78 0 min 0,000 mm 0,0 UV-I 60 W/m 15,9 C 8,0 km/h (2 Bft)
01.09.2016 19:03 19,4 C 19,4 C 80 % 1020,2 hPa 0,0 mm 7,0 km/h (2 Bft) O-NO 67 0 min 0,000 mm 0,0 UV-I 56 W/m 15,9 C 11,3 km/h (2 Bft)
01.09.2016 19:04 19,4 C 19,4 C 82 % 1020,2 hPa 0,0 mm 5,8 km/h (2 Bft) NO 45 0 min 0,000 mm 0,0 UV-I 51 W/m 16,2 C 8,0 km/h (2 Bft)
01.09.2016 19:05 19,3 C 19,4 C 81 % 1020,2 hPa 0,0 mm 5,7 km/h (1 Bft) O-NO 76 0 min 0,000 mm 0,0 UV-I 40 W/m 16,0 C 8,0 km/h (2 Bft)
01.09.2016 19:06 19,3 C 19,3 C 81 % 1020,2 hPa 0,0 mm 4,2 km/h (1 Bft) O-NO 61 0 min 0,000 mm 0,0 UV-I 37 W/m 16,0 C 4,8 km/h (1 Bft)
01.09.2016 19:07 19,2 C 19,3 C 81 % 1020,2 hPa 0,0 mm 1,3 km/h (1 Bft) O-NO 61 0 min 0,000 mm 0,0 UV-I 37 W/m 15,9 C 3,2 km/h (1 Bft)
01.09.2016 19:08 19,2 C 19,2 C 82 % 1020,2 hPa 0,0 mm 2,5 km/h (1 Bft) O-NO 62 0 min 0,000 mm 0,0 UV-I 35 W/m 16,0 C 4,8 km/h (1 Bft)
01.09.2016 19:09 19,2 C 19,2 C 82 % 1020,2 hPa 0,0 mm 3,8 km/h (1 Bft) O-NO 72 0 min 0,000 mm 0,0 UV-I 37 W/m 16,0 C 6,4 km/h (2 Bft)
01.09.2016 19:10 19,1 C 19,2 C 82 % 1020,2 hPa 0,0 mm 1,9 km/h (1 Bft) O 88 0 min 0,000 mm 0,0 UV-I 37 W/m 16,0 C 3,2 km/h (1 Bft)
01.09.2016 19:11 19,0 C 19,1 C 83 % 1020,2 hPa 0,0 mm 5,0 km/h (1 Bft) O 89 0 min 0,000 mm 0,0 UV-I 39 W/m 16,0 C 6,4 km/h (2 Bft)
01.09.2016 19:12 18,9 C 19,0 C 82 % 1020,2 hPa 0,0 mm 5,5 km/h (1 Bft) O 85 0 min 0,000 mm 0,0 UV-I 37 W/m 15,8 C 8,0 km/h (2 Bft)
01.09.2016 19:13 18,8 C 18,9 C 82 % 1020,2 hPa 0,0 mm 4,4 km/h (1 Bft) O 94 0 min 0,000 mm 0,0 UV-I 33 W/m 15,7 C 6,4 km/h (2 Bft)
01.09.2016 19:14 18,8 C 18,8 C 82 % 1020,2 hPa 0,0 mm 3,8 km/h (1 Bft) O 99 0 min 0,000 mm 0,0 UV-I 33 W/m 15,7 C 6,4 km/h (2 Bft)
01.09.2016 19:15 18,8 C 18,8 C 82 % 1020,3 hPa 0,0 mm 4,3 km/h (1 Bft) SO 140 0 min 0,000 mm 0,0 UV-I 30 W/m 15,7 C 4,8 km/h (1 Bft)
01.09.2016 19:16 18,7 C 18,8 C 82 % 1020,3 hPa 0,0 mm 4,0 km/h (1 Bft) O 91 0 min 0,000 mm 0,0 UV-I 28 W/m 15,6 C 11,3 km/h (2 Bft)
01.09.2016 19:17 18,7 C 18,7 C 82 % 1020,2 hPa 0,0 mm 5,9 km/h (2 Bft) O 84 0 min 0,000 mm 0,0 UV-I 26 W/m 15,6 C 11,3 km/h (2 Bft)
01.09.2016 19:18 18,7 C 18,7 C 82 % 1020,2 hPa 0,0 mm 4,2 km/h (1 Bft) O-NO 72 0 min 0,000 mm 0,0 UV-I 26 W/m 15,6 C 6,4 km/h (2 Bft)
01.09.2016 19:19 18,6 C 18,7 C 82 % 1020,2 hPa 0,0 mm 3,3 km/h (1 Bft) O-NO 69 0 min 0,000 mm 0,0 UV-I 25 W/m 15,5 C 4,8 km/h (1 Bft)
01.09.2016 19:20 18,6 C 18,6 C 82 % 1020,3 hPa 0,0 mm 0,8 km/h (0 Bft) O-NO 69 0 min 0,000 mm 0,0 UV-I 23 W/m 15,5 C 3,2 km/h (1 Bft)
01.09.2016 19:21 18,5 C 18,6 C 82 % 1020,2 hPa 0,0 mm 0,9 km/h (0 Bft) O-NO 69 0 min 0,000 mm 0,0 UV-I 21 W/m 15,4 C 1,6 km/h (1 Bft)
01.09.2016 19:22 18,5 C 18,5 C 82 % 1020,2 hPa 0,0 mm 3,1 km/h (1 Bft) O-NO 69 0 min 0,000 mm 0,0 UV-I 19 W/m 15,4 C 4,8 km/h (1 Bft)
01.09.2016 19:23 18,5 C 18,5 C 83 % 1020,3 hPa 0,0 mm 3,6 km/h (1 Bft) O-NO 69 0 min 0,000 mm 0,0 UV-I 19 W/m 15,6 C 4,8 km/h (1 Bft)
01.09.2016 19:24 18,4 C 18,5 C 83 % 1020,3 hPa 0,0 mm 2,1 km/h (1 Bft) O-NO 69 0 min 0,000 mm 0,0 UV-I 21 W/m 15,5 C 3,2 km/h (1 Bft)
01.09.2016 19:25 18,4 C 18,4 C 82 % 1020,3 hPa 0,0 mm 2,5 km/h (1 Bft) O-NO 69 0 min 0,000 mm 0,0 UV-I 19 W/m 15,3 C 3,2 km/h (1 Bft)
01.09.2016 19:26 18,3 C 18,4 C 83 % 1020,3 hPa 0,0 mm 2,2 km/h (1 Bft) O 89 0 min 0,000 mm 0,0 UV-I 19 W/m 15,4 C 3,2 km/h (1 Bft)
01.09.2016 19:27 18,3 C 18,4 C 84 % 1020,3 hPa 0,0 mm 3,1 km/h (1 Bft) O 87 0 min 0,000 mm 0,0 UV-I 21 W/m 15,5 C 4,8 km/h (1 Bft)
01.09.2016 19:28 18,2 C 18,3 C 84 % 1020,3 hPa 0,0 mm 3,2 km/h (1 Bft) O 87 0 min 0,000 mm 0,0 UV-I 19 W/m 15,4 C 4,8 km/h (1 Bft)
01.09.2016 19:29 18,2 C 18,2 C 85 % 1020,3 hPa 0,0 mm 4,2 km/h (1 Bft) O 91 0 min 0,000 mm 0,0 UV-I 19 W/m 15,6 C 4,8 km/h (1 Bft)
01.09.2016 19:30 18,1 C 18,2 C 86 % 1020,4 hPa 0,0 mm 1,8 km/h (1 Bft) O 91 0 min 0,000 mm 0,0 UV-I 19 W/m 15,7 C 4,8 km/h (1 Bft)
01.09.2016 19:31 17,9 C 18,1 C 86 % 1020,4 hPa 0,0 mm 2,7 km/h (1 Bft) O 91 0 min 0,000 mm 0,0 UV-I 19 W/m 15,5 C 3,2 km/h (1 Bft)
01.09.2016 19:32 17,8 C 17,9 C 85 % 1020,4 hPa 0,0 mm 1,9 km/h (1 Bft) O 91 0 min 0,000 mm 0,0 UV-I 18 W/m 15,2 C 3,2 km/h (1 Bft)
01.09.2016 19:33 17,8 C 17,8 C 86 % 1020,3 hPa 0,0 mm 0,7 km/h (0 Bft) O 91 0 min 0,000 mm 0,0 UV-I 18 W/m 15,4 C 1,6 km/h (1 Bft)
01.09.2016 19:34 17,7 C 17,8 C 86 % 1020,4 hPa 0,0 mm 3,4 km/h (1 Bft) O 92 0 min 0,000 mm 0,0 UV-I 16 W/m 15,3 C 6,4 km/h (2 Bft)
01.09.2016 19:35 17,7 C 17,8 C 86 % 1020,3 hPa 0,0 mm 2,3 km/h (1 Bft) O 92 0 min 0,000 mm 0,0 UV-I 14 W/m 15,3 C 3,2 km/h (1 Bft)
01.09.2016 19:36 17,7 C 17,7 C 87 % 1020,2 hPa 0,0 mm 4,6 km/h (1 Bft) O 86 0 min 0,000 mm 0,0 UV-I 14 W/m 15,5 C 8,0 km/h (2 Bft)
01.09.2016 19:37 17,6 C 17,7 C 87 % 1020,2 hPa 0,0 mm 4,2 km/h (1 Bft) O 92 0 min 0,000 mm 0,0 UV-I 12 W/m 15,4 C 9,7 km/h (2 Bft)
01.09.2016 19:38 17,6 C 17,6 C 87 % 1020,2 hPa 0,0 mm 1,9 km/h (1 Bft) O 92 0 min 0,000 mm 0,0 UV-I 12 W/m 15,4 C 3,2 km/h (1 Bft)
01.09.2016 19:39 17,5 C 17,6 C 87 % 1020,2 hPa 0,0 mm 0,4 km/h (0 Bft) O 92 0 min 0,000 mm 0,0 UV-I 12 W/m 15,3 C 1,6 km/h (1 Bft)
01.09.2016 19:40 17,4 C 17,5 C 87 % 1020,3 hPa 0,0 mm 1,0 km/h (0 Bft) O 92 0 min 0,000 mm 0,0 UV-I 11 W/m 15,2 C 1,6 km/h (1 Bft)
01.09.2016 19:41 17,4 C 17,4 C 87 % 1020,3 hPa 0,0 mm 0,7 km/h (0 Bft) O 92 0 min 0,000 mm 0,0 UV-I 11 W/m 15,2 C 1,6 km/h (1 Bft)
01.09.2016 19:42 17,3 C 17,4 C 86 % 1020,3 hPa 0,0 mm 0,7 km/h (0 Bft) O 92 0 min 0,000 mm 0,0 UV-I 11 W/m 14,9 C 1,6 km/h (1 Bft)
01.09.2016 19:43 17,3 C 17,3 C 86 % 1020,3 hPa 0,0 mm 0,7 km/h (0 Bft) O 92 0 min 0,000 mm 0,0 UV-I 11 W/m 14,9 C 3,2 km/h (1 Bft)
01.09.2016 19:44 17,3 C 17,3 C 87 % 1020,4 hPa 0,0 mm 0,2 km/h (0 Bft) O 92 0 min 0,000 mm 0,0 UV-I 9 W/m 15,1 C 1,6 km/h (1 Bft)
01.09.2016 19:45 17,2 C 17,3 C 87 % 1020,4 hPa 0,0 mm 0,0 km/h (0 Bft) O 92 0 min 0,000 mm 0,0 UV-I 9 W/m 15,0 C 0,0 km/h (0 Bft)
01.09.2016 19:46 17,2 C 17,3 C 87 % 1020,4 hPa 0,0 mm 0,0 km/h (0 Bft) O 92 0 min 0,000 mm 0,0 UV-I 7 W/m 15,0 C 0,0 km/h (0 Bft)
01.09.2016 19:47 17,2 C 17,2 C 87 % 1020,4 hPa 0,0 mm 0,0 km/h (0 Bft) O 92 0 min 0,000 mm 0,0 UV-I 5 W/m 15,0 C 0,0 km/h (0 Bft)
01.09.2016 19:48 17,2 C 17,2 C 87 % 1020,4 hPa 0,0 mm 0,0 km/h (0 Bft) O 92 0 min 0,000 mm 0,0 UV-I 5 W/m 15,0 C 0,0 km/h (0 Bft)
01.09.2016 19:49 17,2 C 17,3 C 87 % 1020,4 hPa 0,0 mm 0,3 km/h (0 Bft) O 92 0 min 0,000 mm 0,0 UV-I 5 W/m 15,0 C 1,6 km/h (1 Bft)
01.09.2016 19:50 17,3 C 17,3 C 88 % 1020,5 hPa 0,0 mm 0,7 km/h (0 Bft) O 92 0 min 0,000 mm 0,0 UV-I 5 W/m 15,3 C 1,6 km/h (1 Bft)
01.09.2016 19:51 17,3 C 17,3 C 88 % 1020,5 hPa 0,0 mm 0,5 km/h (0 Bft) O 92 0 min 0,000 mm 0,0 UV-I 5 W/m 15,3 C 1,6 km/h (1 Bft)
01.09.2016 19:52 17,3 C 17,3 C 87 % 1020,5 hPa 0,0 mm 0,2 km/h (0 Bft) O 92 0 min 0,000 mm 0,0 UV-I 0 W/m 15,1 C 1,6 km/h (1 Bft)
01.09.2016 19:53 17,3 C 17,3 C 87 % 1020,5 hPa 0,0 mm 0,1 km/h (0 Bft) O 92 0 min 0,000 mm 0,0 UV-I 0 W/m 15,1 C 1,6 km/h (1 Bft)
01.09.2016 19:54 17,3 C 17,3 C 87 % 1020,4 hPa 0,0 mm 0,0 km/h (0 Bft) O 92 0 min 0,000 mm 0,0 UV-I 0 W/m 15,1 C 0,0 km/h (0 Bft)
01.09.2016 19:55 17,3 C 17,3 C 86 % 1020,5 hPa 0,0 mm 0,4 km/h (0 Bft) O 92 0 min 0,000 mm 0,0 UV-I 0 W/m 14,9 C 1,6 km/h (1 Bft)
01.09.2016 19:56 17,3 C 17,3 C 87 % 1020,5 hPa 0,0 mm 0,9 km/h (0 Bft) O 92 0 min 0,000 mm 0,0 UV-I 0 W/m 15,1 C 1,6 km/h (1 Bft)
01.09.2016 19:57 17,3 C 17,3 C 86 % 1020,5 hPa 0,0 mm 1,5 km/h (1 Bft) O 92 0 min 0,000 mm 0,0 UV-I 0 W/m 14,9 C 1,6 km/h (1 Bft)
01.09.2016 19:58 17,3 C 17,3 C 86 % 1020,5 hPa 0,0 mm 0,9 km/h (0 Bft) O 92 0 min 0,000 mm 0,0 UV-I 0 W/m 14,9 C 1,6 km/h (1 Bft)
01.09.2016 19:59 17,3 C 17,4 C 86 % 1020,5 hPa 0,0 mm 0,2 km/h (0 Bft) O 92 0 min 0,000 mm 0,0 UV-I 0 W/m 14,9 C 1,6 km/h (1 Bft)
01.09.2016 20:00 17,4 C 17,4 C 86 % 1020,5 hPa 0,0 mm 0,0 km/h (0 Bft) O 92 0 min 0,000 mm 0,0 UV-I 0 W/m 15,0 C 0,0 km/h (0 Bft)
01.09.2016 20:01 17,4 C 17,4 C 87 % 1020,5 hPa 0,0 mm 0,2 km/h (0 Bft) O 92 0 min 0,025 mm 0,0 UV-I 0 W/m 15,2 C 1,6 km/h (1 Bft)
01.09.2016 20:02 17,3 C 17,4 C 87 % 1020,5 hPa 0,0 mm 0,7 km/h (0 Bft) O 92 0 min 0,000 mm 0,0 UV-I 0 W/m 15,1 C 1,6 km/h (1 Bft)
01.09.2016 20:03 17,3 C 17,3 C 87 % 1020,6 hPa 0,0 mm 0,0 km/h (0 Bft) O 92 0 min 0,000 mm 0,0 UV-I 0 W/m 15,1 C 0,0 km/h (0 Bft)
01.09.2016 20:04 17,3 C 17,3 C 88 % 1020,6 hPa 0,0 mm 0,0 km/h (0 Bft) O 92 0 min 0,000 mm 0,0 UV-I 0 W/m 15,3 C 0,0 km/h (0 Bft)
01.09.2016 20:05 17,2 C 17,3 C 88 % 1020,6 hPa 0,0 mm 0,0 km/h (0 Bft) O 92 0 min 0,000 mm 0,0 UV-I 0 W/m 15,2 C 0,0 km/h (0 Bft)
01.09.2016 20:06 17,1 C 17,2 C 88 % 1020,5 hPa 0,0 mm 0,8 km/h (0 Bft) O 92 0 min 0,000 mm 0,0 UV-I 0 W/m 15,1 C 1,6 km/h (1 Bft)
01.09.2016 20:07 17,1 C 17,2 C 88 % 1020,6 hPa 0,0 mm 1,6 km/h (1 Bft) O 92 0 min 0,000 mm 0,0 UV-I 0 W/m 15,1 C 1,6 km/h (1 Bft)
01.09.2016 20:08 17,1 C 17,1 C 88 % 1020,6 hPa 0,0 mm 1,3 km/h (1 Bft) O 92 0 min 0,000 mm 0,0 UV-I 0 W/m 15,1 C 1,6 km/h (1 Bft)
01.09.2016 20:09 17,1 C 17,1 C 88 % 1020,6 hPa 0,0 mm 0,5 km/h (0 Bft) O 92 0 min 0,000 mm 0,0 UV-I 0 W/m 15,1 C 1,6 km/h (1 Bft)
01.09.2016 20:10 17,1 C 17,1 C 87 % 1020,6 hPa 0,0 mm 1,1 km/h (1 Bft) O 92 0 min 0,000 mm 0,0 UV-I 0 W/m 14,9 C 1,6 km/h (1 Bft)
01.09.2016 20:11 17,1 C 17,1 C 87 % 1020,7 hPa 0,0 mm 1,6 km/h (1 Bft) O 92 0 min 0,000 mm 0,0 UV-I 0 W/m 14,9 C 3,2 km/h (1 Bft)
01.09.2016 20:12 17,1 C 17,1 C 88 % 1020,7 hPa 0,0 mm 1,5 km/h (1 Bft) O 92 0 min 0,000 mm 0,0 UV-I 0 W/m 15,1 C 3,2 km/h (1 Bft)
01.09.2016 20:13 17,1 C 17,1 C 87 % 1020,7 hPa 0,0 mm 1,7 km/h (1 Bft) O 92 0 min 0,000 mm 0,0 UV-I 0 W/m 14,9 C 3,2 km/h (1 Bft)
01.09.2016 20:14 17,1 C 17,1 C 87 % 1020,7 hPa 0,0 mm 2,0 km/h (1 Bft) O 93 0 min 0,000 mm 0,0 UV-I 0 W/m 14,9 C 3,2 km/h (1 Bft)
01.09.2016 20:15 17,1 C 17,1 C 87 % 1020,8 hPa 0,0 mm 2,1 km/h (1 Bft) O-SO 105 0 min 0,000 mm 0,0 UV-I 0 W/m 14,9 C 3,2 km/h (1 Bft)
01.09.2016 20:16 17,0 C 17,1 C 87 % 1020,7 hPa 0,0 mm 3,8 km/h (1 Bft) S-SO 164 0 min 0,000 mm 0,0 UV-I 0 W/m 14,8 C 6,4 km/h (2 Bft)
01.09.2016 20:17 16,9 C 17,1 C 88 % 1020,8 hPa 0,0 mm 4,4 km/h (1 Bft) S-SO 164 0 min 0,000 mm 0,0 UV-I 0 W/m 14,9 C 6,4 km/h (2 Bft)
01.09.2016 20:18 16,8 C 16,9 C 88 % 1020,8 hPa 0,0 mm 4,6 km/h (1 Bft) S-SO 164 0 min 0,000 mm 0,0 UV-I 0 W/m 14,8 C 6,4 km/h (2 Bft)
01.09.2016 20:19 16,8 C 16,8 C 88 % 1020,8 hPa 0,0 mm 3,4 km/h (1 Bft) S-SO 164 0 min 0,000 mm 0,0 UV-I 0 W/m 14,8 C 6,4 km/h (2 Bft)
01.09.2016 20:20 16,7 C 16,8 C 88 % 1020,8 hPa 0,0 mm 3,1 km/h (1 Bft) S-SO 164 0 min 0,000 mm 0,0 UV-I 0 W/m 14,7 C 6,4 km/h (2 Bft)
01.09.2016 20:21 16,6 C 16,7 C 88 % 1020,8 hPa 0,0 mm 2,3 km/h (1 Bft) S-SO 164 0 min 0,000 mm 0,0 UV-I 0 W/m 14,6 C 3,2 km/h (1 Bft)
01.09.2016 20:22 16,6 C 16,6 C 89 % 1020,8 hPa 0,0 mm 1,8 km/h (1 Bft) S-SO 164 0 min 0,000 mm 0,0 UV-I 0 W/m 14,8 C 3,2 km/h (1 Bft)
01.09.2016 20:23 16,6 C 16,6 C 89 % 1020,8 hPa 0,0 mm 1,5 km/h (1 Bft) S-SO 164 0 min 0,000 mm 0,0 UV-I 0 W/m 14,8 C 1,6 km/h (1 Bft)
01.09.2016 20:24 16,6 C 16,6 C 89 % 1020,8 hPa 0,0 mm 1,5 km/h (1 Bft) S-SO 164 0 min 0,000 mm 0,0 UV-I 0 W/m 14,8 C 3,2 km/h (1 Bft)
01.09.2016 20:25 16,5 C 16,6 C 89 % 1020,8 hPa 0,0 mm 0,5 km/h (0 Bft) S-SO 164 0 min 0,000 mm 0,0 UV-I 0 W/m 14,7 C 1,6 km/h (1 Bft)
01.09.2016 20:26 16,5 C 16,6 C 89 % 1020,8 hPa 0,0 mm 0,8 km/h (0 Bft) S-SO 164 0 min 0,000 mm 0,0 UV-I 0 W/m 14,7 C 1,6 km/h (1 Bft)
01.09.2016 20:27 16,5 C 16,5 C 89 % 1020,8 hPa 0,0 mm 0,9 km/h (0 Bft) S-SO 164 0 min 0,000 mm 0,0 UV-I 0 W/m 14,7 C 1,6 km/h (1 Bft)
01.09.2016 20:28 16,4 C 16,5 C 89 % 1020,8 hPa 0,0 mm 1,0 km/h (0 Bft) S-SO 164 0 min 0,000 mm 0,0 UV-I 0 W/m 14,6 C 1,6 km/h (1 Bft)
01.09.2016 20:29 16,4 C 16,4 C 90 % 1020,8 hPa 0,0 mm 1,0 km/h (0 Bft) S-SO 164 0 min 0,000 mm 0,0 UV-I 0 W/m 14,8 C 1,6 km/h (1 Bft)
01.09.2016 20:30 16,4 C 16,4 C 90 % 1020,9 hPa 0,0 mm 0,6 km/h (0 Bft) S-SO 164 0 min 0,000 mm 0,0 UV-I 0 W/m 14,8 C 1,6 km/h (1 Bft)
01.09.2016 20:31 16,4 C 16,4 C 90 % 1020,9 hPa 0,0 mm 0,3 km/h (0 Bft) S-SO 164 0 min 0,000 mm 0,0 UV-I 0 W/m 14,8 C 1,6 km/h (1 Bft)
01.09.2016 20:32 16,3 C 16,4 C 90 % 1020,9 hPa 0,0 mm 0,0 km/h (0 Bft) S-SO 164 0 min 0,000 mm 0,0 UV-I 0 W/m 14,7 C 0,0 km/h (0 Bft)
01.09.2016 20:33 16,3 C 16,4 C 90 % 1020,9 hPa 0,0 mm 0,0 km/h (0 Bft) S-SO 164 0 min 0,000 mm 0,0 UV-I 0 W/m 14,7 C 0,0 km/h (0 Bft)
01.09.2016 20:34 16,3 C 16,3 C 90 % 1020,9 hPa 0,0 mm 0,1 km/h (0 Bft) S-SO 164 0 min 0,000 mm 0,0 UV-I 0 W/m 14,7 C 1,6 km/h (1 Bft)
01.09.2016 20:35 16,3 C 16,3 C 90 % 1020,9 hPa 0,0 mm 0,3 km/h (0 Bft) S-SO 164 0 min 0,000 mm 0,0 UV-I 0 W/m 14,7 C 1,6 km/h (1 Bft)
01.09.2016 20:36 16,3 C 16,3 C 90 % 1020,9 hPa 0,0 mm 0,5 km/h (0 Bft) S-SO 164 0 min 0,000 mm 0,0 UV-I 0 W/m 14,7 C 1,6 km/h (1 Bft)
01.09.2016 20:37 16,3 C 16,3 C 90 % 1020,9 hPa 0,0 mm 0,4 km/h (0 Bft) S-SO 164 0 min 0,000 mm 0,0 UV-I 0 W/m 14,7 C 1,6 km/h (1 Bft)
01.09.2016 20:38 16,2 C 16,3 C 90 % 1020,9 hPa 0,0 mm 0,9 km/h (0 Bft) S-SO 164 0 min 0,000 mm 0,0 UV-I 0 W/m 14,6 C 1,6 km/h (1 Bft)
01.09.2016 20:39 16,3 C 16,3 C 90 % 1020,9 hPa 0,0 mm 0,3 km/h (0 Bft) S-SO 164 0 min 0,000 mm 0,0 UV-I 0 W/m 14,7 C 1,6 km/h (1 Bft)
01.09.2016 20:40 16,2 C 16,3 C 90 % 1020,9 hPa 0,0 mm 0,3 km/h (0 Bft) S-SO 164 0 min 0,000 mm 0,0 UV-I 0 W/m 14,6 C 1,6 km/h (1 Bft)
01.09.2016 20:41 16,2 C 16,2 C 89 % 1020,9 hPa 0,0 mm 0,4 km/h (0 Bft) S-SO 164 0 min 0,000 mm 0,0 UV-I 0 W/m 14,4 C 1,6 km/h (1 Bft)
01.09.2016 20:42 16,2 C 16,2 C 90 % 1020,9 hPa 0,0 mm 1,3 km/h (1 Bft) S-SO 164 0 min 0,000 mm 0,0 UV-I 0 W/m 14,6 C 1,6 km/h (1 Bft)
01.09.2016 20:43 16,1 C 16,2 C 90 % 1020,9 hPa 0,0 mm 1,2 km/h (1 Bft) S-SO 164 0 min 0,000 mm 0,0 UV-I 0 W/m 14,5 C 1,6 km/h (1 Bft)
01.09.2016 20:44 16,1 C 16,1 C 90 % 1020,9 hPa 0,0 mm 2,1 km/h (1 Bft) S-SO 164 0 min 0,000 mm 0,0 UV-I 0 W/m 14,5 C 3,2 km/h (1 Bft)
01.09.2016 20:45 16,1 C 16,1 C 91 % 1020,9 hPa 0,0 mm 1,7 km/h (1 Bft) S-SO 164 0 min 0,000 mm 0,0 UV-I 0 W/m 14,6 C 3,2 km/h (1 Bft)
01.09.2016 20:46 16,1 C 16,1 C 91 % 1020,9 hPa 0,0 mm 0,8 km/h (0 Bft) S-SO 164 0 min 0,000 mm 0,0 UV-I 0 W/m 14,6 C 1,6 km/h (1 Bft)
01.09.2016 20:47 16,2 C 16,2 C 91 % 1020,9 hPa 0,0 mm 1,4 km/h (1 Bft) S-SO 164 0 min 0,000 mm 0,0 UV-I 0 W/m 14,7 C 3,2 km/h (1 Bft)
01.09.2016 20:48 16,3 C 16,3 C 91 % 1020,9 hPa 0,0 mm 1,3 km/h (1 Bft) S-SO 164 0 min 0,000 mm 0,0 UV-I 0 W/m 14,8 C 1,6 km/h (1 Bft)
01.09.2016 20:49 16,3 C 16,3 C 91 % 1020,9 hPa 0,0 mm 1,0 km/h (0 Bft) S-SO 164 0 min 0,000 mm 0,0 UV-I 0 W/m 14,8 C 1,6 km/h (1 Bft)
01.09.2016 20:50 16,3 C 16,3 C 91 % 1020,9 hPa 0,0 mm 1,5 km/h (1 Bft) S-SO 164 0 min 0,000 mm 0,0 UV-I 0 W/m 14,8 C 1,6 km/h (1 Bft)
01.09.2016 20:51 16,3 C 16,3 C 91 % 1020,9 hPa 0,0 mm 1,4 km/h (1 Bft) S-SO 164 0 min 0,000 mm 0,0 UV-I 0 W/m 14,8 C 1,6 km/h (1 Bft)
01.09.2016 20:52 16,3 C 16,3 C 91 % 1021,0 hPa 0,0 mm 1,3 km/h (1 Bft) S-SO 164 0 min 0,000 mm 0,0 UV-I 0 W/m 14,8 C 3,2 km/h (1 Bft)
01.09.2016 20:53 16,3 C 16,3 C 91 % 1021,0 hPa 0,0 mm 0,5 km/h (0 Bft) S-SO 164 0 min 0,000 mm 0,0 UV-I 0 W/m 14,8 C 1,6 km/h (1 Bft)
01.09.2016 20:54 16,3 C 16,3 C 91 % 1021,0 hPa 0,0 mm 0,5 km/h (0 Bft) S-SO 164 0 min 0,000 mm 0,0 UV-I 0 W/m 14,8 C 1,6 km/h (1 Bft)
01.09.2016 20:55 16,3 C 16,3 C 91 % 1021,0 hPa 0,0 mm 0,0 km/h (0 Bft) S-SO 164 0 min 0,000 mm 0,0 UV-I 0 W/m 14,8 C 0,0 km/h (0 Bft)
01.09.2016 20:56 16,3 C 16,3 C 90 % 1021,0 hPa 0,0 mm 0,5 km/h (0 Bft) S-SO 164 0 min 0,000 mm 0,0 UV-I 0 W/m 14,7 C 1,6 km/h (1 Bft)
01.09.2016 20:57 16,2 C 16,3 C 90 % 1021,0 hPa 0,0 mm 1,5 km/h (1 Bft) S-SO 164 0 min 0,000 mm 0,0 UV-I 0 W/m 14,6 C 3,2 km/h (1 Bft)
01.09.2016 20:58 16,2 C 16,2 C 90 % 1021,0 hPa 0,0 mm 2,4 km/h (1 Bft) S-SO 164 0 min 0,000 mm 0,0 UV-I 0 W/m 14,6 C 3,2 km/h (1 Bft)
01.09.2016 20:59 16,1 C 16,2 C 91 % 1021,0 hPa 0,0 mm 2,7 km/h (1 Bft) S-SO 164 0 min 0,000 mm 0,0 UV-I 0 W/m 14,6 C 3,2 km/h (1 Bft)
01.09.2016 21:00 16,1 C 16,1 C 91 % 1021,1 hPa 0,0 mm 3,2 km/h (1 Bft) S-SO 164 0 min 0,000 mm 0,0 UV-I 0 W/m 14,6 C 6,4 km/h (2 Bft)
01.09.2016 21:01 16,1 C 16,1 C 91 % 1021,1 hPa 0,0 mm 0,9 km/h (0 Bft) S-SO 164 0 min 0,000 mm 0,0 UV-I 0 W/m 14,6 C 1,6 km/h (1 Bft)
01.09.2016 21:02 16,1 C 16,1 C 91 % 1021,1 hPa 0,0 mm 0,1 km/h (0 Bft) S-SO 164 0 min 0,000 mm 0,0 UV-I 0 W/m 14,6 C 1,6 km/h (1 Bft)
01.09.2016 21:03 16,1 C 16,1 C 91 % 1021,1 hPa 0,0 mm 1,7 km/h (1 Bft) S-SO 164 0 min 0,000 mm 0,0 UV-I 0 W/m 14,6 C 3,2 km/h (1 Bft)
01.09.2016 21:04 16,0 C 16,1 C 92 % 1021,0 hPa 0,0 mm 0,9 km/h (0 Bft) S-SO 164 0 min 0,000 mm 0,0 UV-I 0 W/m 14,7 C 1,6 km/h (1 Bft)
01.09.2016 21:05 16,1 C 16,1 C 91 % 1021,1 hPa 0,0 mm 0,1 km/h (0 Bft) S-SO 164 0 min 0,000 mm 0,0 UV-I 0 W/m 14,6 C 1,6 km/h (1 Bft)
01.09.2016 21:06 15,9 C 16,1 C 91 % 1021,0 hPa 0,0 mm 0,0 km/h (0 Bft) S-SO 164 0 min 0,000 mm 0,0 UV-I 0 W/m 14,4 C 0,0 km/h (0 Bft)
01.09.2016 21:07 15,9 C 15,9 C 91 % 1021,1 hPa 0,0 mm 0,0 km/h (0 Bft) S-SO 164 0 min 0,000 mm 0,0 UV-I 0 W/m 14,4 C 0,0 km/h (0 Bft)
01.09.2016 21:08 15,8 C 15,9 C 91 % 1021,1 hPa 0,0 mm 0,0 km/h (0 Bft) S-SO 164 0 min 0,000 mm 0,0 UV-I 0 W/m 14,3 C 0,0 km/h (0 Bft)
01.09.2016 21:09 15,8 C 15,8 C 91 % 1021,1 hPa 0,0 mm 0,0 km/h (0 Bft) S-SO 164 0 min 0,000 mm 0,0 UV-I 0 W/m 14,3 C 0,0 km/h (0 Bft)
01.09.2016 21:10 15,8 C 15,8 C 91 % 1021,1 hPa 0,0 mm 0,0 km/h (0 Bft) S-SO 164 0 min 0,000 mm 0,0 UV-I 0 W/m 14,3 C 0,0 km/h (0 Bft)
01.09.2016 21:11 15,8 C 15,8 C 91 % 1021,1 hPa 0,0 mm 0,0 km/h (0 Bft) S-SO 164 0 min 0,000 mm 0,0 UV-I 0 W/m 14,3 C 0,0 km/h (0 Bft)
01.09.2016 21:12 15,8 C 15,8 C 91 % 1021,1 hPa 0,0 mm 0,0 km/h (0 Bft) S-SO 164 0 min 0,000 mm 0,0 UV-I 0 W/m 14,3 C 0,0 km/h (0 Bft)
01.09.2016 21:13 15,7 C 15,8 C 92 % 1021,1 hPa 0,0 mm 0,0 km/h (0 Bft) S-SO 164 0 min 0,000 mm 0,0 UV-I 0 W/m 14,4 C 0,0 km/h (0 Bft)
01.09.2016 21:14 15,7 C 15,7 C 92 % 1021,1 hPa 0,0 mm 0,1 km/h (0 Bft) S-SO 164 0 min 0,000 mm 0,0 UV-I 0 W/m 14,4 C 1,6 km/h (1 Bft)
01.09.2016 21:15 15,7 C 15,7 C 92 % 1021,1 hPa 0,0 mm 0,2 km/h (0 Bft) S-SO 164 0 min 0,000 mm 0,0 UV-I 0 W/m 14,4 C 1,6 km/h (1 Bft)
01.09.2016 21:16 15,7 C 15,7 C 92 % 1021,1 hPa 0,0 mm 0,0 km/h (0 Bft) S-SO 164 0 min 0,000 mm 0,0 UV-I 0 W/m 14,4 C 0,0 km/h (0 Bft)
01.09.2016 21:17 15,7 C 15,7 C 92 % 1021,0 hPa 0,0 mm 0,0 km/h (0 Bft) S-SO 164 0 min 0,000 mm 0,0 UV-I 0 W/m 14,4 C 0,0 km/h (0 Bft)
01.09.2016 21:18 15,7 C 15,7 C 92 % 1021,0 hPa 0,0 mm 0,0 km/h (0 Bft) S-SO 164 0 min 0,000 mm 0,0 UV-I 0 W/m 14,4 C 0,0 km/h (0 Bft)
01.09.2016 21:19 15,7 C 15,7 C 92 % 1021,0 hPa 0,0 mm 0,0 km/h (0 Bft) S-SO 164 0 min 0,000 mm 0,0 UV-I 0 W/m 14,4 C 0,0 km/h (0 Bft)
01.09.2016 21:20 15,8 C 15,8 C 92 % 1021,0 hPa 0,0 mm 0,0 km/h (0 Bft) S-SO 164 0 min 0,000 mm 0,0 UV-I 0 W/m 14,5 C 0,0 km/h (0 Bft)
01.09.2016 21:21 15,8 C 15,8 C 92 % 1021,1 hPa 0,0 mm 0,0 km/h (0 Bft) S-SO 164 0 min 0,000 mm 0,0 UV-I 0 W/m 14,5 C 0,0 km/h (0 Bft)
01.09.2016 21:22 15,8 C 15,8 C 92 % 1021,0 hPa 0,0 mm 0,0 km/h (0 Bft) S-SO 164 0 min 0,000 mm 0,0 UV-I 0 W/m 14,5 C 0,0 km/h (0 Bft)
01.09.2016 21:23 15,9 C 15,9 C 92 % 1021,0 hPa 0,0 mm 0,3 km/h (0 Bft) S-SO 165 0 min 0,000 mm 0,0 UV-I 0 W/m 14,6 C 3,2 km/h (1 Bft)
01.09.2016 21:24 15,9 C 15,9 C 92 % 1021,0 hPa 0,0 mm 1,3 km/h (1 Bft) S-SO 165 0 min 0,000 mm 0,0 UV-I 0 W/m 14,6 C 3,2 km/h (1 Bft)
01.09.2016 21:25 16,0 C 16,0 C 91 % 1021,0 hPa 0,0 mm 1,3 km/h (1 Bft) S-SO 165 0 min 0,000 mm 0,0 UV-I 0 W/m 14,5 C 3,2 km/h (1 Bft)
01.09.2016 21:26 16,1 C 16,1 C 91 % 1021,0 hPa 0,0 mm 0,8 km/h (0 Bft) S-SO 165 0 min 0,000 mm 0,0 UV-I 0 W/m 14,6 C 1,6 km/h (1 Bft)
01.09.2016 21:27 16,1 C 16,1 C 91 % 1021,1 hPa 0,0 mm 0,5 km/h (0 Bft) S-SO 165 0 min 0,000 mm 0,0 UV-I 0 W/m 14,6 C 3,2 km/h (1 Bft)
01.09.2016 21:28 16,1 C 16,1 C 91 % 1021,1 hPa 0,0 mm 0,0 km/h (0 Bft) S-SO 165 0 min 0,000 mm 0,0 UV-I 0 W/m 14,6 C 0,0 km/h (0 Bft)
01.09.2016 21:29 16,1 C 16,1 C 91 % 1021,1 hPa 0,0 mm 0,0 km/h (0 Bft) S-SO 165 0 min 0,000 mm 0,0 UV-I 0 W/m 14,6 C 0,0 km/h (0 Bft)
01.09.2016 21:30 16,1 C 16,1 C 91 % 1021,1 hPa 0,0 mm 0,0 km/h (0 Bft) S-SO 165 0 min 0,000 mm 0,0 UV-I 0 W/m 14,6 C 0,0 km/h (0 Bft)
01.09.2016 21:31 16,1 C 16,1 C 91 % 1021,1 hPa 0,0 mm 0,0 km/h (0 Bft) S-SO 165 0 min 0,000 mm 0,0 UV-I 0 W/m 14,6 C 0,0 km/h (0 Bft)
01.09.2016 21:32 16,0 C 16,1 C 91 % 1021,0 hPa 0,0 mm 0,0 km/h (0 Bft) S-SO 165 0 min 0,000 mm 0,0 UV-I 0 W/m 14,5 C 0,0 km/h (0 Bft)
01.09.2016 21:33 15,9 C 16,0 C 91 % 1021,1 hPa 0,0 mm 0,0 km/h (0 Bft) S-SO 165 0 min 0,000 mm 0,0 UV-I 0 W/m 14,4 C 0,0 km/h (0 Bft)
01.09.2016 21:34 15,9 C 16,0 C 91 % 1021,1 hPa 0,0 mm 0,0 km/h (0 Bft) S-SO 165 0 min 0,000 mm 0,0 UV-I 0 W/m 14,4 C 0,0 km/h (0 Bft)
01.09.2016 21:35 16,0 C 16,0 C 92 % 1021,0 hPa 0,0 mm 0,0 km/h (0 Bft) S-SO 165 0 min 0,000 mm 0,0 UV-I 0 W/m 14,7 C 0,0 km/h (0 Bft)
01.09.2016 21:36 15,9 C 16,0 C 91 % 1021,0 hPa 0,0 mm 0,0 km/h (0 Bft) S-SO 165 0 min 0,000 mm 0,0 UV-I 0 W/m 14,4 C 0,0 km/h (0 Bft)
01.09.2016 21:37 15,9 C 15,9 C 91 % 1021,1 hPa 0,0 mm 0,0 km/h (0 Bft) S-SO 165 0 min 0,000 mm 0,0 UV-I 0 W/m 14,4 C 0,0 km/h (0 Bft)
01.09.2016 21:38 15,9 C 15,9 C 91 % 1021,1 hPa 0,0 mm 0,0 km/h (0 Bft) S-SO 165 0 min 0,000 mm 0,0 UV-I 0 W/m 14,4 C 0,0 km/h (0 Bft)
01.09.2016 21:39 15,9 C 15,9 C 91 % 1021,1 hPa 0,0 mm 0,0 km/h (0 Bft) S-SO 165 0 min 0,000 mm 0,0 UV-I 0 W/m 14,4 C 0,0 km/h (0 Bft)
01.09.2016 21:40 15,9 C 15,9 C 91 % 1021,1 hPa 0,0 mm 0,0 km/h (0 Bft) S-SO 165 0 min 0,000 mm 0,0 UV-I 0 W/m 14,4 C 0,0 km/h (0 Bft)
01.09.2016 21:41 15,9 C 15,9 C 91 % 1021,0 hPa 0,0 mm 0,0 km/h (0 Bft) S-SO 165 0 min 0,000 mm 0,0 UV-I 0 W/m 14,4 C 0,0 km/h (0 Bft)
01.09.2016 21:42 15,9 C 16,0 C 91 % 1021,0 hPa 0,0 mm 0,0 km/h (0 Bft) S-SO 165 0 min 0,000 mm 0,0 UV-I 0 W/m 14,4 C 0,0 km/h (0 Bft)
01.09.2016 21:43 15,9 C 15,9 C 92 % 1021,0 hPa 0,0 mm 0,0 km/h (0 Bft) S-SO 165 0 min 0,000 mm 0,0 UV-I 0 W/m 14,6 C 0,0 km/h (0 Bft)
01.09.2016 21:44 15,9 C 16,0 C 92 % 1021,0 hPa 0,0 mm 0,0 km/h (0 Bft) S-SO 165 0 min 0,000 mm 0,0 UV-I 0 W/m 14,6 C 0,0 km/h (0 Bft)
01.09.2016 21:45 16,0 C 16,0 C 92 % 1021,0 hPa 0,0 mm 0,0 km/h (0 Bft) S-SO 165 0 min 0,000 mm 0,0 UV-I 0 W/m 14,7 C 0,0 km/h (0 Bft)
01.09.2016 21:46 16,0 C 16,0 C 92 % 1020,9 hPa 0,0 mm 0,0 km/h (0 Bft) S-SO 165 0 min 0,000 mm 0,0 UV-I 0 W/m 14,7 C 0,0 km/h (0 Bft)
01.09.2016 21:47 16,0 C 16,0 C 92 % 1021,0 hPa 0,0 mm 0,0 km/h (0 Bft) S-SO 165 0 min 0,000 mm 0,0 UV-I 0 W/m 14,7 C 0,0 km/h (0 Bft)
01.09.2016 21:48 15,9 C 16,0 C 91 % 1021,0 hPa 0,0 mm 0,9 km/h (0 Bft) S-SO 165 0 min 0,000 mm 0,0 UV-I 0 W/m 14,4 C 1,6 km/h (1 Bft)
01.09.2016 21:49 15,9 C 16,0 C 92 % 1020,9 hPa 0,0 mm 0,0 km/h (0 Bft) S-SO 165 0 min 0,000 mm 0,0 UV-I 0 W/m 14,6 C 0,0 km/h (0 Bft)
01.09.2016 21:50 15,9 C 15,9 C 92 % 1021,0 hPa 0,0 mm 0,0 km/h (0 Bft) S-SO 165 0 min 0,000 mm 0,0 UV-I 0 W/m 14,6 C 0,0 km/h (0 Bft)
01.09.2016 21:51 15,9 C 15,9 C 92 % 1021,0 hPa 0,0 mm 0,0 km/h (0 Bft) S-SO 165 0 min 0,000 mm 0,0 UV-I 0 W/m 14,6 C 0,0 km/h (0 Bft)
01.09.2016 21:52 15,9 C 15,9 C 92 % 1021,0 hPa 0,0 mm 0,0 km/h (0 Bft) S-SO 165 0 min 0,000 mm 0,0 UV-I 0 W/m 14,6 C 0,0 km/h (0 Bft)
01.09.2016 21:53 15,9 C 15,9 C 92 % 1021,0 hPa 0,0 mm 0,0 km/h (0 Bft) S-SO 165 0 min 0,000 mm 0,0 UV-I 0 W/m 14,6 C 0,0 km/h (0 Bft)
01.09.2016 21:54 15,9 C 16,0 C 91 % 1021,0 hPa 0,0 mm 0,0 km/h (0 Bft) S-SO 165 0 min 0,000 mm 0,0 UV-I 0 W/m 14,4 C 0,0 km/h (0 Bft)
01.09.2016 21:55 15,9 C 15,9 C 91 % 1021,1 hPa 0,0 mm 0,0 km/h (0 Bft) S-SO 165 0 min 0,000 mm 0,0 UV-I 0 W/m 14,4 C 0,0 km/h (0 Bft)
01.09.2016 21:56 15,8 C 15,9 C 91 % 1021,1 hPa 0,0 mm 0,0 km/h (0 Bft) S-SO 165 0 min 0,000 mm 0,0 UV-I 0 W/m 14,3 C 0,0 km/h (0 Bft)
01.09.2016 21:57 15,8 C 15,9 C 91 % 1021,1 hPa 0,0 mm 0,0 km/h (0 Bft) S-SO 165 0 min 0,000 mm 0,0 UV-I 0 W/m 14,3 C 0,0 km/h (0 Bft)
01.09.2016 21:58 15,8 C 15,8 C 91 % 1021,1 hPa 0,0 mm 0,0 km/h (0 Bft) S-SO 165 0 min 0,000 mm 0,0 UV-I 0 W/m 14,3 C 0,0 km/h (0 Bft)
01.09.2016 21:59 15,8 C 15,8 C 92 % 1021,1 hPa 0,0 mm 0,0 km/h (0 Bft) S-SO 165 0 min 0,000 mm 0,0 UV-I 0 W/m 14,5 C 0,0 km/h (0 Bft)
01.09.2016 22:00 15,8 C 15,8 C 92 % 1021,0 hPa 0,0 mm 0,0 km/h (0 Bft) S-SO 165 0 min 0,000 mm 0,0 UV-I 0 W/m 14,5 C 0,0 km/h (0 Bft)
01.09.2016 22:01 15,8 C 15,8 C 92 % 1021,0 hPa 0,0 mm 0,0 km/h (0 Bft) S-SO 165 0 min 0,000 mm 0,0 UV-I 0 W/m 14,5 C 0,0 km/h (0 Bft)
01.09.2016 22:02 15,7 C 15,8 C 92 % 1021,0 hPa 0,0 mm 0,0 km/h (0 Bft) S-SO 165 0 min 0,000 mm 0,0 UV-I 0 W/m 14,4 C 0,0 km/h (0 Bft)
01.09.2016 22:03 15,7 C 15,8 C 92 % 1021,0 hPa 0,0 mm 0,0 km/h (0 Bft) S-SO 165 0 min 0,000 mm 0,0 UV-I 0 W/m 14,4 C 0,0 km/h (0 Bft)
01.09.2016 22:04 15,7 C 15,7 C 92 % 1021,0 hPa 0,0 mm 0,0 km/h (0 Bft) S-SO 165 0 min 0,000 mm 0,0 UV-I 0 W/m 14,4 C 0,0 km/h (0 Bft)
01.09.2016 22:05 15,7 C 15,7 C 92 % 1021,0 hPa 0,0 mm 0,0 km/h (0 Bft) S-SO 165 0 min 0,000 mm 0,0 UV-I 0 W/m 14,4 C 0,0 km/h (0 Bft)
01.09.2016 22:06 15,7 C 15,7 C 92 % 1021,1 hPa 0,0 mm 0,0 km/h (0 Bft) S-SO 165 0 min 0,000 mm 0,0 UV-I 0 W/m 14,4 C 0,0 km/h (0 Bft)
01.09.2016 22:07 15,7 C 15,7 C 92 % 1021,1 hPa 0,0 mm 0,0 km/h (0 Bft) S-SO 165 0 min 0,000 mm 0,0 UV-I 0 W/m 14,4 C 0,0 km/h (0 Bft)
01.09.2016 22:08 15,6 C 15,7 C 92 % 1021,0 hPa 0,0 mm 0,0 km/h (0 Bft) S-SO 165 0 min 0,000 mm 0,0 UV-I 0 W/m 14,3 C 0,0 km/h (0 Bft)
01.09.2016 22:09 15,7 C 15,7 C 92 % 1021,0 hPa 0,0 mm 0,0 km/h (0 Bft) S-SO 165 0 min 0,000 mm 0,0 UV-I 0 W/m 14,4 C 0,0 km/h (0 Bft)
01.09.2016 22:10 15,7 C 15,7 C 92 % 1021,1 hPa 0,0 mm 0,0 km/h (0 Bft) S-SO 165 0 min 0,000 mm 0,0 UV-I 0 W/m 14,4 C 0,0 km/h (0 Bft)
01.09.2016 22:11 15,6 C 15,7 C 92 % 1021,1 hPa 0,0 mm 0,0 km/h (0 Bft) S-SO 165 0 min 0,000 mm 0,0 UV-I 0 W/m 14,3 C 0,0 km/h (0 Bft)
01.09.2016 22:12 15,6 C 15,7 C 92 % 1021,1 hPa 0,0 mm 0,0 km/h (0 Bft) S-SO 165 0 min 0,000 mm 0,0 UV-I 0 W/m 14,3 C 0,0 km/h (0 Bft)
01.09.2016 22:13 15,6 C 15,6 C 92 % 1021,1 hPa 0,0 mm 0,4 km/h (0 Bft) S 182 0 min 0,000 mm 0,0 UV-I 0 W/m 14,3 C 3,2 km/h (1 Bft)
01.09.2016 22:14 15,7 C 15,7 C 92 % 1021,1 hPa 0,0 mm 1,3 km/h (1 Bft) S 182 0 min 0,000 mm 0,0 UV-I 0 W/m 14,4 C 3,2 km/h (1 Bft)
01.09.2016 22:15 15,7 C 15,7 C 92 % 1021,1 hPa 0,0 mm 0,6 km/h (0 Bft) S 182 0 min 0,000 mm 0,0 UV-I 0 W/m 14,4 C 1,6 km/h (1 Bft)
01.09.2016 22:16 15,6 C 15,7 C 92 % 1021,1 hPa 0,0 mm 1,6 km/h (1 Bft) S 182 0 min 0,000 mm 0,0 UV-I 0 W/m 14,3 C 3,2 km/h (1 Bft)
01.09.2016 22:17 15,6 C 15,7 C 92 % 1021,1 hPa 0,0 mm 0,1 km/h (0 Bft) S 182 0 min 0,000 mm 0,0 UV-I 0 W/m 14,3 C 1,6 km/h (1 Bft)
01.09.2016 22:18 15,6 C 15,6 C 92 % 1021,1 hPa 0,0 mm 0,0 km/h (0 Bft) S 182 0 min 0,000 mm 0,0 UV-I 0 W/m 14,3 C 0,0 km/h (0 Bft)
01.09.2016 22:19 15,7 C 15,7 C 92 % 1021,1 hPa 0,0 mm 0,3 km/h (0 Bft) S 182 0 min 0,000 mm 0,0 UV-I 0 W/m 14,4 C 1,6 km/h (1 Bft)
01.09.2016 22:20 15,7 C 15,7 C 92 % 1021,1 hPa 0,0 mm 0,1 km/h (0 Bft) S 182 0 min 0,000 mm 0,0 UV-I 0 W/m 14,4 C 1,6 km/h (1 Bft)
01.09.2016 22:21 15,7 C 15,7 C 92 % 1021,1 hPa 0,0 mm 0,4 km/h (0 Bft) S 182 0 min 0,000 mm 0,0 UV-I 0 W/m 14,4 C 1,6 km/h (1 Bft)
01.09.2016 22:22 15,7 C 15,7 C 93 % 1021,1 hPa 0,0 mm 0,0 km/h (0 Bft) S 182 0 min 0,000 mm 0,0 UV-I 0 W/m 14,6 C 0,0 km/h (0 Bft)
01.09.2016 22:23 15,7 C 15,8 C 92 % 1021,1 hPa 0,0 mm 0,0 km/h (0 Bft) S 182 0 min 0,000 mm 0,0 UV-I 0 W/m 14,4 C 0,0 km/h (0 Bft)
01.09.2016 22:24 15,7 C 15,7 C 92 % 1021,1 hPa 0,0 mm 0,0 km/h (0 Bft) S 182 0 min 0,000 mm 0,0 UV-I 0 W/m 14,4 C 0,0 km/h (0 Bft)
01.09.2016 22:25 15,7 C 15,7 C 92 % 1021,1 hPa 0,0 mm 0,0 km/h (0 Bft) S 182 0 min 0,000 mm 0,0 UV-I 0 W/m 14,4 C 0,0 km/h (0 Bft)
01.09.2016 22:26 15,7 C 15,7 C 93 % 1021,1 hPa 0,0 mm 0,1 km/h (0 Bft) S 182 0 min 0,000 mm 0,0 UV-I 0 W/m 14,6 C 1,6 km/h (1 Bft)
01.09.2016 22:27 15,7 C 15,7 C 93 % 1021,2 hPa 0,0 mm 2,1 km/h (1 Bft) S-SW 209 0 min 0,000 mm 0,0 UV-I 0 W/m 14,6 C 4,8 km/h (1 Bft)
01.09.2016 22:28 15,7 C 15,7 C 92 % 1021,2 hPa 0,0 mm 0,5 km/h (0 Bft) S-SW 209 0 min 0,000 mm 0,0 UV-I 0 W/m 14,4 C 1,6 km/h (1 Bft)
01.09.2016 22:29 15,7 C 15,7 C 92 % 1021,1 hPa 0,0 mm 1,7 km/h (1 Bft) W 268 0 min 0,000 mm 0,0 UV-I 0 W/m 14,4 C 4,8 km/h (1 Bft)
01.09.2016 22:30 15,7 C 15,7 C 92 % 1021,1 hPa 0,0 mm 1,5 km/h (1 Bft) W 269 0 min 0,000 mm 0,0 UV-I 0 W/m 14,4 C 3,2 km/h (1 Bft)
01.09.2016 22:31 15,7 C 15,7 C 92 % 1021,1 hPa 0,0 mm 0,0 km/h (0 Bft) W 269 0 min 0,000 mm 0,0 UV-I 0 W/m 14,4 C 0,0 km/h (0 Bft)
01.09.2016 22:32 15,7 C 15,7 C 92 % 1021,1 hPa 0,0 mm 0,0 km/h (0 Bft) W 269 0 min 0,000 mm 0,0 UV-I 0 W/m 14,4 C 0,0 km/h (0 Bft)
01.09.2016 22:33 15,7 C 15,7 C 92 % 1021,1 hPa 0,0 mm 0,0 km/h (0 Bft) W 269 0 min 0,000 mm 0,0 UV-I 0 W/m 14,4 C 0,0 km/h (0 Bft)
01.09.2016 22:34 15,7 C 15,7 C 92 % 1021,1 hPa 0,0 mm 0,0 km/h (0 Bft) W 269 0 min 0,000 mm 0,0 UV-I 0 W/m 14,4 C 0,0 km/h (0 Bft)
01.09.2016 22:35 15,7 C 15,7 C 92 % 1021,1 hPa 0,0 mm 0,0 km/h (0 Bft) W 269 0 min 0,000 mm 0,0 UV-I 0 W/m 14,4 C 0,0 km/h (0 Bft)
01.09.2016 22:36 15,7 C 15,7 C 92 % 1021,1 hPa 0,0 mm 0,0 km/h (0 Bft) W 269 0 min 0,000 mm 0,0 UV-I 0 W/m 14,4 C 0,0 km/h (0 Bft)
01.09.2016 22:37 15,6 C 15,7 C 92 % 1021,1 hPa 0,0 mm 0,0 km/h (0 Bft) W 269 0 min 0,000 mm 0,0 UV-I 0 W/m 14,3 C 0,0 km/h (0 Bft)
01.09.2016 22:38 15,7 C 15,7 C 92 % 1021,1 hPa 0,0 mm 0,0 km/h (0 Bft) W 269 0 min 0,000 mm 0,0 UV-I 0 W/m 14,4 C 0,0 km/h (0 Bft)
01.09.2016 22:39 15,7 C 15,7 C 92 % 1021,2 hPa 0,0 mm 0,0 km/h (0 Bft) W 269 0 min 0,000 mm 0,0 UV-I 0 W/m 14,4 C 0,0 km/h (0 Bft)
01.09.2016 22:40 15,6 C 15,7 C 92 % 1021,2 hPa 0,0 mm 0,0 km/h (0 Bft) W 269 0 min 0,000 mm 0,0 UV-I 0 W/m 14,3 C 0,0 km/h (0 Bft)
01.09.2016 22:41 15,6 C 15,7 C 92 % 1021,2 hPa 0,0 mm 0,0 km/h (0 Bft) W 269 0 min 0,000 mm 0,0 UV-I 0 W/m 14,3 C 0,0 km/h (0 Bft)
01.09.2016 22:42 15,6 C 15,6 C 92 % 1021,1 hPa 0,0 mm 0,0 km/h (0 Bft) W 269 0 min 0,000 mm 0,0 UV-I 0 W/m 14,3 C 0,0 km/h (0 Bft)
01.09.2016 22:43 15,6 C 15,6 C 92 % 1021,2 hPa 0,0 mm 0,0 km/h (0 Bft) W 269 0 min 0,000 mm 0,0 UV-I 0 W/m 14,3 C 0,0 km/h (0 Bft)
01.09.2016 22:44 15,6 C 15,6 C 92 % 1021,2 hPa 0,0 mm 0,0 km/h (0 Bft) W 269 0 min 0,000 mm 0,0 UV-I 0 W/m 14,3 C 0,0 km/h (0 Bft)
01.09.2016 22:45 15,6 C 15,6 C 91 % 1021,2 hPa 0,0 mm 0,0 km/h (0 Bft) W 269 0 min 0,000 mm 0,0 UV-I 0 W/m 14,1 C 0,0 km/h (0 Bft)
01.09.2016 22:46 15,6 C 15,6 C 92 % 1021,2 hPa 0,0 mm 0,0 km/h (0 Bft) W 269 0 min 0,000 mm 0,0 UV-I 0 W/m 14,3 C 0,0 km/h (0 Bft)
01.09.2016 22:47 15,6 C 15,6 C 92 % 1021,2 hPa 0,0 mm 0,0 km/h (0 Bft) W 269 0 min 0,000 mm 0,0 UV-I 0 W/m 14,3 C 0,0 km/h (0 Bft)
01.09.2016 22:48 15,6 C 15,6 C 92 % 1021,1 hPa 0,0 mm 0,0 km/h (0 Bft) W 269 0 min 0,000 mm 0,0 UV-I 0 W/m 14,3 C 0,0 km/h (0 Bft)
01.09.2016 22:49 15,6 C 15,6 C 92 % 1021,1 hPa 0,0 mm 0,0 km/h (0 Bft) W 269 0 min 0,000 mm 0,0 UV-I 0 W/m 14,3 C 0,0 km/h (0 Bft)
01.09.2016 22:50 15,5 C 15,6 C 92 % 1021,2 hPa 0,0 mm 0,0 km/h (0 Bft) W 269 0 min 0,000 mm 0,0 UV-I 0 W/m 14,2 C 0,0 km/h (0 Bft)
01.09.2016 22:51 15,5 C 15,5 C 92 % 1021,2 hPa 0,0 mm 0,0 km/h (0 Bft) W 269 0 min 0,000 mm 0,0 UV-I 0 W/m 14,2 C 0,0 km/h (0 Bft)
01.09.2016 22:52 15,5 C 15,5 C 92 % 1021,1 hPa 0,0 mm 0,0 km/h (0 Bft) W 269 0 min 0,000 mm 0,0 UV-I 0 W/m 14,2 C 0,0 km/h (0 Bft)
01.09.2016 22:53 15,5 C 15,5 C 92 % 1021,1 hPa 0,0 mm 0,0 km/h (0 Bft) W 269 0 min 0,000 mm 0,0 UV-I 0 W/m 14,2 C 0,0 km/h (0 Bft)
01.09.2016 22:54 15,4 C 15,5 C 92 % 1021,1 hPa 0,0 mm 0,0 km/h (0 Bft) W 269 0 min 0,000 mm 0,0 UV-I 0 W/m 14,1 C 0,0 km/h (0 Bft)
01.09.2016 22:55 15,4 C 15,5 C 92 % 1021,1 hPa 0,0 mm 0,0 km/h (0 Bft) W 269 0 min 0,000 mm 0,0 UV-I 0 W/m 14,1 C 0,0 km/h (0 Bft)
01.09.2016 22:56 15,4 C 15,4 C 92 % 1021,1 hPa 0,0 mm 0,0 km/h (0 Bft) W 269 0 min 0,000 mm 0,0 UV-I 0 W/m 14,1 C 0,0 km/h (0 Bft)
01.09.2016 22:57 15,4 C 15,4 C 92 % 1021,1 hPa 0,0 mm 0,0 km/h (0 Bft) W 269 0 min 0,000 mm 0,0 UV-I 0 W/m 14,1 C 0,0 km/h (0 Bft)
01.09.2016 22:58 15,4 C 15,4 C 92 % 1021,1 hPa 0,0 mm 0,0 km/h (0 Bft) W 269 0 min 0,000 mm 0,0 UV-I 0 W/m 14,1 C 0,0 km/h (0 Bft)
01.09.2016 22:59 15,4 C 15,4 C 92 % 1021,1 hPa 0,0 mm 0,0 km/h (0 Bft) W 269 0 min 0,000 mm 0,0 UV-I 0 W/m 14,1 C 0,0 km/h (0 Bft)
01.09.2016 23:00 15,4 C 15,4 C 92 % 1021,1 hPa 0,0 mm 0,0 km/h (0 Bft) W 269 0 min 0,000 mm 0,0 UV-I 0 W/m 14,1 C 0,0 km/h (0 Bft)
01.09.2016 23:01 15,4 C 15,4 C 92 % 1021,1 hPa 0,0 mm 0,0 km/h (0 Bft) W 269 0 min 0,000 mm 0,0 UV-I 0 W/m 14,1 C 0,0 km/h (0 Bft)
01.09.2016 23:02 15,4 C 15,4 C 92 % 1021,1 hPa 0,0 mm 0,0 km/h (0 Bft) W 269 0 min 0,000 mm 0,0 UV-I 0 W/m 14,1 C 0,0 km/h (0 Bft)
01.09.2016 23:03 15,3 C 15,4 C 92 % 1021,1 hPa 0,0 mm 0,0 km/h (0 Bft) W 269 0 min 0,000 mm 0,0 UV-I 0 W/m 14,0 C 0,0 km/h (0 Bft)
01.09.2016 23:04 15,3 C 15,3 C 92 % 1021,1 hPa 0,0 mm 0,0 km/h (0 Bft) W 269 0 min 0,000 mm 0,0 UV-I 0 W/m 14,0 C 0,0 km/h (0 Bft)
01.09.2016 23:05 15,3 C 15,3 C 92 % 1021,1 hPa 0,0 mm 0,0 km/h (0 Bft) W 269 0 min 0,000 mm 0,0 UV-I 0 W/m 14,0 C 0,0 km/h (0 Bft)
01.09.2016 23:06 15,3 C 15,3 C 92 % 1021,1 hPa 0,0 mm 0,0 km/h (0 Bft) W 269 0 min 0,000 mm 0,0 UV-I 0 W/m 14,0 C 0,0 km/h (0 Bft)
01.09.2016 23:07 15,3 C 15,3 C 92 % 1021,1 hPa 0,0 mm 0,0 km/h (0 Bft) W 269 0 min 0,000 mm 0,0 UV-I 0 W/m 14,0 C 0,0 km/h (0 Bft)
01.09.2016 23:08 15,3 C 15,3 C 92 % 1021,1 hPa 0,0 mm 0,0 km/h (0 Bft) W 269 0 min 0,000 mm 0,0 UV-I 0 W/m 14,0 C 0,0 km/h (0 Bft)
01.09.2016 23:09 15,3 C 15,3 C 92 % 1021,1 hPa 0,0 mm 0,0 km/h (0 Bft) W 269 0 min 0,000 mm 0,0 UV-I 0 W/m 14,0 C 0,0 km/h (0 Bft)
01.09.2016 23:10 15,3 C 15,3 C 92 % 1021,1 hPa 0,0 mm 0,0 km/h (0 Bft) W 269 0 min 0,000 mm 0,0 UV-I 0 W/m 14,0 C 0,0 km/h (0 Bft)
01.09.2016 23:11 15,3 C 15,3 C 92 % 1021,0 hPa 0,0 mm 0,0 km/h (0 Bft) W 269 0 min 0,000 mm 0,0 UV-I 0 W/m 14,0 C 0,0 km/h (0 Bft)
01.09.2016 23:12 15,3 C 15,3 C 92 % 1021,0 hPa 0,0 mm 0,0 km/h (0 Bft) W 269 0 min 0,000 mm 0,0 UV-I 0 W/m 14,0 C 0,0 km/h (0 Bft)
01.09.2016 23:13 15,3 C 15,3 C 92 % 1021,1 hPa 0,0 mm 0,0 km/h (0 Bft) W 269 0 min 0,000 mm 0,0 UV-I 0 W/m 14,0 C 0,0 km/h (0 Bft)
01.09.2016 23:14 15,3 C 15,3 C 92 % 1021,1 hPa 0,0 mm 0,0 km/h (0 Bft) W 269 0 min 0,000 mm 0,0 UV-I 0 W/m 14,0 C 0,0 km/h (0 Bft)
01.09.2016 23:15 15,2 C 15,3 C 92 % 1021,0 hPa 0,0 mm 0,0 km/h (0 Bft) W 269 0 min 0,000 mm 0,0 UV-I 0 W/m 13,9 C 0,0 km/h (0 Bft)
01.09.2016 23:16 15,2 C 15,2 C 92 % 1021,1 hPa 0,0 mm 0,0 km/h (0 Bft) W 269 0 min 0,000 mm 0,0 UV-I 0 W/m 13,9 C 0,0 km/h (0 Bft)
01.09.2016 23:17 15,2 C 15,2 C 92 % 1021,1 hPa 0,0 mm 0,0 km/h (0 Bft) W 269 0 min 0,000 mm 0,0 UV-I 0 W/m 13,9 C 0,0 km/h (0 Bft)
01.09.2016 23:18 15,2 C 15,2 C 92 % 1021,1 hPa 0,0 mm 0,0 km/h (0 Bft) W 269 0 min 0,000 mm 0,0 UV-I 0 W/m 13,9 C 0,0 km/h (0 Bft)
01.09.2016 23:19 15,1 C 15,2 C 92 % 1021,1 hPa 0,0 mm 0,0 km/h (0 Bft) W 269 0 min 0,000 mm 0,0 UV-I 0 W/m 13,8 C 0,0 km/h (0 Bft)
01.09.2016 23:20 15,2 C 15,2 C 93 % 1021,2 hPa 0,0 mm 0,0 km/h (0 Bft) W 269 0 min 0,000 mm 0,0 UV-I 0 W/m 14,1 C 0,0 km/h (0 Bft)
01.09.2016 23:21 15,1 C 15,2 C 93 % 1021,1 hPa 0,0 mm 0,0 km/h (0 Bft) W 269 0 min 0,000 mm 0,0 UV-I 0 W/m 14,0 C 0,0 km/h (0 Bft)
01.09.2016 23:22 15,2 C 15,2 C 93 % 1021,1 hPa 0,0 mm 0,0 km/h (0 Bft) W 269 0 min 0,000 mm 0,0 UV-I 0 W/m 14,1 C 0,0 km/h (0 Bft)
01.09.2016 23:23 15,2 C 15,2 C 93 % 1021,0 hPa 0,0 mm 0,0 km/h (0 Bft) W 269 0 min 0,000 mm 0,0 UV-I 0 W/m 14,1 C 0,0 km/h (0 Bft)
01.09.2016 23:24 15,2 C 15,2 C 93 % 1021,0 hPa 0,0 mm 0,0 km/h (0 Bft) W 269 0 min 0,000 mm 0,0 UV-I 0 W/m 14,1 C 0,0 km/h (0 Bft)
01.09.2016 23:25 15,1 C 15,2 C 93 % 1021,0 hPa 0,0 mm 0,0 km/h (0 Bft) W 269 0 min 0,000 mm 0,0 UV-I 0 W/m 14,0 C 0,0 km/h (0 Bft)
01.09.2016 23:26 15,1 C 15,1 C 93 % 1021,1 hPa 0,0 mm 0,0 km/h (0 Bft) W 269 0 min 0,000 mm 0,0 UV-I 0 W/m 14,0 C 0,0 km/h (0 Bft)
01.09.2016 23:27 15,1 C 15,1 C 93 % 1021,1 hPa 0,0 mm 0,0 km/h (0 Bft) W 269 0 min 0,000 mm 0,0 UV-I 0 W/m 14,0 C 0,0 km/h (0 Bft)
01.09.2016 23:28 15,1 C 15,1 C 93 % 1021,1 hPa 0,0 mm 0,0 km/h (0 Bft) W 269 0 min 0,000 mm 0,0 UV-I 0 W/m 14,0 C 0,0 km/h (0 Bft)
01.09.2016 23:29 15,1 C 15,1 C 93 % 1021,1 hPa 0,0 mm 0,0 km/h (0 Bft) W 269 0 min 0,000 mm 0,0 UV-I 0 W/m 14,0 C 0,0 km/h (0 Bft)
01.09.2016 23:30 15,1 C 15,1 C 93 % 1021,1 hPa 0,0 mm 0,0 km/h (0 Bft) W 269 0 min 0,000 mm 0,0 UV-I 0 W/m 14,0 C 0,0 km/h (0 Bft)
01.09.2016 23:31 15,1 C 15,1 C 93 % 1021,0 hPa 0,0 mm 0,0 km/h (0 Bft) W 269 0 min 0,000 mm 0,0 UV-I 0 W/m 14,0 C 0,0 km/h (0 Bft)
01.09.2016 23:32 15,0 C 15,1 C 93 % 1021,1 hPa 0,0 mm 0,0 km/h (0 Bft) W 269 0 min 0,000 mm 0,0 UV-I 0 W/m 13,9 C 0,0 km/h (0 Bft)
01.09.2016 23:33 15,1 C 15,1 C 93 % 1021,1 hPa 0,0 mm 0,0 km/h (0 Bft) W 269 0 min 0,000 mm 0,0 UV-I 0 W/m 14,0 C 0,0 km/h (0 Bft)
01.09.2016 23:34 15,1 C 15,1 C 93 % 1021,1 hPa 0,0 mm 0,0 km/h (0 Bft) W 269 0 min 0,000 mm 0,0 UV-I 0 W/m 14,0 C 0,0 km/h (0 Bft)
01.09.2016 23:35 15,1 C 15,1 C 93 % 1021,1 hPa 0,0 mm 0,0 km/h (0 Bft) W 269 0 min 0,000 mm 0,0 UV-I 0 W/m 14,0 C 0,0 km/h (0 Bft)
01.09.2016 23:36 15,1 C 15,1 C 93 % 1021,1 hPa 0,0 mm 0,0 km/h (0 Bft) W 269 0 min 0,000 mm 0,0 UV-I 0 W/m 14,0 C 0,0 km/h (0 Bft)
01.09.2016 23:37 15,1 C 15,1 C 93 % 1021,2 hPa 0,0 mm 0,0 km/h (0 Bft) W 269 0 min 0,000 mm 0,0 UV-I 0 W/m 14,0 C 0,0 km/h (0 Bft)
01.09.2016 23:38 15,1 C 15,1 C 93 % 1021,1 hPa 0,0 mm 0,0 km/h (0 Bft) W 269 0 min 0,000 mm 0,0 UV-I 0 W/m 14,0 C 0,0 km/h (0 Bft)
01.09.2016 23:39 15,1 C 15,1 C 93 % 1021,1 hPa 0,0 mm 0,0 km/h (0 Bft) W 269 0 min 0,000 mm 0,0 UV-I 0 W/m 14,0 C 0,0 km/h (0 Bft)
01.09.2016 23:40 15,1 C 15,1 C 93 % 1021,1 hPa 0,0 mm 0,0 km/h (0 Bft) W 269 0 min 0,000 mm 0,0 UV-I 0 W/m 14,0 C 0,0 km/h (0 Bft)
01.09.2016 23:41 15,1 C 15,1 C 93 % 1021,1 hPa 0,0 mm 0,0 km/h (0 Bft) W 269 0 min 0,000 mm 0,0 UV-I 0 W/m 14,0 C 0,0 km/h (0 Bft)
01.09.2016 23:42 15,1 C 15,1 C 93 % 1021,2 hPa 0,0 mm 0,0 km/h (0 Bft) W 269 0 min 0,000 mm 0,0 UV-I 0 W/m 14,0 C 0,0 km/h (0 Bft)
01.09.2016 23:43 15,1 C 15,1 C 93 % 1021,1 hPa 0,0 mm 0,0 km/h (0 Bft) W 269 0 min 0,000 mm 0,0 UV-I 0 W/m 14,0 C 0,0 km/h (0 Bft)
01.09.2016 23:44 15,1 C 15,1 C 93 % 1021,1 hPa 0,0 mm 0,0 km/h (0 Bft) W 269 0 min 0,000 mm 0,0 UV-I 0 W/m 14,0 C 0,0 km/h (0 Bft)
01.09.2016 23:45 15,1 C 15,1 C 93 % 1021,1 hPa 0,0 mm 0,0 km/h (0 Bft) W 269 0 min 0,000 mm 0,0 UV-I 0 W/m 14,0 C 0,0 km/h (0 Bft)
01.09.2016 23:46 15,0 C 15,1 C 93 % 1021,1 hPa 0,0 mm 0,0 km/h (0 Bft) W 269 0 min 0,000 mm 0,0 UV-I 0 W/m 13,9 C 0,0 km/h (0 Bft)
01.09.2016 23:47 15,1 C 15,1 C 93 % 1021,1 hPa 0,0 mm 0,0 km/h (0 Bft) W 269 0 min 0,000 mm 0,0 UV-I 0 W/m 14,0 C 0,0 km/h (0 Bft)
01.09.2016 23:48 15,1 C 15,1 C 93 % 1021,1 hPa 0,0 mm 0,0 km/h (0 Bft) W 269 0 min 0,000 mm 0,0 UV-I 0 W/m 14,0 C 0,0 km/h (0 Bft)
01.09.2016 23:49 15,1 C 15,1 C 93 % 1021,0 hPa 0,0 mm 0,0 km/h (0 Bft) W 269 0 min 0,000 mm 0,0 UV-I 0 W/m 14,0 C 0,0 km/h (0 Bft)
01.09.2016 23:50 15,1 C 15,1 C 93 % 1021,0 hPa 0,0 mm 0,0 km/h (0 Bft) W 269 0 min 0,000 mm 0,0 UV-I 0 W/m 14,0 C 0,0 km/h (0 Bft)
01.09.2016 23:51 15,0 C 15,1 C 93 % 1021,0 hPa 0,0 mm 0,0 km/h (0 Bft) W 269 0 min 0,000 mm 0,0 UV-I 0 W/m 13,9 C 0,0 km/h (0 Bft)
01.09.2016 23:52 15,0 C 15,0 C 93 % 1021,0 hPa 0,0 mm 0,0 km/h (0 Bft) W 269 0 min 0,000 mm 0,0 UV-I 0 W/m 13,9 C 0,0 km/h (0 Bft)
01.09.2016 23:53 15,0 C 15,0 C 93 % 1021,0 hPa 0,0 mm 0,0 km/h (0 Bft) W 269 0 min 0,000 mm 0,0 UV-I 0 W/m 13,9 C 0,0 km/h (0 Bft)
01.09.2016 23:54 14,9 C 15,0 C 93 % 1021,0 hPa 0,0 mm 0,0 km/h (0 Bft) W 269 0 min 0,000 mm 0,0 UV-I 0 W/m 13,8 C 0,0 km/h (0 Bft)
01.09.2016 23:55 14,9 C 14,9 C 93 % 1021,0 hPa 0,0 mm 0,0 km/h (0 Bft) W 269 0 min 0,000 mm 0,0 UV-I 0 W/m 13,8 C 0,0 km/h (0 Bft)
01.09.2016 23:56 14,9 C 14,9 C 93 % 1021,0 hPa 0,0 mm 0,0 km/h (0 Bft) W 269 0 min 0,000 mm 0,0 UV-I 0 W/m 13,8 C 0,0 km/h (0 Bft)
01.09.2016 23:57 14,9 C 14,9 C 93 % 1021,0 hPa 0,0 mm 0,0 km/h (0 Bft) W 269 0 min 0,000 mm 0,0 UV-I 0 W/m 13,8 C 0,0 km/h (0 Bft)
01.09.2016 23:58 14,9 C 14,9 C 93 % 1021,0 hPa 0,0 mm 0,0 km/h (0 Bft) W 269 0 min 0,000 mm 0,0 UV-I 0 W/m 13,8 C 0,0 km/h (0 Bft)
01.09.2016 23:59 14,9 C 14,9 C 93 % 1021,1 hPa 0,0 mm 0,0 km/h (0 Bft) W 269 0 min 0,000 mm 0,0 UV-I 0 W/m 13,8 C 0,0 km/h (0 Bft)
_ Min-Zeit 05:08 05:08 16:06 05:41 - 23:59 - - - - - - 16:06 23:59
Minimum _ 14,2 C 14,2 C 53 % 1019,6 hPa - 0,0 km/h (0 Bft) - - - - - - 12,2 C 0,0 km/h (0 Bft)
_ Max-Zeit 17:14 17:16 02:47 10:49 08:42 17:50 - - 16:18 16:01 13:42 13:49 13:52 17:49
Maximum _ 22,3 C 22,3 C 96 % 1021,8 hPa 0,8 mm 11,3 km/h
N (2 Bft)
- - 1 min 0,381 mm 5,6 UV-I 754 W/m 17,7 C 16,1 km/h
N (3 Bft)
Durchschnitt _ 17,4 C 17,4 C 87 % 1020,6 hPa #6,0 mm 1,7 km/h (1 Bft) W-SW - #2:35 h #1,651 mm 2,4 UV-I 114 W/m 15,0 C 3,0 km/h (1 Bft)